     2              OBSERVATION DATA    GPS                 RINEX VERSION / TYPE
ASRINEXO V2.4.4 UX USGS 18-DEC-96 11:07                     PGM / RUN BY / DATE
                                                            COMMENT
Original Marker Name: hp74 HPGN_07-04_1991_CDOT             COMMENT
Campaign Name: usgs.northridge                              COMMENT
4-Character Station Name: HP74                              COMMENT
6-Character Antenna Code: ASHL12                            COMMENT
Vertical Measurement Point: BBE                             COMMENT
Vertical Offset to Rinex Ref. Point: 0.0595                 COMMENT
Radial Measurement Point: EGP                               COMMENT
Radial Offset to Rinex Ref. Point: 0.1424                   COMMENT
Antenna Height from Field Measurement: 1.3820 m             COMMENT
Additional Antenna Identification Info.:                    COMMENT
Original Ashtech L1/L2                                      COMMENT
Original XYZ: -2516980.7295 -4627996.4549 3583971.2608      COMMENT
New XYZ position is based on association with SCEC monument COMMENT
E1E9I9U4+0011. Position of that monument is believed to be  COMMENT
valid to within 1 m horizontally; vertical accuracy         COMMENT
should be no worse than 3-times this value.                 COMMENT
                                                            COMMENT
Revised Rinex header created by UCSD GPS archive for        COMMENT
GSAC on 21-Mar-2000 (2000:081) 21:48:56 GMT                 COMMENT
For assistance contact dagnew@ucsd.edu or hjohnson@ucsd.edu COMMENT
                                                            COMMENT
HP74 HPGN_07-04_1991_CDOT                                   MARKER NAME
GDH US GEOLOGICAL SURVEY                                    OBSERVER / AGENCY
143 ASHTECH Z-XII3 1E95                                     REC # / TYPE / VERS
58 ASHTECH GEODETIC P                                       ANT # / TYPE
 -2516977.8564 -4627969.8320  3583979.4116                  APPROX POSITION XYZ
        1.3151        0.0000        0.0000                  ANTENNA: DELTA H/E/N
     1     1     0                                          WAVELENGTH FACT L1/2
     5    C1    L1    L2    P1    P2                        # / TYPES OF OBSERV
    30                                                      INTERVAL
  1996    12     4    17    15    0.000000                  TIME OF FIRST OBS
  1996    12     4    23    30   30.000000                  TIME OF LAST OBS
                                                            END OF HEADER
 96 12  4 17 15  0.0000000  0  6 31 29  1 21 25 15
  24491975.371      289444.09549    202370.82949  24491975.7784   24491984.2124
  23843020.367     -182524.69549   -136978.87949  23843019.4214   23843023.7894
  21780663.955      295751.43949    218491.87549  21780663.5804   21780669.0414
  22302224.254      268314.35849    195646.79149  22302223.2524   22302229.3064
  21455942.343     -111114.46149    -81394.85949  21455941.7014   21455947.1104
  21695658.791      -13824.16049                  21695658.448    21695664.6504
 96 12  4 17 15 30.0000000  0  6 31 29  1 21 25 15
  24510403.245      386275.25749    277823.57449  24510401.6224   24510410.4714
  23832795.489     -236255.63449   -178847.13049  23832793.8304   23832798.7704
  21796934.579      381253.92849    285117.17749  21796934.3664   21796939.2994
  22316810.876      344967.15249    255376.21849  22316810.0744   22316816.5324
  21449973.716     -142478.58949   -105834.42449  21449973.5824   21449979.2204
  21687108.008     -216653.22849    -48837.95249  21687107.5284   21687113.7854
 96 12  4 17 16  0.0000000  0  6 31 29  1 21 25 15
  24528812.095      483010.56949    353201.68449  24528810.4084   24528817.9834
  23822567.326     -290000.53049   -220726.27249  23822566.7104   23822571.1234
  21813200.579      466731.04049    351722.70649  21813199.4564   21813205.2404
  22331400.268      421634.34449    315116.84549  22331399.6544   22331405.9524
  21444054.076     -173588.13049   -130075.62549  21444053.5814   21444058.7304
  21678605.119     -261337.89249    -83657.15149  21678604.4844   21678610.2674
 96 12  4 17 16 30.0000000  0  7 31 29  1 21 25 14 15
  24547200.980      579643.34949    428499.86749  24547200.5774   24547206.2594
  23812336.062     -343765.99749   -262621.47649  23812334.8844   23812339.0884
  21829457.995      552165.19349    418294.75649  21829456.9914   21829462.3334
  22345993.977      498324.73749    374875.60949  22345992.9814   22345998.7194
  21438181.244     -204450.43949   -154124.14949  21438180.0474   21438185.6304
  24989572.536    24989582.332                                    24989668.6984
  21670149.155     -305774.06949   -118282.71249  21670149.0484   21670154.1554
 96 12  4 17 17  0.0000000  0  7 31 29  1 21 25 14 15
  24565566.357      676151.05849    503700.70649  24565566.1324   24565570.4844
  23802100.225     -397554.25849   -304534.37949  23802099.7594   23802104.2924
  21845702.003      637528.15749    484811.34049  21845701.9054   21845707.0024
  22360588.264      575019.46149    434637.69149  22360586.0684   22360592.7234
  21432352.451     -235080.44949   -177991.68449  21432351.6024   21432357.6284
  24977909.050    24977917.977                                    24977897.7634
  21661737.928     -349975.72849   -152725.58849  21661737.5914   21661742.5534
 96 12  4 17 17 30.0000000  0  7 31 29  1 21 25 14 15
  24583902.303      772508.97349    578784.77949  24583900.5104   24583905.7154
  23791856.299     -451385.39549   -346480.73549  23791856.1214   23791860.5514
  21861926.617      722788.04449    551247.59649  21861925.8044   21861931.2084
  22375184.954      651726.51749    494409.39349  22375184.0424   22375189.9924
  21426565.498     -265491.04049   -201688.24449  21426564.8884   21426570.0454
  24966189.289    24966198.760                                    24966188.8284
  21653370.359     -393948.72049   -186990.24149  21653369.4844   21653375.6504
 96 12  4 17 18  0.0000000  0  7 31 29  1 21 25 14 15
  24602211.577      868726.14149    653759.19149  24602210.6944   24602215.5904
  23781606.180     -505253.01749   -388455.49749  23781606.6964   23781611.9944
  21878130.091      807937.07949    617597.48049  21878129.7664   21878134.7564
  22389787.512      728463.15049    554204.14049  22389786.4834   22389793.2454
  21420819.447     -295686.73649   -225217.36149  21420818.6164   21420823.5444
  24954415.736    24954417.726                                    24954474.7664
  21645047.424     -437686.43149   -221071.56349  21645046.7364   21645052.8654
 96 12  4 17 18 30.0000000  0  7 31 29  1 21 25 14 15
  24620486.876      964763.57649    728593.52949  24620486.8524   24620492.3644
  23771343.584     -559184.56249   -430480.07349  23771343.6314   23771348.5034
  21894305.893      892940.68449    683834.05449  21894305.3684   21894309.7334
  22404390.119      805200.19649    613999.22949  22404389.0444   22404395.2874
  21415107.371     -325703.14449   -248606.75149  21415106.7304   21415111.6014
  24942583.940    24942585.577                                    24942595.2014
  21636763.524     -481219.25949   -254993.24149  21636763.2014   21636768.9444
 96 12  4 17 19  0.0000000  0  7 31 29  1 21 25 14 15
  24638725.321     1060609.94249    803278.98949  24638722.1184   24638731.9824
  23761065.742     -613195.19849   -472566.25549  23761066.9564   23761071.2994
  21910456.147      977810.41649    749966.30249  21910455.4574   21910460.1794
  22418989.325      881919.12549    673780.18649  22418989.0274   22418994.8894
  21409427.239     -355552.55349   -271866.01049  21409426.8624   21409431.7634
  24930692.092    24930692.751                                    24930702.4824
  21628516.921     -524556.82049   -288762.77249  21628516.2404   21628522.1744
 96 12  4 17 19 30.0000000  0  7 31 29  1 21 25 14 15
  24656924.129     1156254.41549    877807.04549  24656923.4774   24656934.3554
  23750767.794     -667311.23549   -514734.53049  23750766.3274   23750772.6544
  21926580.459     1062543.50949    815992.07949  21926579.3454   21926584.0444
  22433584.147      958615.67149    733543.69349  22433583.7634   22433590.3384
  21403777.420     -385243.40349   -295001.71549  21403777.2434   21403782.1384
  24918735.190     -157822.77559                  24918730.972    24918748.8134
  21620305.567     -567708.17649   -322387.18849  21620304.7444   21620310.2434
 96 12  4 17 20  0.0000000  0  7 31 29  1 21 25 14 15
  24675086.208     1251696.13349    952177.14549  24675088.5324   24675096.3684
  23740452.064     -721519.73549   -556974.89449  23740452.1474   23740458.0154
  21942683.406     1147165.68849    881931.41749  21942682.3074   21942687.1894
  22448173.445     1035282.35149    793283.91949  22448172.7134   22448179.9574
  21398161.340     -414756.74749   -317999.11149  21398161.1714   21398166.3074
  24906715.268     -838248.85259   -207036.96149  24906715.1404   24906725.5564
  21612129.982     -610671.86549   -355865.39049  21612128.8954   21612134.2984
 96 12  4 17 20 30.0000000  0  7 31 29  1 21 25 14 15
  24693205.008     1346907.15749   1026367.48649  24693205.7094   24693214.2504
  23730115.262     -775841.30849   -599303.37349  23730114.4044   23730121.1444
  21958766.035     1231681.55449    947787.92649  21958764.9134   21958770.2494
  22462753.031     1111897.53149    852984.03049  22462752.4304   22462758.8714
  21392577.735     -444099.49649   -340863.57449  21392577.5374   21392582.9734
  24894632.921     -901739.60349   -256510.15249  24894632.7244   24894639.7844
  21603987.282     -653461.75249   -389208.14849  21603986.0824   21603992.0754
 96 12  4 17 21  0.0000000  0  7 31 29  1 21 25 14 15
  24711280.159     1441891.50149   1100381.21849  24711279.1474   24711287.5624
  23719756.186     -830276.57449   -641720.45549  23719754.8654   23719762.3494
  21974829.531     1316096.08649   1013565.46849  21974828.9624   21974833.9484
  22477322.163     1188458.85349    912642.15449  22477321.8644   22477327.8284
  21387028.324     -473262.12849   -363587.69449  21387027.6894   21387033.3784
  24882485.411     -965576.21449   -306252.97049  24882488.4624   24882494.2644
  21595878.508     -696074.00749   -422412.49349  21595877.6554   21595883.0154
 96 12  4 17 21 30.0010000  0  7 31 29  1 21 25 14 15
  24729308.803     1536634.70949   1174207.01949  24729309.5354   24729316.8354
  23709376.522     -884820.76249   -684222.39649  23709376.8304   23709381.8614
  21990868.636     1400381.83349   1079242.66949  21990867.6494   21990873.3054
  22491880.663     1264963.74549    972256.32349  22491880.5054   22491887.5394
  21381511.932     -502250.66549   -386176.15649  21381511.2684   21381516.9854
  24870271.303    -1029769.51049   -356273.66849  24870273.6884   24870278.9484
  21587802.915     -738512.15249   -455481.17349  21587801.7864   21587807.0474
 96 12  4 17 22  0.0010000  0  7 31 29  1 21 25 14 15
  24747302.923     1631193.13649   1247888.84649  24747303.5284   24747310.2314
  23698991.729     -939394.69149   -726747.52049  23698992.4394   23698997.5384
  22006890.697     1484577.80849   1144849.90849  22006889.4574   22006895.4314
  22506438.248     1341463.09349   1031866.17749  22506436.8084   22506443.6444
  21376042.283     -530993.33249   -408573.03149  21376041.8544   21376047.3554
  24858002.306    -1094249.02149   -406517.38349  24858002.0434   24858011.0514
  21579773.154     -780708.61349   -488361.51949  21579771.6354   21579777.4024
 96 12  4 17 22 30.0010000  0  7 31 29  1 21 25 14 15
  24765278.078     1725652.84949   1321493.79249  24765279.3844   24765285.4024
  23688615.357     -993923.77849   -769237.75849  23688614.3144   23688620.6014
  22022906.889     1568744.42449   1210434.26849  22022905.4504   22022912.3484
  22521008.152     1418028.62449   1091527.59449  22521007.8614   22521013.2944
  21370632.599     -559421.37749   -430724.75449  21370632.2194   21370637.2354
  24845689.855    -1158951.86749   -456935.15549  24845689.2674   24845698.0434
  21571804.306     -822584.55449   -520992.11149  21571803.0024   21571809.1664
 96 12  4 17 23  0.0010000  0  7 31 29  1 21 25 14 15
  24783231.597     1819997.06249   1395008.70149  24783232.0354   24783238.0324
  23678245.688    -1048415.80849   -811698.99649  23678245.0324   23678250.9504
  22038913.820     1652862.36549   1275980.70949  22038912.5084   22038919.3714
  22535587.579     1494642.93049   1151227.04149  22535586.4384   22535593.9414
  21365280.233     -587548.48549   -452641.96949  21365279.4854   21365284.7454
  24833330.207    -1223901.82849   -507545.51549  24833329.0644   24833341.8864
  21563894.245     -864152.27849   -553382.54749  21563892.9184   21563899.4354
 96 12  4 17 23 30.0010000  0  7 31 29  1 21 25 14 15
  24801167.658     1914249.82349   1468452.36349  24801169.2784   24801175.8914
  23667887.098    -1102850.54849   -854115.66949  23667886.2734   23667891.2734
  22054914.683     1736947.54749   1341501.60049  22054913.8114   22054920.1014
  22550180.828     1571331.66849   1210984.46849  22550180.0954   22550186.8674
  21359990.189     -615347.62049   -474303.62049  21359989.5574   21359994.3814
  24820931.031    -1289059.95449   -558318.06049  24820931.2374   24820942.3484
  21556047.013     -905389.99149   -585515.81949  21556045.7304   21556051.7934
 96 12  4 17 24  0.0010000  0  7 31 29  1 21 25 14 15
  24819086.161     2008407.92149   1541822.22949  24819087.9034   24819093.3804
  23657534.420    -1157254.09049   -896508.02949  23657534.2904   23657538.8024
  22070910.738     1821006.72749   1407002.24649  22070910.6474   22070915.9084
  22564786.421     1648084.03749   1270791.49249  22564785.3544   22564791.8974
  21354760.717     -642828.27549   -495717.11049  21354759.9474   21354764.9424
  24808491.191    -1354432.03749   -609257.31349  24808491.6494   24808498.9564
  21548260.547     -946307.47049   -617399.56449  21548258.9814   21548265.4394
 96 12  4 17 24 30.0010000  0  7 31 29  1 21 25 14 15
  24836988.759     2102483.50449   1615127.83649  24836990.3694   24836994.8654
  23647186.178    -1211633.02849   -938881.21649  23647185.2444   23647191.1514
  22086906.520     1905063.71749   1472501.21349  22086906.7034   22086911.2994
  22579407.867     1724919.96949   1330663.64449  22579407.5514   22579413.8644
  21349592.941     -669984.66649   -516877.92849  21349592.5454   21349597.5224
  24796013.177    -1420009.01049   -660356.10849  24796012.9074   24796019.5014
  21540538.027     -986889.23349   -649021.73849  21540537.1064   21540542.6024
 96 12  4 17 25  0.0010000  0  7 31 29  1 21 25 14 15
  24854873.788     2196470.38549   1688364.28549  24854873.1694   24854883.5474
  23636840.159    -1266002.63049   -981247.06849  23636840.4864   23636845.8474
  22102899.385     1989106.23749   1537988.86349  22102898.6824   22102904.5484
  22594046.927     1801848.83449   1390608.15749  22594046.4474   22594053.0324
  21344487.406     -696815.02249   -537784.67049  21344487.5594   21344492.1084
  24783496.989    -1485783.30649   -711608.67249  24783497.5024   24783505.6244
  21532879.225    -1027136.65949   -680383.34349  21532878.3394   21532883.9654
 96 12  4 17 25 30.0010000  0  7 31 29  1 21 25 14 15
  24872741.705     2290367.58249   1761530.84349  24872741.3694   24872748.2314
  23626495.586    -1320365.10249  -1023607.39149  23626495.0384   23626500.0584
  22118886.561     2073119.96849   1603454.10249  22118885.7144   22118891.5334
  22608704.024     1878872.14449   1450626.28749  22608702.5514   22608709.9944
  21339444.678     -723315.80649   -558434.61549  21339444.0604   21339449.0804
  24770942.628    -1551757.94149   -763017.39749  24770938.5064   24770948.5724
  21525284.665    -1067046.58049   -711481.97149  21525283.6664   21525289.9504
 96 12  4 17 26  0.0010000  0  7 31 29  1 21 25 14 15
  24890590.311     2384163.47949   1834618.53849  24890588.0144   24890597.0264
  23616154.171    -1374709.36749  -1065953.54949  23616154.5064   23616159.2684
  22134868.775     2157106.98549   1668898.50949  22134868.1004   22134873.8214
  22623381.208     1956000.97149   1510726.65649  22623379.9704   22623386.4894
  21334465.465     -749481.04449   -578823.09649  21334465.0774   21334470.4264
  24758347.943    -1617942.97549   -814590.10849  24758345.0644   24758351.3334
  21517756.585    -1106606.81749   -742308.12549  21517754.9784   21517761.6854
 96 12  4 17 26 30.0010000  0  7 31 29  1 21 25 14 15
  24908418.606     2477853.34249   1907623.59649  24908418.8004   24908424.5274
  23605821.254    -1429010.62749  -1108266.21849  23605822.3394   23605825.5674
  22150846.424     2241070.15449   1734324.33949  22150845.8694   22150851.8984
  22638080.547     2033246.96849   1570918.32149  22638079.9334   22638087.2274
  21329552.567     -775298.45749   -598940.55049  21329552.1384   21329557.3924
  24745713.778    -1684335.59449   -866324.55349  24745711.4504   24745716.9024
  21510297.114    -1145805.42749   -772852.48549  21510295.8724   21510302.6194
 96 12  4 17 27  0.0010000  0  7 31 29  1 21 25 14 15
  24926226.054     2571434.53049   1980543.95249  24926226.0834   24926232.6114
  23595501.946    -1483240.94849  -1150523.59349  23595500.9054   23595506.2024
  22166821.335     2325018.58449   1799738.68149  22166820.4304   22166826.6734
  22652802.101     2110609.49949   1631200.78149  22652800.5534   22652807.6964
  21324707.525     -800759.31949   -618780.17249  21324707.0724   21324712.3544
  24733041.661    -1750927.04649   -918213.91049  24733041.3524   24733045.7324
  21502908.435    -1184632.46849   -803107.31249  21502907.1574   21502914.4154
 96 12  4 17 27 30.0010000  0  7 31 29  1 21 25 14 15
  24944012.578     2664901.27049   2053375.13049  24944012.4104   24944018.7314
  23585199.263    -1537380.77049  -1192710.45049  23585198.6874   23585203.2644
  22182797.135     2408971.49049   1865156.51649  22182796.4004   22182802.9644
  22667547.295     2188096.52549   1691580.25649  22667545.3054   22667552.0904
  21319931.587     -825856.84149   -638336.67849  21319931.0494   21319936.5974
  24720332.985    -1817709.18549   -970251.83849  24720330.7214   24720336.4444
  21495592.466    -1223078.26749   -833065.06349  21495591.4724   21495598.2324
 96 12  4 17 28  0.0010000  0  7 31 29  1 21 25 14 15
  24961773.020     2758231.61249   2126099.99549  24961773.5244   24961778.7054
  23574913.306    -1591432.70149  -1234828.84349  23574911.7884   23574918.2714
  22198773.830     2492929.34049   1930578.20149  22198772.9394   22198779.0904
  22682315.577     2265705.16949   1752054.48649  22682314.8204   22682321.0004
  21315223.939     -850596.18149   -657614.07849  21315223.1984   21315228.8234
  24707588.300    -1884678.68749  -1022435.78749  24707586.6644   24707593.8294
  21488348.529    -1261145.47449   -862727.80449  21488347.2874   21488353.9424
 96 12  4 17 28 30.0010000  0  7 31 29  1 21 25 14 15
  24979509.909     2851441.32349   2198730.87649  24979509.6354   24979516.0184
  23564644.238    -1645395.21549  -1276877.53949  23564642.3384   23564649.3064
  22214751.557     2576893.07649   1996004.47949  22214750.2284   22214757.1144
  22697103.577     2343417.23149   1812609.28849  22697103.0734   22697109.2924
  21310583.744     -874980.21649   -676614.62049  21310583.1604   21310588.9554
  24694811.335    -1951820.46549  -1074753.99849  24694811.2184   24694819.8664
  21481176.322    -1298836.28849   -892097.26049  21481175.5324   21481181.0744
 96 12  4 17 29  0.0010000  0  7 31 29  1 21 25 14 15
  24997228.783     2944556.61049   2271288.19449  24997227.9994   24997234.0374
  23554395.025    -1699252.85649  -1318844.47949  23554393.6634   23554399.7624
  22230729.689     2660858.95149   2061432.42349  22230728.5374   22230734.6784
  22711913.457     2421243.05049   1873252.75549  22711912.7004   22711919.0564
  21306014.519     -898991.68149   -695324.84749  21306013.9634   21306019.4444
  24682007.085    -2019108.79649  -1127186.40849  24682006.7224   24682015.6764
  21474078.756    -1336135.15949   -921161.30649  21474078.0354   21474083.7324
 96 12  4 17 29 30.0010000  0  7 31 29  1 21 25 14 15
  25014931.074     3037583.78549   2343776.84049  25014928.0164   25014936.2504
  23544167.689    -1752996.52149  -1360722.61349  23544167.8024   23544173.4634
  22246707.971     2744824.81449   2126860.35649  22246707.1454   22246713.1834
  22726748.205     2499199.98249   1933998.36149  22726747.0004   22726754.5854
  21301519.875     -922610.49349   -713729.11049  21301519.2354   21301524.4084
  24669177.771    -2086531.51649  -1179723.48349  24669178.6934   24669186.7504
  21467058.516    -1373027.61349   -949908.67349  21467057.7654   21467063.5274
 96 12  4 17 30  0.0010000  0  7 31 29  1 21 25 14 15
  25032621.099     3130547.49949   2416216.00249  25032621.1374   25032628.2434
  23533962.772    -1806623.78549  -1402510.05249  23533963.1664   23533968.3574
  22262687.680     2828798.00749   2192294.00549  22262686.9834   22262692.6944
  22741607.237     2577285.53949   1994844.19349  22741606.6334   22741614.3634
  21297099.908     -945837.56949   -731828.10849  21297099.7854   21297104.6724
  24656324.496    -2154079.03149  -1232357.78149  24656323.9524   24656329.6794
  21460117.170    -1409504.15349   -978331.94049  21460115.9214   21460121.8984
 96 12  4 17 30 30.0010000  0  7 31 29  1 21 25 14 15
  25050305.244     3223470.75449   2488623.66449  25050304.9654   25050308.8034
  23523778.867    -1860141.10649  -1444211.84249  23523779.0374   23523782.8414
  22278668.305     2912776.54949   2257731.81749  22278667.5694   22278673.2344
  22756491.938     2655504.41649   2055793.91549  22756492.4984   22756498.8024
  21292755.146     -968669.94149   -749619.55649  21292754.8034   21292759.7624
  24643447.075    -2221752.60949  -1285090.30549  24643445.2584   24643452.1584
  21453256.046    -1445560.01249  -1006427.41449  21453255.5604   21453260.4984
 96 12  4 17 31  0.0010000  0  7 31 29  1 21 25 14 15
  25067977.180     3316335.26549   2560985.57449  25067981.1784   25067981.1364
  23513613.768    -1913559.09049  -1485836.19949  23513612.3554   23513618.7224
  22294651.752     2996770.35749   2323181.52749  22294650.6454   22294656.8994
  22771406.872     2733881.90449   2116867.23549  22771406.0944   22771412.9454
  21288488.127     -991093.50049   -767092.44949  21288487.2274   21288492.7944
  24630542.437    -2289563.28949  -1337929.78349  24630538.7434   24630549.1224
  21446477.462    -1481182.07649  -1034184.85549  21446476.1734   21446482.6484
 96 12  4 17 31 30.0010000  0  7 31 29  1 21 25 14 15
  25085638.144     3409136.45249   2633298.11849  25085638.8644   25085639.7044
  23503464.926    -1966891.25549  -1527393.70849  23503464.9204   23503469.8574
  22310640.970     3080794.82949   2388655.12649  22310639.9554   22310646.5554
  22786354.122     2812430.19449   2178073.64949  22786353.5664   22786360.4284
  21284299.289    -1013105.44449   -784244.60649  21284298.7674   21284304.4434
  24617609.666    -2357520.06949  -1390883.11549  24617608.3044   24617617.9694
  21439782.952    -1516361.53749  -1061597.41049  21439781.3284   21439788.0414
 96 12  4 17 32  0.0010000  0  7 31 29  1 21 25 14 15
  25103286.105     3501873.09849   2705560.41749  25103283.9884   25103289.6384
  23493330.793    -2020148.28549  -1568892.65049  23493331.2454   23493335.3884
  22326637.923     3164859.97249   2454160.41149  22326636.8814   22326643.6364
  22801335.333     2891156.87049   2239419.06149  22801335.0344   22801341.7984
  21280187.180    -1034714.55049   -801082.86349  21280186.5434   21280192.5304
  24604649.350    -2425625.73149  -1443952.46949  24604648.6364   24604658.1094
  21433172.584    -1551097.97249  -1088664.74849  21433171.5344   21433178.0414
 96 12  4 17 32 30.0010000  0  7 31 29  1 21 25 14 15
  25120916.900     3594525.00149   2777756.62249  25120913.4634   25120920.4294
  23483211.067    -2073329.74449  -1610332.72549  23483210.7024   23483215.8934
  22342640.551     3248954.56949   2519688.64949  22342639.7124   22342645.9194
  22816350.929     2970063.90749   2300905.02249  22816351.0694   22816356.9794
  21276152.550    -1055916.19149   -817603.62649  21276151.9664   21276157.7134
  24591659.585    -2493886.33249  -1497142.54249  24591659.7384   24591668.5604
  21426646.313    -1585393.47449  -1115388.50749  21426645.5624   21426652.2874
 96 12  4 17 33  0.0010000  0  7 31 29  1 21 25 14 15
  25138531.135     3687093.65649   2849887.94749  25138529.0284   25138537.7414
  23473109.364    -2126415.36549  -1651698.12949  23473110.0044   23473113.8424
  22358651.782     3333094.21549   2585252.00149  22358651.3584   22358657.2524
  22831404.152     3049168.06449   2362544.57649  22831404.2484   22831408.8304
  21272198.074    -1076696.62449   -833796.15749  21272197.7044   21272203.2704
  24578646.418    -2562274.90549  -1550432.30549  24578647.8164   24578653.8724
  21420207.887    -1619227.92149  -1141752.99449  21420206.8294   21420213.6234
 96 12  4 17 33 30.0010000  0  7 31 29  1 21 25 14 15
  25156134.794     3779598.44749   2921969.54449  25156137.0694   25156140.4254
  23463031.516    -2179375.87949  -1692966.04249  23463030.9824   23463034.5854
  22374673.523     3417288.66349   2650858.05049  22374672.8664   22374679.2814
  22846495.797     3128475.33849   2424342.43049  22846495.5004   22846501.5714
  21268326.561    -1097042.10049   -849649.75349  21268326.1844   21268331.2674
  24565613.996    -2630765.12649  -1603801.22949  24565613.5004   24565618.3904
  21413859.793    -1652588.05949  -1167747.90149  21413859.2944   21413865.3274
 96 12  4 17 34  0.0010000  0  7 31 29  1 21 25 14 15
  25173724.021     3872028.82949   2993993.16949  25173726.8824   25173731.7604
  23452979.138    -2232201.11149  -1734128.51549  23452979.0604   23452982.8694
  22390703.659     3501526.90249   2716498.22449  22390703.0094   22390709.2694
  22861623.243     3207969.38749   2486285.81949  22861623.2984   22861628.9844
  21264537.620    -1116953.20249   -865164.88649  21264537.0174   21264542.5664
  24552562.350    -2699353.52949  -1657246.64949  24552560.2364   24552566.2454
  21407600.900    -1685479.03149  -1193377.22649  21407599.6574   21407606.3124
 96 12  4 17 34 30.0010000  0  7 31 29  1 21 25 14 15
  25191301.024     3964393.00849   3065965.21449  25191301.5554   25191305.7204
  23442954.017    -2284882.87649  -1775179.18849  23442954.0014   23442957.9474
  22406741.293     3585805.28449   2782169.67249  22406740.4664   22406746.8264
  22876782.048     3287629.36949   2548358.50449  22876781.6144   22876788.8114
  21260834.874    -1136411.02449   -880326.82149  21260834.6704   21260839.8794
  24539491.193    -2768040.30349  -1710768.65949  24539489.0154   24539495.1634
  21401432.334    -1717894.27149  -1218635.85549  21401431.6674   21401437.4684
 96 12  4 17 35  0.0010000  0  7 31 29  1 21 25 14 15
  25208864.412     4056686.03849   3137881.84349  25208864.5364   25208868.1664
  23432956.932    -2337417.42149  -1816115.14449  23432956.8824   23432962.0704
  22422786.744     3670125.39549   2847873.62849  22422785.7784   22422792.3704
  22891972.071     3367452.98449   2610558.71749  22891970.0894   22891978.5354
  21257219.709    -1155409.39549   -895130.74149  21257219.7434   21257224.6894
  24526398.784    -2836840.07149  -1764378.78949  24526396.0894   24526405.4034
  21395354.666    -1749833.00749  -1243523.17849  21395354.0054   21395359.7044
 96 12  4 17 35 30.0010000  0  7 31 29  1 21 25 14 15
  25226416.304     4148921.93749   3209753.89049  25226410.8494   25226420.6404
  23422992.753    -2389780.16949  -1856917.26049  23422991.8104   23422997.4694
  22438843.927     3754506.90849   2913625.42749  22438843.6224   22438849.6854
  22907193.783     3447443.98749   2672889.33649  22907192.4714   22907200.6504
  21253694.673    -1173934.73849   -909566.06249  21253694.8434   21253699.3844
  24513284.950    -2905748.15749  -1818073.35049  24513282.2984   24513293.7884
  21389369.851    -1781284.18549  -1268030.58949  21389369.1884   21389374.6354
 96 12  4 17 36  0.0010000  0  6 29  1 21 25 14 15
  23413060.010    -2441975.72049  -1897589.07749  23413059.5364   23413064.5994
  22454911.545     3838942.53249   2979419.40849  22454910.7894   22454916.0404
  22922448.137     3527606.12449   2735353.30449  22922446.4514   22922454.4684
  21250257.805    -1191996.80249   -923640.38749  21250257.2134   21250262.3904
  24500151.926    -2974759.70249  -1871848.59749  24500152.3474   24500158.5514
  21383477.857    -1812247.25449  -1292157.65349  21383476.2874   21383482.6104
 96 12  4 17 36 30.0010000  0  6 29  1 21 25 14 15
  23403158.064    -2494010.19549  -1938135.38849  23403157.6014   23403162.9154
  22470990.119     3923435.58149   3045258.14549  22470989.5584   22470994.4464
  22937738.538     3607958.73249   2797965.68849  22937737.2454   22937744.8794
  21246908.670    -1209596.72949   -937354.60249  21246907.9624   21246913.4034
  24486999.627    -3043874.40849  -1925704.21449  24486999.4034   24487004.6164
  21377678.831    -1842720.00649  -1315902.66149  21377677.0424   21377683.7724
 96 12  4 17 37  0.0010000  0  6 29  1 21 25 14 15
  23393286.741    -2545883.52449  -1978556.14049  23393286.6954   23393291.2414
  22487078.976     4007982.52849   3111138.88549  22487078.8494   22487084.0074
  22953069.998     3688527.42749   2860746.44249  22953069.4714   22953075.4244
  21243645.427    -1226744.80749   -950716.73349  21243645.0814   21243650.2194
  24473832.711    -3113069.29749  -1979622.26149  24473833.6284   24473836.2934
  21371973.333    -1872701.39449  -1339264.77149  21371972.1424   21371978.7224
 96 12  4 17 37 30.0010000  0  6 29  1 21 25 14 15
  23383445.768    -2597598.44949  -2018853.45449  23383445.4384   23383450.1064
  22503178.346     4092584.51949   3177062.51349  22503178.1844   22503183.5914
  22968443.928     3769318.14549   2923700.20049  22968443.3384   22968450.5814
  21240468.088    -1243442.04549   -963727.55249  21240467.6404   21240473.0764
  24460656.410    -3182313.55549  -2033578.77549  24460655.9504   24460659.4514
  21366362.627    -1902185.54649  -1362239.43149  21366361.2864   21366368.4814
 96 12  4 17 38  0.0010000  0  6 29  1 21 25 14 15
  23373634.317    -2649157.94749  -2059029.66349  23373634.0104   23373637.9434
  22519286.671     4177233.86249   3243023.02149  22519286.4824   22519292.1304
  22983863.170     3850345.99749   2986838.75149  22983863.9424   22983869.2064
  21237378.554    -1259677.67149   -976378.68249  21237378.1294   21237383.4294
  24447472.560    -3251596.19849  -2087565.21449  24447472.6374   24447476.7284
  21360848.068    -1931163.49949  -1384819.64749  21360846.8734   21360854.3094
 96 12  4 17 38 30.0010000  0  6 29  1 21 25 14 15
  23363853.653    -2700556.84149  -2099080.73149  23363853.2814   23363857.4164
  22535403.925     4261929.62249   3309019.69449  22535403.4154   22535409.2614
  22999323.404     3931588.41949   3050144.49649  22999322.7404   22999329.2444
  21234377.272    -1275449.62849   -988668.50449  21234376.9074   21234382.0404
  24434278.574    -3320931.84849  -2141592.93349  24434277.6024   24434285.0424
  21355429.332    -1959638.93449  -1407008.28949  21355428.9944   21355435.5504
 96 12  4 17 39  0.0010000  0  6 29  1 21 25 14 15
  23354104.563    -2751789.09249  -2139001.95749  23354103.8804   23354108.2314
  22551529.640     4346670.28449   3375051.35049  22551529.2514   22551535.0334
  23014819.915     4013022.90249   3113599.88649  23014819.1624   23014826.2904
  21231462.944    -1290764.34749  -1000602.04249  21231462.5344   21231467.4644
  24421075.534    -3390312.28849  -2195655.56649  24421073.9024   24421083.6714
  21350106.723    -1987610.86849  -1428804.59749  21350106.4494   21350112.4984
 96 12  4 17 39 30.0010000  0  6 29  1 21 25 14 15
  23344386.478    -2802857.45349  -2178795.44349  23344385.1484   23344391.2284
  22567661.221     4431442.77749   3441107.81949  22567660.9934   22567666.1244
  23030349.163     4094628.51849   3177188.62949  23030348.8914   23030355.8504
  21228633.491    -1305633.32149  -1012188.24349  21228633.2134   21228637.9234
  24407856.860    -3459774.37249  -2249781.78849  24407855.8434   24407865.9624
  21344878.148    -2015087.94249  -1450215.29849  21344877.5894   21344883.8064
 96 12  4 17 40  0.0010000  0  6 29  1 21 25 14 15
  23334698.749    -2853766.83249  -2218465.05349  23334697.6554   23334703.9694
  22583799.233     4516248.82749   3507190.44249  22583798.7914   22583804.2634
  23045912.267     4176412.39949   3240916.30649  23045911.2684   23045918.0644
  21225889.667    -1320052.50749  -1023423.96149  21225889.3334   21225893.7854
  24394618.303    -3529341.40049  -2303989.81149  24394617.6984   24394627.0204
  21339744.655    -2042065.47949  -1471236.76349  21339744.5424   21339750.2154
 96 12  4 17 40 30.0010000  0  6 29  1 21 25 14 15
  23325038.765    -2904529.85949  -2258020.61249  23325037.9524   23325043.8484
  22599944.639     4601092.87849   3573302.68049  22599943.9944   22599949.2844
  23061509.061     4258373.89049   3304782.37949  23061507.6404   23061515.2314
  21223230.334    -1334027.47849  -1034313.53249  21223230.1144   21223234.6034
  24381359.843    -3599015.75949  -2358281.46849  24381358.9264   24381367.1054
  21334706.796    -2068540.18449  -1491866.40149  21334705.8404   21334711.8624
 96 12  4 17 41  0.0010000  0  6 29  1 21 25 14 15
  23315402.725    -2955166.36349  -2297477.59249  23315402.0834   23315407.5074
  22616099.587     4685987.41849   3639454.25449  22616098.6714   22616104.0444
  23077145.533     4340544.32449   3368811.24649  23077144.3054   23077152.1354
  21220657.545    -1347547.68249  -1044848.74449  21220656.8154   21220661.9584
  24368082.176    -3668790.53049  -2412651.36349  24368082.5574   24368087.3414
  21329767.151    -2094498.12749  -1512093.36249  21329766.3704   21329772.1544
 96 12  4 17 41 30.0010000  0  6 29  1 21 25 14 15
  23305788.474    -3005688.58149  -2336845.50549  23305788.6684   23305793.0994
  22632262.729     4770925.66049   3705639.86849  22632262.1914   22632268.0994
  23092824.712     4422939.13449   3433014.95249  23092823.5114   23092831.7134
  21218173.315    -1360601.78649  -1055020.76349  21218172.8554   21218178.0754
  24354782.072    -3738684.83349  -2467114.43949  24354783.1644   24354786.2364
  21324926.176    -2119937.77749  -1531916.46849  21324924.9624   21324930.9344
 96 12  4 17 42  0.0010000  0  6 29  1 21 25 14 15
  23296193.293    -3056111.42849  -2376135.99449  23296192.7014   23296198.1464
  22648432.870     4855900.44649   3771853.96449  22648432.0974   22648437.9884
  23108544.636     4505548.01449   3497385.48849  23108543.1584   23108551.7434
  21215777.501    -1373191.65249  -1064831.02949  21215776.9434   21215782.0844
  24341462.396    -3808682.19749  -2521657.78349  24341462.2464   24341466.9734
  21320183.124    -2144861.60749  -1551337.62949  21320181.9454   21320188.6484
 96 12  4 17 42 30.0010000  0  6 29  1 21 25 14 15
  23286619.614    -3106421.24349  -2415338.42549  23286619.1894   23286625.5074
  22664609.381     4940908.30749   3838093.83149  22664608.5684   22664614.7964
  23124301.167     4588351.12749   3561907.38849  23124299.7104   23124307.8764
  21213469.053    -1385322.36849  -1074283.52749  21213468.5714   21213473.7554
  24328127.092    -3878760.60649  -2576264.31149  24328127.2684   24328131.9164
  21315538.354    -2169269.57249  -1570356.82849  21315537.6204   21315544.1684
 96 12  4 17 43  0.0010000  0  6 29  1 21 25 14 15
  23277073.357    -3156585.84849  -2454427.70349  23277073.1384   23277078.7174
  22680790.304     5025940.23849   3904352.45849  22680790.1664   22680795.6894
  23140095.004     4671347.58849   3626579.91149  23140094.8464   23140101.4874
  21211250.747    -1396979.81949  -1083367.24249  21211250.4674   21211255.4314
  24314777.149    -3948917.18049  -2630931.74749  24314777.0904   24314781.8154
  21310992.955    -2193156.05649  -1588969.66949  21310992.3174   21310998.4924
 96 12  4 17 43 30.0010000  0  6 29  1 21 25 14 15
  23267559.625    -3206579.01149  -2493383.38349  23267559.4044   23267566.0674
  22696973.017     5110980.76449   3970617.79449  22696972.8134   22696978.4114
  23155921.940     4754518.03749   3691388.04549  23155921.6694   23155927.2354
  21209122.451    -1408164.16649  -1092082.29949  21209122.0304   21209126.9224
  24301414.785    -4019137.35449  -2685648.73649  24301413.5124   24301420.4694
  21306546.049    -2216524.98049  -1607179.22149  21306545.4954   21306551.4524
 96 12  4 17 44  0.0010000  0  6 29  1 21 25 14 15
  23258080.432    -3256390.88749  -2532197.81649  23258080.5664   23258086.3294
  22713158.567     5196035.40249   4036894.12249  22713157.8884   22713163.4384
  23171780.256     4837853.34849   3756324.62149  23171780.8104   23171788.0204
  21207083.867    -1418877.20949  -1100430.11549  21207083.6514   21207088.2984
  24288044.443    -4089397.44749  -2740396.80949  24288043.8174   24288049.2624
  21302198.966    -2239370.08449  -1624980.60649  21302198.4454   21302204.4124
 96 12  4 17 44 30.0010000  0  6 29  1 21 25 14 15
  23248634.719    -3306029.34249  -2570877.09949  23248634.7054   23248640.7724
  22729347.096     5281105.99149   4103182.87449  22729346.7114   22729352.1464
  23187669.336     4921349.96449   3821386.88549  23187668.7614   23187676.1404
  21205136.624    -1429110.09349  -1108403.77949  21205136.2004   21205140.8154
  24274662.491    -4159719.44649  -2795193.11749  24274662.1314   24274668.3074
  21297949.919    -2261699.60349  -1642380.21849  21297949.0674   21297955.5724
 96 12  4 17 45  0.0010000  0  6 29  1 21 25 14 15
  23239221.729    -3355495.74949  -2609422.32049  23239221.6424   23239226.8514
  22745541.377     5366207.66349   4169495.85649  22745540.3304   22745546.8534
  23203594.583     5005037.09049   3886597.60649  23203593.2874   23203602.1014
  21203286.634    -1438831.31049  -1115978.73549  21203286.0314   21203290.8734
  24261268.867    -4230101.49049  -2850036.20449  24261266.9544   24261274.9424
  21293802.222    -2283495.89149  -1659364.34449  21293800.9884   21293807.4304
 96 12  4 17 45 30.0010000  0  6 29  1 21 25 14 15
  23229837.471    -3404810.88249  -2647849.66749  23229837.1784   23229842.5544
  22761742.973     5451348.18349   4235839.09949  22761742.0144   22761747.6984
  23219556.918     5088919.43049   3951960.42649  23219557.1454   23219563.3454
  21201533.435    -1448043.72949  -1123157.24149  21201532.7844   21201537.8664
  24247864.043    -4300543.08249  -2904925.71549  24247862.4844   24247870.9854
  21289755.851    -2304758.67249  -1675932.73449  21289754.6604   21289761.2294
 96 12  4 17 46  0.0010000  0  6 29  1 21 25 14 15
  23220480.503    -3453981.07049  -2686164.08949  23220479.9664   23220485.8644
  22777954.068     5536538.31149   4302220.99749  22777953.5914   22777959.2044
  23235559.224     5173010.95449   4017486.26649  23235558.1484   23235566.2134
  21199877.266    -1456746.05549  -1129938.26549  21199876.6114   21199881.9004
  24234445.017    -4371059.48949  -2959873.53649  24234445.4534   24234450.3084
  21285811.936    -2325483.19149  -1692081.70449  21285810.9804   21285817.5024
 96 12  4 17 46 30.0010000  0  6 29  1 21 25 14 15
  23211151.131    -3503006.06749  -2724365.37449  23211151.1744   23211156.7594
  22794174.021     5621774.73649   4368638.97449  22794172.9024   22794179.3964
  23251605.871     5257336.85449   4083194.71549  23251605.3494   23251613.4104
  21198319.239    -1464933.85149  -1136318.35449  21198319.1294   21198324.4054
  24221011.381    -4441655.14549  -3014883.09649  24221011.9624   24221016.5574
  21281971.138    -2345666.69349  -1707809.11049  21281969.8894   21281976.4484
 96 12  4 17 47  0.0010000  0  6 29  1 21 25 14 15
  23201849.268    -3551888.42249  -2762455.48749  23201848.2254   23201855.0604
  22810398.810     5707036.49249   4435076.69749  22810398.4204   22810403.9874
  23267696.188     5341891.55949   4149081.47049  23267695.8694   23267703.1564
  21196854.171    -1472633.06449  -1142317.73649  21196853.8634   21196859.2784
  24207563.477    -4512325.34449  -3069950.73249  24207563.9624   24207567.5424
  21278232.485    -2365313.64649  -1723118.42649  21278231.7174   21278237.4344
 96 12  4 17 47 30.0010000  0  6 29  1 21 25 14 15
  23192575.985    -3600620.06049  -2800428.18049  23192576.6034   23192582.0394
  22826629.792     5792330.98349   4501539.91249  22826629.5134   22826635.5884
  23283829.604     5426672.74149   4215144.71549  23283829.1704   23283836.0864
  21195479.921    -1479855.11649  -1147945.30949  21195480.0354   21195484.6244
  24194102.914    -4583060.73749  -3125069.18749  24194101.6924   24194108.5634
  21274596.556    -2384421.10049  -1738007.36549  21274595.8644   21274601.6534
 96 12  4 17 48  0.0010000  0  6 29  1 21 25 14 15
  23183334.199    -3649187.81049  -2838273.15549  23183334.7814   23183339.5934
  22842869.138     5877669.14549   4568037.16549  22842868.5214   22842874.4064
  23300008.813     5511695.22949   4281395.96349  23300007.7404   23300016.4644
  21194198.165    -1486591.14549  -1153194.16049  21194198.1224   21194202.6074
  24180633.224    -4653842.95249  -3180224.14949  24180631.8974   24180639.4534
  21271065.781    -2402975.77149  -1752465.55349  21271065.3884   21271071.4644
 96 12  4 17 48 30.0010000  0  6 29  1 21 25 14 15
  23174120.569    -3697606.84049  -2876002.23849  23174120.6904   23174125.8074
  22859113.486     5963034.28949   4634555.45449  22859111.8464   22859118.2924
  23316229.311     5596935.98649   4347817.28249  23316227.7714   23316236.4004
  21193007.834    -1492846.37349  -1158068.35249  21193007.6164   21193012.2744
  24167154.117    -4724675.74349  -3235418.51949  24167153.0184   24167160.2144
  21267638.744    -2420985.19149  -1766498.86249  21267637.6814   21267644.5374
 96 12  4 17 49  0.0010000  0  6 29  1 21 25 14 15
  23164938.435    -3745860.67149  -2913602.61249  23164939.7564   23164942.9414
  22875366.565     6048445.42849   4701109.57849  22875365.6944   22875372.1834
  23332488.876     5682383.46549   4414399.68649  23332487.4654   23332495.1214
  21191909.604    -1498617.35949  -1162565.21149  21191909.2664   21191914.0184
  24153666.026    -4795555.99349  -3290649.82749  24153664.9964   24153673.4484
  21264317.058    -2438440.20749  -1780100.17349  21264316.6404   21264322.5074
 96 12  4 17 49 30.0010000  0  6 29  1 21 25 14 15
  23155787.480    -3793950.60049  -2951075.25749  23155787.3024   23155792.2874
  22891627.609     6133897.38049   4767695.49349  22891626.8864   22891633.4894
  23348787.055     5768032.10849   4481138.83949  23348786.2824   23348792.2684
  21190901.980    -1503912.34449  -1166691.16449  21190901.8444   21190906.7954
  24140165.256    -4866502.32149  -3345932.64349  24140164.8024   24140172.4554
  21261099.973    -2455346.30449  -1793273.76249  21261099.2974   21261105.6744
 96 12  4 17 50  0.0010000  0  6 29  1 21 25 14 15
  23146668.607    -3841869.86949  -2988414.92849  23146668.6054   23146672.9754
  22907894.733     6219381.30849   4834306.31749  22907894.6454   22907900.4114
  23365121.401     5853870.23349   4548025.65949  23365121.2234   23365126.4424
  21189986.220    -1508724.75249  -1170441.08049  21189985.9484   21189991.1004
  24126653.252    -4937508.20849  -3401261.88049  24126653.1264   24126659.7784
  21257988.076    -2471699.67949  -1806016.65849  21257987.1524   21257993.4844
 96 12  4 17 50 30.0010000  0  6 29  1 21 25 14 15
  23137583.749    -3889611.54449  -3025616.20349  23137583.4244   23137588.6234
  22924168.550     6304900.87849   4900944.91249  22924167.8294   22924174.8314
  23381491.800     5939897.20449   4615059.58349  23381490.6414   23381497.9094
  21189164.134    -1513044.43049  -1173807.05549  21189163.8874   21189169.0374
  24113129.690    -5008574.55849  -3456638.22949  24113128.4094   24113135.7444
  21254982.651    -2487493.35749  -1818323.42749  21254981.7324   21254988.3334
 96 12  4 17 51  0.0010000  0  6 29  1 21 25 14 15
  23128534.941    -3937163.49049  -3062669.64649  23128534.7894   23128539.2314
  22940448.962     6390455.42549   4967610.76549  22940448.8384   22940454.5094
  23397899.574     6026120.90949   4682246.84449  23397898.9424   23397903.9284
  21188435.296    -1516874.75149  -1176791.71249  21188434.9424   21188440.1414
  24099596.586    -5079689.76149  -3512052.63549  24099595.6574   24099602.1224
  21252084.190    -2502725.37749  -1830192.54349  21252083.3394   21252089.6634
 96 12  4 17 51 30.0010000  0  6 29  1 21 25 14 15
  23119523.403    -3984520.00049  -3099570.79149  23119523.2374   23119527.4264
  22956736.991     6476048.92949   5034306.96449  22956736.8324   22956742.5984
  23414347.782     6112556.72249   4749599.37049  23414346.9054   23414352.9674
  21187804.300    -1520190.44249  -1179375.35949  21187804.1784   21187809.0264
  24086059.892    -5150824.43149  -3567482.22649  24086059.6084   24086064.3044
  21249295.234    -2517381.67749  -1841613.03249  21249294.4904   21249300.6124
 96 12  4 17 52  0.0010000  0  6 29  1 21 25 14 15
  23110542.848    -4031712.40549  -3136344.04349  23110541.1254   23110547.1924
  22973028.967     6561662.59949   5101018.89049  22973029.0534   22973034.5824
  23430834.223     6199193.25049   4817108.32749  23430835.0704   23430839.7684
  21187271.005    -1522993.36049  -1181559.44449  21187270.9084   21187275.7874
  24072517.039    -5221993.27249  -3622938.43649  24072517.6834   24072522.6604
  21246612.668    -2531478.52749  -1852597.59049  21246611.7374   21246617.6104
 96 12  4 17 52 30.0010000  0  6 29  1 21 25 14 15
  23101595.895    -4078727.09349  -3172978.84849  23101594.5094   23101601.0184
  22989326.269     6647304.61249   5167752.90449  22989325.9814   22989330.7454
  23447364.608     6286061.52949   4884797.86849  23447364.6674   23447371.4204
  21186836.210    -1525278.94449  -1183340.40549  21186836.0594   21186840.7464
  24058967.668    -5293196.07749  -3678421.10949  24058967.0944   24058974.8434
  21244038.874    -2545003.52349  -1863136.55649  21244038.0784   21244044.1204
 96 12  4 17 53  0.0010000  0  6 29  1 21 25 14 15
  23092681.779    -4125569.67149  -3209479.54949  23092681.1994   23092686.6444
  23005629.495     6732977.99849   5234511.37349  23005627.9154   23005634.5444
  23463939.474     6373162.19849   4952668.47849  23463938.8434   23463946.1574
  21186498.131    -1527055.71849  -1184724.90349  21186497.8934   21186502.6904
  24045412.918    -5364426.44649  -3733925.27149  24045412.0084   24045419.6014
  21241573.853    -2557957.36249  -1873230.46549  21241572.7954   21241579.2364
 96 12  4 17 53 30.0010000  0  6 29  1 21 25 14 15
  23083797.313    -4172257.80349  -3245859.88749  23083797.3904   23083802.1814
  23021938.133     6818681.14949   5301293.02449  23021937.6144   23021943.2734
  23480559.249     6460499.82249   5020723.71849  23480559.8474   23480567.6964
  21186256.516    -1528325.55249  -1185714.37349  21186256.2004   21186260.8984
  24031850.704    -5435695.80449  -3789459.83349  24031850.0864   24031858.4364
  21239217.955    -2570337.54449  -1882877.36349  21239217.1764   21239223.5844
 96 12  4 17 54  0.0010000  0  6 29  1 21 25 14 15
  23074944.622    -4218778.85749  -3282110.03549  23074945.1784   23074949.2914
  23038253.980     6904422.04149   5368104.07749  23038252.9794   23038259.9334
  23497226.481     6548086.51149   5088973.04649  23497226.9884   23497235.2854
  21186112.083    -1529084.68449  -1186305.88849  21186111.4604   21186116.4524
  24018282.258    -5506997.97349  -3845019.94149  24018281.5704   24018290.1454
  21236973.993    -2582129.71549  -1892066.06649  21236972.7504   21236979.2474
 96 12  4 17 54 30.0010000  0  6 29  1 21 25 14 15
  23066121.872    -4265143.00649  -3318237.93049  23066122.1064   23066126.6274
  23054573.213     6990181.07149   5434929.26349  23054572.8114   23054578.9954
  23513935.344     6635890.46149   5157391.67749  23513936.1914   23513943.4544
  21186058.563    -1529365.29249  -1186524.53749  21186057.9774   21186063.1974
  24004707.316    -5578334.54649  -3900606.84249  24004707.9274   24004714.8214
  21234838.406    -2593351.68449  -1900810.47149  21234837.8084   21234844.4414
 96 12  4 17 55  0.0010000  0  6 29  1 21 25 14 15
  23057329.930    -4311344.86249  -3354239.35849  23057330.1234   23057334.8814
  23070900.353     7075979.68149   5501785.29849  23070899.7484   23070906.4254
  23530685.588     6723911.69149   5225979.62349  23530686.2554   23530692.9684
  21186100.871    -1529142.58349  -1186350.99349  21186100.6084   21186105.7394
  23991130.673    -5649681.22949  -3956201.63749  23991131.6154   23991137.5734
  21232814.130    -2603990.08349  -1909100.14049  21232813.4894   21232819.6204
 96 12  4 17 55 30.0010000  0  6 29  1 21 25 14 15
  23048569.233    -4357383.40849  -3390113.51549  23048569.1684   23048574.5884
  23087230.856     7161796.24649   5568655.31549  23087230.6734   23087236.2184
  23547474.205     6812134.89149   5294724.94249  23547474.2434   23547483.3624
  21186239.115    -1528416.02049  -1185784.83649  21186238.7224   21186244.0944
  23977549.165    -5721053.44049  -4011816.32049  23977549.2484   23977555.7714
  21230899.552    -2614051.32249  -1916940.07249  21230898.9544   21230905.0354
 96 12  4 17 56  0.0010000  0  6 29  1 21 25 14 15
  23039844.031    -4403235.70749  -3425842.55849  23039844.0984   23039848.9404
  23103567.927     7247648.00149   5635552.76949  23103567.8334   23103573.6624
  23564302.286     6900565.09649   5363631.56249  23564301.7734   23564310.0974
  21186476.882    -1527166.06949  -1184810.83649  21186476.5184   21186481.8034
  23963966.323    -5792431.81449  -4067435.81149  23963965.6824   23963972.2814
  21229097.145    -2623523.63249  -1924321.10349  21229096.5424   21229102.2014
 96 12  4 17 56 30.0010000  0  6 29  1 21 25 14 15
  23031154.532    -4448900.00749  -3461425.09349  23031154.7334   23031159.9394
  23119912.625     7333539.72449   5702481.36049  23119912.6084   23119918.7184
  23581169.085     6989200.27749   5432697.91049  23581168.4274   23581176.1004
  21186815.221    -1525388.08449  -1183425.39149  21186815.1934   21186820.4634
  23950381.940    -5863818.21749  -4123061.55349  23950381.4564   23950387.0504
  21227406.651    -2632407.59549  -1931243.67649  21227405.6534   21227411.7174
 96 12  4 17 57  0.0010000  0  6 29  1 21 25 14 15
  23022499.136    -4494385.55849  -3496868.34449  23022498.6764   23022503.2204
  23136264.268     7419467.99249   5769438.41849  23136263.5584   23136269.3984
  23598075.177     7078041.66249   5501924.92349  23598074.8034   23598078.4584
  21187254.936    -1523077.82949  -1181625.18449  21187254.9294   21187259.8094
  23936792.292    -5935232.26849  -4178708.85649  23936792.4034   23936797.9814
  21225827.255    -2640707.62949  -1937711.24249  21225826.5564   21225832.4224
 96 12  4 17 57 30.0010000  0  6 29  1 21 25 14 15
  23013877.281    -4539692.33549  -3532172.29249  23013876.4654   23013881.7284
  23152622.105     7505428.94849   5836420.96649  23152620.8044   23152626.8884
  23615021.589     7167095.21949   5571317.26849  23615020.8714   23615025.4344
  21187795.065    -1520240.14049  -1179413.98749  21187795.2154   21187800.1354
  23923197.392    -6006674.38249  -4234378.00849  23923196.4564   23923202.5484
  21224359.057    -2648423.17149  -1943723.36249  21224358.1134   21224364.1404
 96 12  4 17 58  0.0010000  0  6 29  1 21 25 14 15
  23005290.865    -4584812.75249  -3567331.04249  23005289.8994   23005296.3604
  23168988.797     7591437.23549   5903440.39049  23168987.7944   23168994.0384
  23632010.966     7256375.49749   5640886.28749  23632009.4504   23632015.4994
  21188434.401    -1516880.58749  -1176796.15149  21188433.8924   21188438.9134
  23909600.052    -6078128.66049  -4290056.65049  23909599.3694   23909604.8984
  21223003.650    -2655545.24149  -1949273.04449  21223002.8114   21223009.1024
 96 12  4 17 58 30.0010000  0  6 29  1 21 25 14 15
  22996738.314    -4629754.01049  -3602350.17749  22996738.0204   22996743.4234
  23185363.901     7677489.33749   5970493.95449  23185362.9074   23185370.2444
  23649044.599     7345887.87449   5710636.13249  23649042.8784   23649047.2664
  21189170.482    -1513012.18449  -1173781.80649  21189170.2134   21189175.0504
  23895998.584    -6149604.09549  -4345751.80849  23895997.7554   23896003.6214
  21221761.098    -2662074.50449  -1954360.78849  21221760.0814   21221766.8594
 96 12  4 17 59  0.0010000  0  6 29  1 21 25 14 15
  22988219.285    -4674521.83849  -3637234.19649  22988218.8774   22988223.9774
  23201746.969     7763583.00349   6037579.91549  23201745.9954   23201752.4374
  23666123.505     7435638.18449   5780571.39549  23666122.8944   23666128.9024
  21190001.677    -1508643.81849  -1170377.88149  21190000.9984   21190006.1704
  23882390.756    -6221112.85349  -4401472.89749  23882389.0364   23882396.4054
  21220631.550    -2668010.29149  -1958986.08749  21220631.0334   21220637.1684
 96 12  4 17 59 30.0010000  0  6 29  1 21 25 14 15
  22979736.661    -4719098.15749  -3671968.95549  22979736.3404   22979742.3204
  23218137.847     7849717.13949   6104697.40549  23218137.7784   23218143.4374
  23683247.780     7525625.78749   5850691.55349  23683247.5194   23683252.3984
  21190927.861    -1503776.68349  -1166585.30849  21190927.8064   21190932.4194
  23868779.464    -6292639.41949  -4457207.85549  23868779.0884   23868787.5014
  21219617.248    -2673340.61749  -1963139.59349  21219616.6854   21219622.9564
 96 12  4 18  0  0.0010000  0  6 29  1 21 25 14 15
  22971289.120    -4763490.42749  -3706560.29949  22971289.4774   22971294.4164
  23234533.544     7935876.93149   6171834.86149  23234532.8884   23234539.0284
  23700412.770     7615827.95449   5920978.91149  23700411.8064   23700419.3344
  21191948.413    -1498414.28849  -1162406.81249  21191948.3894   21191952.8854
  23855162.433    -6364197.36149  -4512967.28249  23855162.8744   23855169.9754
  21218717.026    -2678072.15449  -1966826.50649  21218716.5284   21218722.0584
 96 12  4 18  0 30.0010000  0  6 29  1 21 25 14 15
  22962878.194    -4807691.05149  -3741002.32149  22962877.7514   22962883.3524
  23250934.195     8022062.26249   6238992.24949  23250933.2444   23250940.0624
  23717617.893     7706240.67049   5991430.32949  23717617.6454   23717624.2324
  21193069.098    -1492525.41049  -1157818.07249  21193068.9544   21193073.6624
  23841541.211    -6435778.98749  -4568745.16649  23841542.0444   23841548.7734
  21217931.781    -2682198.69749  -1970041.99549  21217930.7124   21217937.2764
 96 12  4 18  1  0.0010000  0  6 29  1 21 25 14 15
  22954505.119    -4851692.03249  -3775288.76049  22954505.4774   22954510.7794
  23267336.774     8108258.80349   6306158.33949  23267335.7294   23267342.9524
  23734859.758     7796846.83649   6062032.49749  23734860.1184   23734866.4624
  21194289.629    -1486111.89949  -1152820.52249  21194289.1394   21194294.0284
  23827917.658    -6507372.49749  -4624532.31649  23827918.0064   23827924.2904
  21217260.751    -2685724.43249  -1972789.31949  21217259.8974   21217266.0884
 96 12  4 18  1 30.0010000  0  6 29  1 21 25 14 15
  22946171.172    -4895486.79349  -3809414.53349  22946170.6474   22946176.4194
  23283740.239     8194460.19049   6373328.21649  23283740.1624   23283746.6234
  23752137.564     7887642.33849   6132782.20249  23752137.2784   23752143.6234
  21195610.825    -1479168.23849  -1147409.87049  21195610.4744   21195615.5534
  23814294.919    -6578961.02949  -4680315.58149  23814294.7774   23814301.1974
  21216704.115    -2688649.34449  -1975068.46949  21216703.5724   21216709.1314
 96 12  4 18  2  0.0010000  0  6 29  1 21 25 14 15
  22937875.852    -4939079.20149  -3843382.62149  22937875.5094   22937881.3694
  23300148.340     8280685.01349   6440516.36349  23300147.9834   23300154.7544
  23769456.276     7978652.83649   6203699.43649  23769456.1384   23769461.4364
  21197035.473    -1471681.56649  -1141576.09749  21197035.4484   21197040.3344
  23800673.422    -6650543.08049  -4736093.79949  23800674.0364   23800679.0134
  21216262.630    -2690969.77649  -1976876.61249  21216261.5284   21216267.9244
 96 12  4 18  2 30.0010000  0  6 29  1 21 25 14 15
  22929616.795    -4982479.87349  -3877201.29449  22929615.9874   22929621.8414
  23316559.475     8366925.48649   6507716.70549  23316559.6424   23316565.8324
  23786818.299     8069890.83149   6274793.91449  23786818.5284   23786824.0154
  21198558.501    -1463677.96449  -1135339.50849  21198558.0044   21198563.5294
  23787053.831    -6722116.25849  -4791865.08749  23787054.2554   23787058.9384
  21215934.146    -2692695.34849  -1978221.21849  21215933.4054   21215939.8104
 96 12  4 18  3  0.0010000  0  6 29  1 21 25 14 15
  22921393.462    -5025693.57949  -3910874.30949  22921393.3704   22921398.1664
  23332975.652     8453191.63949   6574937.05549  23332975.7974   23332981.4904
  23804227.198     8161374.69249   6346079.99249  23804226.9674   23804233.5454
  21200178.874    -1455162.75249  -1128704.27149  21200178.4424   21200183.5044
  23773436.263    -6793677.65149  -4847627.19949  23773436.0934   23773441.0124
  21215720.590    -2693818.20849  -1979096.17749  21215719.7134   21215726.0214
 96 12  4 18  3 30.0010000  0  6 29  1 21 25 14 15
  22913202.025    -5068740.40649  -3944417.29249  22913201.6314   22913206.6874
  23349397.817     8539489.10349   6642181.82649  23349397.7684   23349402.9574
  23821684.750     8253114.45049   6417565.44649  23821684.6614   23821690.8854
  21201897.506    -1446130.98149  -1121666.52149  21201896.8524   21201902.2744
  23759818.333    -6865239.91249  -4903389.96949  23759816.8814   23759823.3874
  21215621.688    -2694337.77749  -1979501.04049  21215620.7514   21215627.1624
 96 12  4 18  4  0.0010000  0  6 29  1 21 25 14 15
  22905042.494    -5111618.87049  -3977829.06849  22905042.3294   22905047.3534
  23365827.103     8625824.58849   6709456.21449  23365827.0554   23365832.8294
  23839193.517     8345124.17949   6489261.27449  23839191.7014   23839198.9974
  21203715.473    -1436576.99749  -1114221.85349  21203714.9444   21203720.0054
  23746202.930    -6936789.05349  -4959142.52749  23746202.5864   23746209.6504
  21215640.010    -2694241.49449  -1979426.02649  21215639.2194   21215645.6614
 96 12  4 18  4 30.0010000  0  6 29  1 21 25 14 15
  22896912.848    -5154340.21149  -4011118.40449  22896911.8384   22896917.7634
  23382258.888     8712173.60849   6776741.14949  23382258.0504   23382264.1094
  23856747.995     8437374.36649   6561144.48249  23856747.0384   23856755.2734
  21205629.703    -1426517.59249  -1106383.34349  21205629.5984   21205634.5454
  23732589.923    -7008326.21049  -5014885.74549  23732589.6704   23732596.6734
  21215773.604    -2693539.34549  -1978878.88849  21215772.8664   21215779.1334
 96 12  4 18  5  0.0010000  0  6 29  1 21 25 14 15
  22888814.092    -5196899.20649  -4044281.26849  22888814.5934   22888819.0764
  23398694.910     8798546.53149   6844044.68749  23398693.3624   23398700.0834
  23874345.863     8529854.63249   6633206.95649  23874343.3564   23874354.2294
  21207642.614    -1415940.11649  -1098141.15049  21207642.1954   21207647.2054
  23718979.322    -7079848.79249  -5070617.59649  23718978.4934   23718985.6684
  21216023.981    -2692224.37149  -1977854.23849  21216023.7024   21216029.3984
 96 12  4 18  5 30.0010000  0  6 29  1 21 25 14 15
  22880749.832    -5239277.37249  -4077303.19749  22880749.9364   22880755.7354
  23415137.210     8884953.65249   6911374.87749  23415135.6294   23415142.9654
  23891987.929     8622566.89149   6705450.22149  23891986.0224   23891996.3714
  21209754.109    -1404844.27549  -1089495.02849  21209753.9034   21209758.8734
  23705375.389    -7151337.18649  -5126322.84649  23705375.4104   23705382.2024
  21216392.454    -2690287.97949  -1976345.36649  21216391.6384   21216397.3254
 96 12  4 18  6  0.0010000  0  6 29  1 21 25 14 15
  22872723.244    -5281458.20349  -4110171.35449  22872723.8934   22872728.7994
  23431587.330     8971400.66249   6978736.12949  23431586.7404   23431593.2824
  23909672.377     8715501.13949   6777866.46349  23909671.4694   23909680.1684
  21211964.621    -1393228.42449  -1080443.71049  21211964.6324   21211969.4484
  23691780.747    -7222777.95949  -5181990.96249  23691780.6624   23691786.8584
  21216879.164    -2687730.02949  -1974352.16349  21216878.2014   21216884.6524
 96 12  4 18  6 30.0010000  0  6 29  1 21 25 14 15
  22864737.313    -5323425.60549  -4142873.22849  22864736.6424   22864742.4414
  23448049.373     9057908.54549   7046144.83849  23448049.2734   23448054.8104
  23927398.697     8808653.78949   6850452.88249  23927399.1864   23927407.4994
  21214277.878    -1381071.86649  -1070971.06249  21214277.4414   21214282.5974
  23678196.379    -7294164.80649  -5237617.07149  23678196.6464   23678200.2304
  21217485.246    -2684544.73149  -1971870.13049  21217484.5314   21217491.0214
 96 12  4 18  7  0.0010000  0  6 29  1 21 25 14 15
  22856789.117    -5365192.72849  -4175419.03949  22856787.8854   22856793.7904
  23464519.303     9144457.72749   7113585.73249  23464520.0214   23464524.9984
  23945165.418     8902016.62949   6923203.09949  23945165.3074   23945172.8874
  21216693.389    -1368377.94449  -1061079.69449  21216693.1694   21216697.7694
  23664617.435    -7365522.88549  -5293220.74549  23664617.6664   23664621.6844
  21218208.029    -2680746.58449  -1968910.54649  21218207.0014   21218213.7434
 96 12  4 18  7 30.0010000  0  6 29  1 21 25 14 15
  22848885.009    -5406727.11849  -4207783.49049  22848884.0374   22848889.6284
  23481000.333     9231064.52749   7181071.50849  23480999.8824   23481006.3374
  23962977.614     8995618.09449   6996139.23649  23962978.2554   23962984.9964
  21219217.744    -1355112.48849  -1050742.97549  21219217.4214   21219222.2994
  23651046.949    -7436836.76449  -5348789.97549  23651047.1414   23651051.3034
  21219052.233    -2676310.03049  -1965453.50549  21219051.5164   21219057.9494
 96 12  4 18  8  0.0010000  0  6 29  1 21 25 14 15
  22841021.416    -5448048.45249  -4239981.90049  22841021.5604   22841026.5684
  23497486.668     9317700.54849   7248580.05549  23497485.5294   23497492.3024
  23980831.577     9089439.90049   7069247.07249  23980832.5754   23980837.0684
  21221850.346    -1341277.96549  -1039962.81849  21221850.1094   21221854.9444
  23637480.146    -7508130.56549  -5404343.55149  23637479.4044   23637485.2244
  21220015.401    -2671248.03249  -1961509.10249  21220014.3904   21220020.9714
 96 12  4 18  8 30.0010000  0  6 29  1 21 25 14 15
  22833195.172    -5489176.13249  -4272029.41149  22833194.5784   22833200.3974
  23513975.064     9404348.02549   7316097.53749  23513973.6054   23513980.9654
  23998727.531     9183482.04549   7142526.60549  23998727.0074   23998733.9314
  21224588.543    -1326888.96849  -1028750.60849  21224588.3834   21224593.0424
  23623914.985    -7579415.82149  -5459890.48249  23623914.9944   23623920.6514
  21221097.648    -2665560.71649  -1957077.44249  21221096.9404   21221103.4044
 96 12  4 18  9  0.0010000  0  6 29  1 21 25 14 15
  22825403.489    -5530121.54249  -4303934.89349  22825403.4524   22825409.3104
  23530462.967     9490993.92349   7383613.77249  23530460.9614   23530470.1264
  24016665.408     9277744.31049   7215977.64849  24016666.0184   24016671.8524
  21227426.277    -1311976.40849  -1017130.42749  21227425.8594   21227430.8674
  23610348.790    -7650707.01549  -5515442.05449  23610349.1154   23610354.3704
  21222298.405    -2659250.72349  -1952160.57749  21222297.4894   21222304.3804
 96 12  4 18  9 30.0010000  0  6 29  1 21 25 14 15
  22817646.143    -5570888.23649  -4335701.13449  22817646.0824   22817651.1104
  23546952.643     9577648.24649   7451136.56549  23546952.1844   23546959.7884
  24034645.368     9372228.58649   7289601.72449  24034645.2614   24034650.6064
  21230360.287    -1296557.72549  -1005115.86749  21230359.7184   21230365.1454
  23596783.456    -7721993.49549  -5570989.94249  23596783.6874   23596790.0494
  21223617.826    -2652317.24649  -1946757.88049  21223617.3254   21223623.4244
 96 12  4 18 10  0.0010000  0  6 29  1 21 25 14 15
  22809921.375    -5611482.79849  -4367333.24849  22809921.4204   22809926.6464
  23563447.490     9664329.04649   7518680.00649  23563446.3164   23563454.4614
  24052669.897     9466947.10249   7363408.31749  24052669.8634   24052675.7614
  21233389.387    -1280638.86649   -992711.55949  21233389.2114   21233394.4084
  23583224.224    -7793248.54849  -5626513.37049  23583224.1044   23583230.0344
  21225058.121    -2644749.40849  -1940860.87349  21225057.4094   21225063.4634
 96 12  4 18 10 30.0010000  0  6 29  1 21 25 14 15
  22802227.121    -5651917.81549  -4398841.03449  22802227.0974   22802232.2384
  23579946.947     9751035.46849   7586243.41449  23579945.4834   23579953.4344
  24070737.004     9561889.39349   7437389.29649  24070738.1154   24070742.4694
  21236510.674    -1264236.72049   -979930.65949  21236510.6504   21236515.7894
  23569668.093    -7864487.23649  -5682024.00849  23569667.8194   23569674.4214
  21226616.215    -2636561.56149  -1934480.74049  21226615.6104   21226621.8324
 96 12  4 18 11  0.0010000  0  6 29  1 21 25 14 15
  22794568.504    -5692163.48749  -4430201.28749  22794566.9804   22794574.0084
  23596454.413     9837782.65649   7653838.58049  23596453.5554   23596461.3564
  24088850.585     9657075.80949   7511560.50849  24088849.4174   24088856.3904
  21239729.281    -1247323.53049   -966751.54449  21239729.4314   21239734.1304
  23556116.817    -7935699.78749  -5737514.28949  23556115.3114   23556121.3204
  21228293.985    -2627744.66949  -1927610.45849  21228293.4284   21228299.3714
 96 12  4 18 11 30.0010000  0  6 29  1 21 25 14 15
  22786946.105    -5732217.90149  -4461412.51249  22786946.0164   22786951.1944
  23612968.230     9924563.31149   7721459.81549  23612966.7834   23612974.0004
  24107012.305     9752515.76549   7585929.26749  24107012.1934   24107018.1304
  21243051.157    -1229867.10649   -953149.13049  21243051.0724   21243055.8554
  23542572.238    -8006876.69049  -5792976.78749  23542571.0474   23542576.4024
  21230091.573    -2618298.97049  -1920250.19249  21230091.0444   21230096.5884
 96 12  4 18 12  0.0010000  0  6 29  1 21 25 14 15
  22779359.787    -5772084.43349  -4492477.35249  22779360.5174   22779365.2254
  23629485.787    10011363.04249   7789095.94249  23629485.3784   23629491.6274
  24125220.013     9848197.13349   7660486.12949  24125219.1584   24125227.4324
  21246478.913    -1211854.75349   -939113.53549  21246478.6294   21246483.4454
  23529033.925    -8078019.34649  -5848412.60049  23529033.1694   23529038.5584
  21232007.865    -2608229.39649  -1912403.78849  21232007.0174   21232013.0774
 96 12  4 18 12 30.0010000  0  6 29  1 21 25 14 15
  22771814.285    -5811736.64049  -4523375.16349  22771814.7414   22771819.8984
  23646006.572    10098179.36249   7856744.99749  23646006.4304   23646012.5754
  24143474.233     9944123.19049   7735233.66849  24143474.3014   24143480.0454
  21250014.697    -1193273.72149   -924634.81249  21250014.4714   21250019.5844
  23515503.382    -8149121.32549  -5903816.73049  23515502.8464   23515508.6624
  21234043.309    -2597532.49249  -1904068.55349  21234042.4284   21234048.7644
 96 12  4 18 13  0.0010000  0  6 29  1 21 25 14 15
  22764307.241    -5851187.35549  -4554115.97649  22764307.6684   22764312.1644
  23662526.226    10184989.35749   7924389.12849  23662525.5344   23662532.3574
  24161774.026    10040289.15949   7810168.14449  24161773.0034   24161780.6414
  21253655.879    -1174139.50649   -909725.04249  21253655.8404   21253660.7394
  23501981.328    -8220180.12449  -5959187.23049  23501981.3674   23501987.1484
  21236195.472    -2586222.29249  -1895255.42849  21236194.9084   21236201.1674
 96 12  4 18 13 30.0010000  0  6 29  1 21 25 14 15
  22756838.729    -5890435.72449  -4584699.12549  22756839.4184   22756843.3054
  23679047.400    10271807.90949   7992039.91049  23679046.7674   23679054.0894
  24180118.634    10136691.09349   7885286.47849  24180117.7534   24180124.7784
  21257400.405    -1154462.21049   -894392.09049  21257400.2484   21257404.8954
  23488473.032    -8291167.39749  -6014501.98049  23488472.9894   23488479.6254
  21238467.053    -2574286.00049  -1885954.43349  21238466.4064   21238472.8844
 96 12  4 18 14  0.0010000  0  6 29  1 21 25 14 15
  22749409.127    -5929479.56049  -4615122.89249  22749408.9424   22749413.6604
  23695571.790    10358643.84949   8059704.24049  23695570.6084   23695577.7384
  24198504.978    10233312.22449   7960575.62249  24198502.8854   24198511.5814
  21261241.844    -1134275.29949   -878662.02549  21261241.3994   21261246.2734
  23474977.982    -8362084.88749  -6069762.34949  23474977.9514   23474983.9774
  21240858.081    -2561721.30249  -1876163.77449  21240857.4904   21240863.5714
 96 12  4 18 14 30.0010000  0  6 29  1 21 25 14 15
  22742018.109    -5968319.32149  -4645387.61949  22742017.8294   22742021.9684
  23712101.594    10445509.17549   8127391.45549  23712099.8454   23712107.6604
  24216934.239    10330158.87749   8036040.49549  24216932.8964   24216940.4234
  21265178.045    -1113590.10949   -862543.69849  21265177.4644   21265182.4424
  23461493.682    -8432946.11049  -6124978.89149  23461492.9564   23461499.3864
  21243369.274    -2548525.36549  -1865881.23549  21243368.6424   21243374.7174
 96 12  4 18 15  0.0010000  0  6 29  1 21 25 14 15
  22734660.724    -6006982.05649  -4675514.41949  22734658.9134   22734664.6194
  23728635.909    10532398.92549   8195097.69649  23728634.1484   23728641.9134
  24235402.723    10427211.94049   8111666.20749  24235402.6304   24235410.4074
  21269207.088    -1092417.09349   -846045.25049  21269206.8544   21269211.8184
  23448014.251    -8503780.75149  -6180174.70149  23448013.3584   23448020.1974
  21245999.009    -2534706.00549  -1855112.91649  21245998.3314   21246004.3904
 96 12  4 18 15 30.0010000  0  6 29  1 21 25 14 15
  22727338.380    -6045458.71949  -4705496.21349  22727338.4314   22727343.2204
  23745177.121    10619324.41649   8262831.77449  23745176.3664   23745183.7824
  24253909.070    10524461.67249   8187445.15849  24253911.1574   24253915.7654
  21273331.075    -1070745.11649   -829157.99449  21273330.8004   21273335.8644
  23434539.652    -8574589.40849  -6235350.25649  23434538.7064   23434544.7934
  21248749.164    -2520253.49249  -1843851.23049  21248748.2684   21248754.9204
 96 12  4 18 16  0.0010000  0  6 29  1 21 25 14 15
  22720051.567    -6083752.02749  -4735335.16049  22720051.2564   22720056.5334
  23761722.823    10706272.21649   8330583.28049  23761723.1714   23761728.7824
  24272452.655    10621906.98649   8263376.48649  24272452.4514   24272459.2964
  21277552.672    -1048560.43949   -811871.24449  21277552.4774   21277557.5414
  23421067.694    -8645384.52249  -6290515.26649  23421066.4834   23421072.3584
  21251618.523    -2505174.70349  -1832101.52749  21251617.4914   21251624.2154
 96 12  4 18 16 30.0010000  0  6 29  1 21 25 14 15
  22712801.851    -6121848.45249  -4765020.67249  22712801.3154   22712807.4904
  23778276.047    10793259.51949   8398365.59349  23778275.9724   23778282.8354
  24291037.576    10719571.47749   8339478.60349  24291037.9344   24291044.1274
  21281880.985    -1025815.02949   -794147.54949  21281880.6714   21281885.8334
  23407603.797    -8716137.36049  -6345647.32749  23407604.3034   23407608.9584
  21254609.700    -2489455.78949  -1819853.02949  21254609.1204   21254615.5964
 96 12  4 18 17  0.0010000  0  6 29  1 21 25 14 15
  22705590.690    -6159742.96949  -4794548.86149  22705590.5274   22705596.1554
  23794834.497    10880274.64249   8466169.56449  23794834.2894   23794842.1684
  24309664.430    10817455.47449   8415751.74349  24309664.1004   24309669.8434
  21286315.679    -1002510.29449   -775988.02749  21286315.0214   21286320.5884
  23394152.468    -8786825.21249  -6400728.75549  23394152.4954   23394157.5484
  21257722.730    -2473097.54549  -1807106.35649  21257722.1954   21257728.3264
 96 12  4 18 17 30.0010000  0  6 29  1 21 25 14 15
  22698418.761    -6197431.91449  -4823916.86249  22698418.1124   22698424.5654
  23811398.197    10967316.60949   8533994.45349  23811397.2234   23811405.6914
  24328334.093    10915566.22849   8492201.59149  24328331.3074   24328340.6484
  21290853.975     -978660.68749   -757403.92449  21290853.7294   21290858.7884
  23380717.033    -8857429.83549  -6455745.32949  23380715.5874   23380721.2674
  21260956.609    -2456103.35449  -1793864.13249  21260955.5774   21260962.1944
 96 12  4 18 18  0.0010000  0  6 29  1 21 25 14 15
  22691283.041    -6234929.99349  -4853136.13949  22691282.9624   22691288.6514
  23827965.671    11054378.74649   8601835.05449  23827965.4634   23827972.0024
  24347047.633    11013910.31449   8568833.24949  24347044.6824   24347051.3974
  21295492.958     -954283.08149   -738408.39549  21295492.4474   21295497.5084
  23367296.404    -8927955.32749  -6510700.23449  23367295.1084   23367301.3944
  21264309.933    -2438480.61349  -1780132.13249  21264309.0254   21264315.7754
 96 12  4 18 18 30.0010000  0  6 29  1 21 25 14 15
  22684186.249    -6272224.91449  -4882197.11349  22684185.8854   22684191.3024
  23844540.369    11141479.55049   8669705.76049  23844539.5494   23844547.5754
  24365809.106    11112507.67049   8645662.28649  24365804.4054   24365813.7064
  21300232.916     -929374.11949   -718998.82449  21300232.7364   21300237.7214
  23353891.574    -8998398.10749  -6565590.71949  23353891.2684   23353897.9414
  21267785.420    -2420216.72149  -1765900.53649  21267785.1794   21267791.3284
 96 12  4 18 19  0.0020000  0  6 29  1 21 25 14 15
  22677125.615    -6309329.05649  -4911109.42749  22677125.3534   22677130.5134
  23861117.822    11228594.67749   8737587.63749  23861117.3524   23861124.1574
  24384613.951    11211336.62249   8722671.77549  24384607.3584   24384620.9984
  21305066.088     -903975.98849   -699208.07149  21305066.1104   21305070.7264
  23340495.536    -9068794.02549  -6620444.65849  23340494.2024   23340501.2174
  21271379.500    -2401330.61849  -1751184.10649  21271378.6414   21271385.3264
 96 12  4 18 19 30.0020000  0  6 29  1 21 25 14 15
  22670100.557    -6346245.16849  -4939875.20749  22670100.3164   22670105.6524
  23877699.429    11315732.05249   8805486.84949  23877698.1544   23877705.8404
  24403459.482    11310383.52049   8799851.17849  24403454.4404   24403471.2794
  21309994.374     -878077.98849   -679027.80749  21309993.9784   21309999.0564
  23327108.826    -9139140.68349  -6675260.22449  23327108.4994   23327114.9934
  21275091.922    -2381821.22649  -1735981.98749  21275091.3914   21275097.7754
 96 12  4 18 20  0.0020000  0  6 29  1 21 25 14 15
  22663114.165    -6382959.45949  -4968483.74549  22663113.9834   22663119.5894
  23894286.438    11402897.73249   8873408.11549  23894285.9404   23894293.5624
  24422350.099    11409659.45149   8877209.03149  24422351.8284   24422365.5264
  21315023.125     -851651.20149   -658435.50749  21315023.2664   21315028.1284
  23313733.670    -9209427.31549  -6730029.00949  23313733.0484   23313738.9834
  21278925.643    -2361675.09049  -1720283.72249  21278924.7474   21278931.5774
 96 12  4 18 20 30.0020000  0  6 29  1 21 25 14 15
  22656166.879    -6419467.58349  -4996931.60049  22656166.8924   22656172.6874
  23910878.013    11490086.93149   8941347.71649  23910877.8044   23910885.3114
  24441285.099    11509158.15349   8954740.40549  24441289.6574   24441297.1364
  21320151.514     -824702.11249   -637436.21849  21320151.6664   21320156.3724
  23300369.548    -9279656.54349  -6784753.06649  23300368.6304   23300374.3954
  21282879.336    -2340897.88049  -1704093.70249  21282878.6204   21282885.3884
 96 12  4 18 21  0.0020000  0  6 29  1 21 25 14 15
  22649257.693    -6455775.23849  -5025223.26649  22649257.4854   22649263.1814
  23927471.641    11577286.29249   9009295.21749  23927471.7364   23927479.0514
  24460259.761    11608863.98749   9032433.20549  24460262.7724   24460272.5654
  21325376.104     -797247.43949   -616042.96749  21325375.7304   21325381.0024
  23287017.781    -9349821.04749  -6839426.68849  23287017.4934   23287022.7134
  21286952.058    -2319495.49249  -1687416.53549  21286951.5404   21286958.2064
 96 12  4 18 21 30.0020000  0  6 29  1 21 25 14 15
  22642384.325    -6491894.04149  -5053367.78449  22642384.0244   22642389.7334
  23944064.719    11664482.31149   9077240.12049  23944064.0194   23944071.7624
  24479275.715    11708787.19049   9110295.36849  24479278.9384   24479286.4194
  21330698.592     -769277.18949   -594247.96349  21330698.0654   21330703.7794
  23273680.742    -9419908.31449  -6894040.13549  23273680.4464   23273685.2984
  21291144.109    -2297466.41949  -1670251.03749  21291143.2684   21291150.2034
 96 12  4 18 22  0.0020000  0  6 29  1 21 25 14 15
  22635547.598    -6527821.15649  -5081362.92849  22635547.2874   22635552.7004
  23960654.678    11751662.87049   9145172.95649  23960653.4854   23960662.5094
  24498334.692    11808939.05949   9188335.71749  24498335.3354   24498345.5294
  21336119.055     -740792.34649   -572051.98349  21336118.7324   21336124.2204
  23260359.412    -9489912.81749  -6948589.09849  23260359.5284   23260364.0814
  21295456.137    -2274806.45349  -1652593.94349  21295455.3934   21295462.7484
 96 12  4 18 22 30.0020000  0  6 29  1 21 25 14 15
  22628745.894    -6563564.33349  -5109214.74849  22628745.4754   22628750.9054
  23977241.565    11838827.32649   9213093.26549  23977241.5414   23977248.1724
  24517435.146    11909310.07149   9266546.79149  24517435.5934   24517445.7334
  21341636.501     -711797.76549   -549458.80949  21341636.3234   21341642.0494
  23247053.103    -9559838.64849  -7003076.74749  23247052.6704   23247057.8924
  21299888.001    -2251516.67749  -1634446.08249  21299887.2854   21299894.6944
 96 12  4 18 23  0.0020000  0  6 29  1 21 25 14 15
  22621973.882    -6599151.34349  -5136944.87049  22621973.5544   22621978.5904
  23993821.797    11925957.60249   9280986.92249  23993821.8934   23993828.0914
  24536573.386    12009881.51649   9344914.08249  24536572.3344   24536585.2174
  21347250.716     -682294.88649   -526469.55549  21347250.5064   21347255.8134
  23233759.929    -9629694.08549  -7057509.55349  23233759.4234   23233765.1394
  21304437.685    -2227608.70549  -1615816.50549  21304437.3854   21304443.8984
 96 12  4 18 23 30.0020000  0  6 29  1 21 25 14 15
  22615234.158    -6634568.58349  -5164542.71349  22615234.0694   22615239.3704
  24010402.196    12013087.88649   9348880.60349  24010402.8444   24010408.2584
  24555752.910    12110673.83449   9423453.42249  24555748.5594   24555763.1404
  21352967.393     -652253.43149   -503060.63149  21352967.4884   21352972.2624
  23220484.631    -9699455.12649  -7111868.81249  23220483.7744   23220490.2614
  21309108.250    -2203065.25449  -1596691.75849  21309107.4924   21309114.0624
 96 12  4 18 24  0.0020000  0  6 29  1 21 25 14 15
  22608529.397    -6669802.68149  -5191997.84449  22608529.4514   22608535.6084
  24026987.817    12100245.79549   9416795.80249  24026987.6634   24026994.6164
  24574973.165    12211680.25849   9502159.64549  24574968.9434   24574985.0494
  21358785.394     -621680.23849   -479237.36149  21358785.3814   21358790.0324
  23207226.696    -9769125.29549  -7166157.26149  23207226.0224   23207232.2154
  21313899.860    -2177885.01349  -1577070.81049  21313899.4644   21313905.7894
 96 12  4 18 24 30.0020000  0  6 29  1 21 25 14 15
  22601858.247    -6704859.01349  -5219314.47949  22601857.9894   22601863.9774
  24043579.256    12187434.23449   9484734.81449  24043578.7174   24043585.6294
  24594232.081    12312889.97949   9581024.35549  24594230.2494   24594244.8344
  21364702.260     -590586.82249   -455008.71849  21364702.1444   21364707.2194
  23193981.942    -9838726.23649  -7220391.77049  23193981.8504   23193987.3404
  21318810.810    -2152077.84649  -1556961.35549  21318810.1554   21318816.5954
 96 12  4 18 25  0.0020000  0  6 29  1 21 25 14 15
  22595223.506    -6739724.74049  -5246482.56449  22595223.6424   22595229.6724
  24060179.085    12274665.78949   9552707.39349  24060179.1554   24060186.3154
  24613531.755    12414311.39649   9660053.96149  24613533.7054   24613545.7304
  21370717.939     -558974.05949   -430375.40849  21370717.9904   21370722.5734
  23180751.138    -9908254.36249  -7274569.53449  23180751.0504   23180756.8284
  21323841.076    -2125643.56449  -1536363.22849  21323840.3724   21323846.8944
 96 12  4 18 25 30.0020000  0  6 29  1 21 25 14 15
  22588628.320    -6774383.40149  -5273489.29149  22588628.8084   22588633.4874
  24076786.783    12361940.33849   9620713.47049  24076785.7984   24076793.7094
  24632871.901    12515939.82749   9739244.88549  24632874.3964   24632887.9514
  21376831.069     -526849.92449   -405343.62349  21376830.7884   21376835.9184
  23167534.191    -9977710.67749  -7328691.33349  23167534.0104   23167540.4424
  21328990.400    -2098583.89149  -1515277.78849  21328989.6684   21328996.4624
 96 12  4 18 26  0.0020000  0  6 29  1 21 25 14 15
  22582072.192    -6808836.79049  -5300336.08349  22582072.4074   22582077.4544
  24093399.851    12449242.54149   9688741.09449  24093400.1464   24093407.5584
  24652251.587    12617775.26649   9818597.11049  24652254.5394   24652263.9794
  21383041.953     -494210.78249   -379910.53549  21383041.5584   21383047.0804
  23154329.579   -10047101.62349  -7382762.19549  23154328.7524   23154335.4954
  21334258.914    -2070897.96349  -1493704.34649  21334258.4004   21334264.9924
 96 12  4 18 26 30.0020000  0  7 22 29  1 21 25 14 15
  25029486.858    -3171012.49449  -2459248.03949  25029485.4884   25029490.8444
  22575551.960    -6843101.34249  -5327035.72549  22575552.8504   22575557.4274
  24110015.672    12536558.44049   9756779.41049  24110015.4844   24110022.2164
  24671671.424    12719821.21549   9898113.35249  24671674.7954   24671682.4154
  21389351.326     -461054.84549   -354074.74749  21389350.8714   21389355.9814
  23141138.361   -10116421.52549  -7436777.68449  23141138.6334   23141144.3404
  21339645.556    -2042591.58949  -1471647.44249  21339645.2214   21339651.4644
 96 12  4 18 27  0.0020000  0  7 22 29  1 21 25 14 15
  25014330.837    -3250656.26849  -2521308.08149  25014329.1504   25014334.8004
  22569070.871    -6877160.75849  -5353575.52149  22569070.8874   22569076.3674
  24126635.486    12623895.59549   9824834.28149  24126635.5284   24126642.3294
  24691133.520    12822089.49149   9977802.86349  24691135.6134   24691142.9144
  21395760.417     -427374.81349   -327830.57949  21395759.8344   21395765.3214
  23127966.871   -10185638.28649  -7490712.81649  23127966.9224   23127972.9324
  21345152.215    -2013654.26249  -1449098.89949  21345151.5394   21345158.2804
 96 12  4 18 27 30.0020000  0  7 22 29  1 21 25 14 15
  24999161.836    -3330368.55249  -2583421.53049  24999160.5214   24999166.4894
  22562622.891    -6911045.19949  -5379978.96349  22562622.6814   22562628.3914
  24143254.784    12711230.47149   9892887.38249  24143254.3134   24143260.8084
  24710635.126    12924568.79649  10057656.78549  24710636.2424   24710644.4314
  21402265.394     -393189.82849   -301192.93449  21402264.9704   21402270.9464
  23114815.410   -10254749.43149  -7544565.64849  23114814.6974   23114821.5124
  21350776.792    -1984096.83649  -1426067.14749  21350775.8554   21350782.8974
 96 12  4 18 28  0.0020000  0  7 22 29  1 21 25 14 15
  24983985.023    -3410122.74349  -2645567.64649  24983984.0384   24983991.2494
  22556209.042    -6944750.12149  -5406242.53349  22556208.2324   22556214.4584
  24159875.787    12798573.44549   9960946.78949  24159876.0964   24159882.0324
  24730180.072    13027274.50449  10137687.12349  24730181.5124   24730187.5424
  21408868.458     -358490.08349   -274154.18249  21408868.2894   21408873.6584
  23101686.065   -10323744.01649  -7598327.64749  23101685.3164   23101692.3304
  21356520.579    -1953913.17449  -1402547.43149  21356519.7594   21356526.6344
 96 12  4 18 28 30.0020000  0  7 22 29  1 21 25 14 15
  24968801.110    -3489914.91049  -2707743.34649  24968799.7604   24968807.0744
  22549831.791    -6978261.93449  -5432355.62949  22549831.8264   22549837.0104
  24176499.195    12885929.68049  10029016.53749  24176499.1684   24176505.5244
  24749768.741    13130212.28849  10217898.30349  24749767.9424   24749774.9884
  21415567.826     -323285.13149   -246721.75649  21415567.5714   21415572.5474
  23088579.608   -10392617.99749  -7651995.67449  23088579.3194   23088585.9994
  21362383.890    -1923100.71849  -1378537.74249  21362383.2504   21362389.8724
 96 12  4 18 29  0.0020000  0  7 22 29  1 21 25 14 15
  24953607.318    -3569758.40549  -2769959.02549  24953606.0384   24953614.1684
  22543492.409    -7011575.59449  -5458314.31549  22543492.0554   22543497.2684
  24193124.274    12973294.08849  10097092.64849  24193124.0094   24193130.6024
  24769398.859    13233369.53049  10298280.48849  24769398.2624   24769404.4954
  21422361.606     -287583.94249   -218902.64649  21422361.5884   21422366.7304
  23075495.468   -10461375.10849  -7705572.63249  23075495.5974   23075501.5544
  21368366.828    -1891660.41749  -1354038.81649  21368366.2984   21368372.5554
 96 12  4 18 29 30.0020000  0  7 22 29  1 21 25 14 15
  24938398.267    -3649682.36249  -2832237.40849  24938396.2484   24938405.9664
  22537186.636    -7044712.16049  -5484135.01049  22537186.7304   22537191.3714
  24209746.135    13060642.38549  10165156.20549  24209746.8714   24209752.5764
  24789065.161    13336716.73949  10378810.69049  24789062.0994   24789072.0494
  21429247.183     -251400.59849   -190707.83449  21429247.4314   21429252.2134
  23062427.632   -10530047.22449  -7759083.36849  23062428.3634   23062434.2824
  21374465.680    -1859611.19449  -1329065.40649  21374464.9164   21374471.3164
 96 12  4 18 30  0.0020000  0  7 22 29  1 21 25 14 15
  24923172.829    -3729691.24649  -2894581.98049  24923170.8984   24923179.6754
  22530917.015    -7077659.58549  -5509808.32949  22530916.4514   22530921.5004
  24226366.323    13147981.71349  10233212.77449  24226366.1664   24226373.2564
  24808767.101    13440254.73849  10459489.62949  24808763.6204   24808774.5334
  21436225.624     -214729.19449   -162132.72349  21436225.9404   21436230.7884
  23049372.265   -10598654.36149  -7812543.46849  23049372.4614   23049378.4124
  21380680.575    -1826951.47749  -1303616.29049  21380679.7634   21380686.4794
 96 12  4 18 30 30.0020000  0  7 22 29  1 21 25 14 15
  24907931.809    -3809779.70349  -2956988.56249  24907928.8504   24907939.5574
  22524685.444    -7110405.53949  -5535324.65049  22524685.5954   22524690.7804
  24242987.707    13235328.06749  10301274.82149  24242986.6304   24242994.4054
  24828507.473    13543992.91449  10540324.49749  24828505.5834   24828515.7194
  21443297.868     -177564.63949   -133173.33149  21443297.4444   21443302.9204
  23036332.520   -10667178.68749  -7865939.02949  23036332.8994   23036338.2254
  21387015.375    -1793662.10649  -1277676.52949  21387014.7084   21387021.4914
 96 12  4 18 31  0.0020000  0  7 22 29  1 21 25 14 15
  24892676.643    -3889943.28149  -3019453.66449  24892672.9814   24892685.2084
  22518490.195    -7142961.96249  -5560693.29249  22518490.7134   22518495.6624
  24259607.713    13322668.11949  10369331.96049  24259607.2434   24259615.3324
  24848283.895    13647918.21949  10621305.19449  24848284.4214   24848293.3904
  21450462.372     -139914.56349   -103835.61849  21450462.0944   21450467.5324
  23023310.511   -10735610.52449  -7919262.53749  23023310.7844   23023315.8724
  21393468.234    -1759752.03549  -1251253.10649  21393467.3814   21393474.0004
 96 12  4 18 31 30.0020000  0  7 22 29  1 21 25 14 15
  24877415.453    -3970137.41549  -3081942.58549  24877412.6164   24877424.1784
  22512332.126    -7175323.80249  -5585910.30649  22512332.4674   22512337.4914
  24276228.796    13410012.22449  10437392.22849  24276228.0674   24276236.5044
  24868100.964    13752056.46249  10702451.80549  24868101.9314   24868109.9464
  21457721.629     -101766.92449    -74110.19749  21457721.2994   21457726.6414
  23010307.329   -10803943.11849  -7972508.71549  23010307.4364   23010313.1214
  21400040.788    -1725212.94849  -1224339.54249  21400040.1504   21400046.8654
 96 12  4 18 32  0.0020000  0  7 22 29  1 21 25 14 15
  24862149.947    -4050353.87649  -3144448.90749  24862147.5134   24862160.0134
  22506210.305    -7207495.03949  -5610978.79749  22506209.6854   22506215.4934
  24292851.297    13497364.45549  10505458.85449  24292850.6894   24292858.3894
  24887960.767    13856416.35749  10783771.15549  24887962.1624   24887968.5774
  21465074.532      -63127.84949    -44001.83349  21465074.5484   21465079.4734
  22997323.605   -10872173.39449  -8025675.16249  22997322.8254   22997328.9314
  21406732.091    -1690050.42349  -1196940.18049  21406731.8484   21406738.3174
 96 12  4 18 32 30.0020000  0  7 22 29  1 21 25 14 15
  24846883.456    -4130576.76849  -3206960.21649  24846881.0624   24846893.7734
  22500127.590    -7239458.33049  -5635885.26049  22500126.8064   22500132.7724
  24309476.771    13584730.83849  10573536.51949  24309477.3894   24309484.1734
  24907863.860    13961007.23549  10865270.49349  24907864.3044   24907871.5454
  21472522.006      -23991.33949    -13505.86249  21472521.6634   21472526.8654
  22984364.483   -10940273.90049  -8078740.48249  22984364.0264   22984370.8004
  21413543.227    -1654258.28449  -1169050.22049  21413542.7134   21413549.3144
 96 12  4 18 33  0.0020000  0  7 22 29  1 21 25 14 15
  24831615.603    -4210807.67549  -3269477.75849  24831613.2624   24831626.2864
  22494082.798    -7271223.10449  -5660637.02849  22494082.5714   22494088.1264
  24326104.354    13672107.97049  10641622.56649  24326104.4184   24326110.9994
  24927808.967    14065818.40549  10946941.48649  24927809.3174   24927815.2464
  21480064.586       15645.41849     17379.91249  21480064.2914   21480069.2584
  22971426.078   -11008265.01149  -8131720.57149  22971425.6434   22971432.0634
  21420471.504    -1617850.34549  -1140680.41949  21420470.7674   21420477.5154
 96 12  4 18 33 30.0020000  0  7 22 29  1 21 25 14 15
  24816345.634    -4291051.21949  -3332005.12649  24816343.6334   24816356.5334
  22488075.951    -7302789.34749  -5685234.09549  22488077.0384   22488081.3204
  24342736.320    13759508.35249  10709726.73949  24342736.4544   24342741.3524
  24947795.381    14170846.84249  11028781.78449  24947795.9404   24947801.7654
  21487705.666       55799.54349     48668.82949  21487705.2814   21487710.4134
  22958506.916   -11076155.25049  -8184622.06449  22958506.3874   22958513.0944
  21427517.275    -1580825.15049  -1111829.63149  21427516.7594   21427522.7684
 96 12  4 18 34  0.0020000  0  7 22 29  1 21 25 14 15
  24801070.615    -4371321.36849  -3394553.26549  24801069.8374   24801081.0624
  22482108.835    -7334148.48649  -5709669.76849  22482109.2204   22482113.9134
  24359372.825    13846933.49849  10777850.21349  24359372.3874   24359379.4734
  24967819.947    14276077.38249  11110779.54549  24967818.9594   24967825.2884
  21495444.726       96468.50449     80358.92949  21495444.8434   21495449.4184
  22945611.613   -11143919.95249  -8237425.72949  22945611.7444   22945618.7444
  21434681.245    -1543178.18649  -1082494.34349  21434680.2704   21434686.6884
 96 12  4 18 34 30.0020000  0  7 22 29  1 21 25 14 15
  24785789.077    -4451627.13549  -3457129.14449  24785789.5054   24785798.7804
  22476175.925    -7365325.64549  -5733963.66949  22476175.0984   22476180.1454
  24376009.937    13934362.37249  10845976.56549  24376009.8204   24376015.5104
  24987878.538    14381487.43449  11192917.23049  24987879.6914   24987880.7994
  21503278.424      137633.83849    112435.81049  21503278.7204   21503283.0764
  22932738.731   -11211568.25049  -8290138.69449  22932738.8054   22932744.9584
  21441960.589    -1504924.79249  -1052686.52149  21441959.9204   21441966.1754
 96 12  4 18 35  0.0020000  0  7 22 29  1 21 25 14 15
  24770504.172    -4531952.99549  -3519720.65049  24770505.1264   24770512.1524
  22470275.732    -7396329.81449  -5758122.75649  22470275.1824   22470280.4734
  24392649.040    14021802.28049  10914111.53549  24392649.2604   24392654.3654
  25007974.179    14487089.63849  11275204.59949  25007973.2204   25007974.5724
  21511209.458      179311.02849    144911.54749  21511209.0104   21511213.8244
  22919888.757   -11279095.92549  -8342757.67049  22919889.1014   22919895.6854
  21449357.544    -1466053.64749  -1022397.33449  21449356.6994   21449363.1974
 96 12  4 18 35 30.0020000  0  6 22 29  1 25 14 15
  24755214.878    -4612302.50949  -3582330.60549  24755217.3904   24755221.5714
  22464407.519    -7427167.14449  -5782151.83149  22464407.4044   22464413.2094
  24409286.040    14109230.69049  10982237.54549  24409286.3034   24409291.8334
  21519234.623      221483.80949    177773.45449  21519234.4544   21519239.1644
  22907064.480   -11346488.44949  -8395271.31849  22907064.0104   22907070.7294
  21456871.433    -1426568.07549   -991629.38049  21456870.6984   21456876.9864
 96 12  4 18 36  0.0020000  0  6 22 29  1 25 14 15
  24739921.747    -4692673.38349  -3644957.20049  24739923.4774   24739927.4544
  22458568.922    -7457848.95349  -5806059.73149  22458568.8864   22458574.7004
  24425918.655    14196634.50149  11050344.38949  24425917.9494   24425922.3334
  21527351.483      264138.31849    211010.73249  21527351.2454   21527356.2264
  22894262.822   -11413761.11349  -8447691.56949  22894261.8824   22894268.9884
  21464500.700    -1386476.02749   -960388.84149  21464499.9364   21464506.1634
 96 12  4 18 36 30.0020000  0  6 22 29  1 25 14 15
  24724627.789    -4773047.89249  -3707586.62649  24724629.1754   24724632.5974
  22452761.857    -7488365.00849  -5829838.48149  22452761.3674   22452767.5934
  24442550.352    14284034.44549  11118448.20149  24442550.6444   24442555.2304
  21535563.939      307295.35149    244639.58849  21535563.2804   21535568.6904
  22881484.360   -11480911.03049  -8500016.17449  22881483.7984   22881490.9134
  21472247.938    -1345764.58349   -928665.66249  21472246.7234   21472253.2614
 96 12  4 18 37  0.0020000  0  6 22 29  1 25 14 15
  24709327.773    -4853453.38249  -3770240.21649  24709328.5784   24709331.8054
  22446985.494    -7518720.21549  -5853491.88449  22446985.8954   22446991.0534
  24459178.924    14371417.19849  11186538.63149  24459178.9334   24459184.4084
  21543869.042      350939.85649    278648.29149  21543868.4304   21543873.7744
  22868727.115   -11547950.07649  -8552254.38249  22868726.5804   22868733.5694
  21480109.607    -1304450.85649   -896473.17449  21480108.5404   21480115.3754
 96 12  4 18 37 30.0020000  0  6 22 29  1 25 14 15
  24694022.344    -4933886.95449  -3832915.70749  24694022.5844   24694025.6774
  22441244.240    -7548891.55649  -5877002.01349  22441244.4504   22441249.0244
  24475805.578    14458790.91049  11254622.02049  24475805.0934   24475810.3564
  21552267.858      395076.09149    313040.15749  21552267.3264   21552272.8074
  22855994.170   -11614861.81049  -8604393.40249  22855994.0354   22856000.7014
  21488086.242    -1262533.57549   -863810.38549  21488085.3284   21488091.7164
 96 12  4 18 38  0.0020000  0  6 22 29  1 25 14 15
  24678710.047    -5014355.08649  -3895618.15249  24678709.5454   24678712.5184
  22435539.312    -7578871.55749  -5900363.04949  22435538.8004   22435544.5484
  24492433.195    14546168.59949  11322708.47049  24492431.4934   24492437.7194
  21560760.419      439704.97449    347815.89949  21560760.2664   21560765.8134
  22843285.290   -11681647.77149  -8656434.40449  22843285.1434   22843292.0784
  21496177.317    -1220014.96549   -830679.01549  21496176.3974   21496182.7504
 96 12  4 18 38 30.0020000  0  6 22 29  1 25 14 15
  24663388.972    -5094868.77649  -3958356.07249  24663388.9214   24663390.0444
  22429872.084    -7608652.69649  -5923569.11249  22429872.0034   22429877.5244
  24509060.564    14633547.67249  11390795.98749  24509058.7024   24509065.9734
  21569343.157      484807.46049    382960.68849  21569342.9354   21569347.9904
  22830602.023   -11748300.08949  -8708371.27549  22830601.6134   22830607.8684
  21504381.014    -1176903.49949   -797085.68449  21504379.7984   21504386.8924
 96 12  4 18 39  0.0020000  0  6 22 29  1 25 14 15
  24648065.773    -5175391.96849  -4021101.42949  24648065.4194   24648065.4414
  22424249.239    -7638201.43149  -5946594.09649  22424249.3354   22424254.0344
  24525691.463    14720945.66449  11458898.24649  24525689.7184   24525698.0424
  21578019.779      530403.57649    418490.12149  21578019.4084   21578024.5904
  22817948.697   -11814793.93249  -8760184.64749  22817948.6334   22817954.7114
  21512701.129    -1133180.00549   -763015.44949  21512700.3874   21512707.0184
 96 12  4 18 39 30.0020000  0  6 22 29  1 25 14 15
  24632740.646    -5255926.88349  -4083855.91149  24632740.5694   24632740.7644
  22418667.526    -7667534.11049  -5969450.71649  22418667.7994   22418672.7544
  24542321.159    14808335.94049  11526994.51549  24542319.4764   24542327.7074
  21586783.830      576459.30249    454377.69349  21586783.6914   21586788.9394
  22805321.402   -11881151.16449  -8811891.57849  22805321.2554   22805327.5474
  21521134.649    -1088861.51049   -728481.57349  21521134.0594   21521140.7034
 96 12  4 18 40  0.0020000  0  6 22 29  1 25 14 15
  24617415.513    -5336462.33749  -4146610.77149  24617415.6884   24617414.2084
  22413126.601    -7696651.92149  -5992139.90049  22413126.4354   22413131.2854
  24558950.768    14895725.97949  11595090.59249  24558951.0324   24558957.6884
  21595634.689      622970.62649    490620.28149  21595635.0334   21595639.6814
  22792720.475   -11947369.56649  -8863490.32949  22792719.8384   22792726.5054
  21529683.203    -1043939.19949   -693477.19449  21529682.8214   21529689.3114
 96 12  4 18 40 30.0020000  0  6 22 29  1 25 14 15
  24602091.544    -5416991.29349  -4209360.58749  24602091.8264   24602090.6044
  22407620.894    -7725584.63249  -6014684.86149  22407620.7474   22407625.5494
  24575577.747    14983100.72749  11663174.77549  24575578.5414   24575584.8414
  21604568.576      669917.85649    527202.52749  21604568.6384   21604573.5044
  22780142.686   -12013465.90849  -8914993.96349  22780141.8664   22780148.6234
  21538343.845     -998428.10149   -658014.02049  21538343.8554   21538349.6464
 96 12  4 18 41  0.0020000  0  6 22 29  1 25 14 15
  24586771.129    -5497502.31849  -4272096.42949  24586768.3244   24586768.6674
  22402147.116    -7754349.06749  -6037098.70549  22402146.8064   22402152.0214
  24592201.816    15070458.95149  11731246.06849  24592201.8234   24592208.3934
  21613587.070      717310.15749    564131.57449  21613586.7254   21613592.0774
  22767588.295   -12079439.87749  -8966402.23849  22767588.2074   22767593.9164
  21547117.446     -952323.42549   -622088.32549  21547116.5324   21547122.9104
 96 12  4 18 41 30.0020000  0  6 22 29  1 25 14 15
  24571450.979    -5578009.34049  -4334829.13749  24571450.0394   24571448.9094
  22396700.091    -7782972.71649  -6059402.83249  22396700.1774   22396705.4874
  24608821.914    15157797.19849  11799301.80649  24608822.0474   24608829.1444
  21622688.331      765138.30149    601400.24849  21622687.7954   21622693.4124
  22755055.116   -12145302.80549  -9017724.00349  22755055.0834   22755060.4614
  21556002.836     -905629.48649   -585703.45749  21556001.8104   21556008.5374
 96 12  4 18 42  0.0020000  0  6 22 29  1 25 14 15
  24556134.283    -5658498.37449  -4397547.82849  24556131.8144   24556134.6794
  22391279.996    -7811456.05749  -6081597.63749  22391280.2294   22391285.2094
  24625442.285    15245137.39549  11867359.05049  24625441.6124   24625449.9624
  21631876.865      813424.53849    639025.87549  21631876.7634   21631881.9894
  22742544.495   -12211046.04349  -9068952.49849  22742543.6054   22742550.1644
  21565000.355     -858346.60849   -548859.67449  21564999.9614   21565006.3254
 96 12  4 18 42 30.0020000  0  6 22 29  1 25 14 15
  24540823.720    -5738955.57549  -4460241.73049  24540821.3834   24540824.5724
  22385886.859    -7839798.24049  -6103682.44949  22385886.9334   22385891.7584
  24642064.661    15332489.09649  11935425.25949  24642063.6944   24642072.0154
  21641153.869      862175.27649    677013.45149  21641153.6314   21641159.2744
  22730057.159   -12276666.50849  -9120085.32949  22730056.7094   22730063.2864
  21574109.838     -810475.96249   -511557.88749  21574109.0654   21574115.8714
 96 12  4 18 43  0.0020000  0  6 22 29  1 25 14 15
  24525522.103    -5819364.38249  -4522897.89749  24525519.4664   24525523.6844
  22380526.740    -7867965.33249  -6125630.83049  22380525.7744   22380532.2124
  24658692.668    15419870.41349  12003514.54449  24658691.5934   24658700.4214
  21650524.105      911416.25749    715383.03749  21650523.5544   21650529.1804
  22717598.638   -12342136.24149  -9171100.70349  22717598.2044   22717604.4894
  21583334.716     -761998.89249   -473783.56449  21583334.1894   21583340.2084
 96 12  4 18 43 30.0020000  0  6 22 29  1 25 14 15
  24510225.267    -5899746.41249  -4585533.22849  24510221.8964   24510227.8314
  22375199.140    -7895960.10049  -6147444.95149  22375198.4624   22375204.3764
  24675321.004    15507253.49449  12071605.21449  24675321.0814   24675329.1154
  21659981.861      961116.98949    754110.86749  21659981.7374   21659987.2304
  22705167.271   -12407463.07149  -9222004.71049  22705167.0704   22705173.9014
  21592670.566     -712938.71949   -435554.87649  21592669.8464   21592675.9944
 96 12  4 18 44  0.0020000  0  6 22 29  1 25 14 15
  24494936.981    -5980083.90249  -4648133.84349  24494934.4004   24494940.6324
  22369908.563    -7923761.99549  -6169108.75449  22369908.6844   22369913.6274
  24691951.870    15594647.96549  12139704.76549  24691952.2474   24691959.6544
  21669529.316     1011288.18949    793205.30149  21669529.1074   21669534.0014
  22692768.120   -12472621.39249  -9272777.42249  22692767.9244   22692774.3814
  21602118.808     -663288.17949   -396866.15949  21602117.6254   21602124.7544
 96 12  4 18 44 30.0020000  0  6 22 29  1 25 14 15
  24479651.842    -6060405.15549  -4710721.81049  24479649.5714   24479654.9864
  22364651.637    -7951388.54349  -6190635.93749  22364651.9744   22364657.1224
  24708578.460    15682019.67549  12207786.57349  24708578.3174   24708584.8434
  21679161.617     1061906.43149    832648.08849  21679161.2894   21679166.2604
  22680400.066   -12537616.39849  -9323422.86649  22680399.9864   22680406.6084
  21611676.941     -613059.50549   -357726.95949  21611676.5384   21611683.1454
 96 12  4 18 45  0.0020000  0  6 22 29  1 25 14 15
  24464369.975    -6140709.68349  -4773296.74249  24464368.5504   24464373.8444
  22359430.233    -7978828.06249  -6212017.37449  22359430.0094   22359435.5764
  24725197.843    15769353.77749  12275839.09349  24725197.8224   24725203.9434
  21688879.692     1112975.29249    872441.99849  21688879.2714   21688884.7044
  22668066.563   -12602429.63849  -9373926.68249  22668066.0444   22668072.8004
  21621346.018     -562248.49049   -318133.97549  21621344.9644   21621351.9374
 96 12  4 18 45 30.0020000  0  6 22 29  1 25 14 15
  24449091.483    -6220998.31449  -4835859.27049  24449089.9874   24449095.2844
  22354242.314    -8006089.70049  -6233260.22049  22354241.1114   22354248.0864
  24741810.776    15856654.13649  12343865.32049  24741810.3714   24741816.4684
  21698682.992     1164492.28749    912585.10149  21698682.7844   21698688.0644
  22655766.619   -12667066.69449  -9424293.21849  22655766.4294   22655773.1144
  21631124.482     -510862.11549   -278092.66449  21631123.8354   21631130.5174
 96 12  4 18 46  0.0020000  0  6 22 29  1 25 14 15
  24433817.647    -6301263.87049  -4898403.77149  24433817.0904   24433820.5244
  22349084.256    -8033193.16949  -6254379.83049  22349083.6614   22349090.0184
  24758419.782    15943935.57449  12411876.78849  24758417.7644   24758425.1224
  21708574.645     1216473.14349    953089.65049  21708574.6174   21708579.8474
  22643497.090   -12731543.63749  -9474534.98549  22643496.6134   22643503.0814
  21641011.478     -458906.08549   -237607.47049  21641011.0504   21641017.6884
 96 12  4 18 46 30.0020000  0  6 22 29  1 25 14 15
  24418549.082    -6381501.15849  -4960926.27049  24418546.8024   24418552.5744
  22343958.317    -8060129.56949  -6275369.23449  22343958.6494   22343963.7024
  24775025.997    16031203.44849  12479877.67349  24775023.9284   24775032.8734
  21718555.536     1268923.31449    993959.89649  21718555.1574   21718560.8654
  22631257.714   -12795861.47049  -9524652.77849  22631257.0774   22631263.2964
  21651007.506     -406376.90549   -196675.64949  21651006.9704   21651013.7234
 96 12  4 18 47  0.0020000  0  6 22 29  1 25 14 15
  24403287.171    -6461702.09649  -5023420.43149  24403284.9074   24403290.3214
  22338866.008    -8086890.79449  -6296222.12649  22338866.5544   22338871.0634
  24791633.782    16118480.50949  12547885.71149  24791633.4494   24791640.5464
  21728626.557     1321846.88349   1035199.01749  21728625.9054   21728631.6954
  22619046.007   -12860034.14349  -9574657.45049  22619045.9904   22619052.2504
  21661112.240     -353276.47749   -155298.70949  21661111.2654   21661118.3894
 96 12  4 18 47 30.0020000  0  6 22 29  1 25 14 15
  24388031.746    -6541866.35449  -5085886.04749  24388028.4094   24388036.8554
  22333804.808    -8113487.86449  -6316947.10749  22333804.6194   22333810.2804
  24808245.487    16205775.57949  12615907.80049  24808245.3694   24808252.3544
  21738786.695     1375239.66849   1076803.76949  21738785.9024   21738791.9824
  22606858.284   -12924081.60349  -9624564.56049  22606858.1384   22606864.6184
  21671325.164     -299606.55349   -113478.01249  21671323.9654   21671331.2754
 96 12  4 18 48  0.0020000  0  6 22 29  1 25 14 15
  24372784.567    -6621985.60649  -5148316.57149  24372780.3954   24372789.6544
  22328776.568    -8139910.90549  -6337536.49649  22328776.1404   22328782.4784
  24824859.261    16293081.20949  12683938.12749  24824859.0284   24824867.1084
  21749033.494     1429087.93949   1118763.44949  21749033.4074   21749039.1404
  22594697.034   -12987989.14749  -9674362.63949  22594696.6374   22594702.9524
  21681647.774     -245360.02749    -71208.01549  21681646.9584   21681654.0584
 96 12  4 18 48 30.0020000  0  6 22 29  1 25 14 15
  24357545.359    -6702063.23649  -5210714.68849  24357543.8334   24357551.9854
  22323783.605    -8166148.94549  -6357981.72849  22323783.5164   22323789.8014
  24841472.591    16380383.07549  12751965.52349  24841473.5564   24841479.6484
  21759361.852     1483363.93449   1161056.42749  21759361.6174   21759367.3714
  22582563.978   -13051748.84349  -9724045.51749  22582563.1974   22582570.0944
  21692079.490     -190540.57349    -28491.56149  21692078.8664   21692085.7564
 96 12  4 18 49  0.0020000  0  6 22 29  1 25 14 15
  24342313.756    -6782104.80249  -5273084.68149  24342313.0874   24342321.5604
  22318821.353    -8192226.26349  -6378301.71749  22318821.5914   22318826.6354
  24858081.114    16467659.61049  12819973.16749  24858078.5504   24858087.5304
  21769767.038     1538043.68149   1203664.01249  21769766.7544   21769772.7124
  22570456.391   -13115374.08249  -9773623.61549  22570455.7194   22570462.6354
  21702616.943     -135166.38349     14657.13649  21702616.6314   21702623.0864
 96 12  4 18 49 30.0020000  0  6 22 29  1 25 14 15
  24327095.008    -6862080.39349  -5335403.25749  24327094.7534   24327102.8774
  22313893.111    -8218125.43249  -6398482.87749  22313893.1234   22313897.9214
  24874684.300    16554910.14849  12887960.54949  24874685.0144   24874689.9404
  21780250.732     1593136.56449   1246593.52749  21780250.1674   21780256.5044
  22558382.495   -13178822.21349  -9823063.70849  22558382.0274   22558389.1484
  21713262.918      -79222.35249     58249.86849  21713263.1914   21713268.8204
 96 12  4 18 50  0.0020000  0  6 22 29  1 25 14 15
  24311891.290    -6941978.25949  -5397661.28049  24311890.2394   24311898.7474
  22308998.933    -8243844.24949  -6418523.50149  22308998.6224   22309003.6454
  24891282.972    16642139.69949  12955931.53549  24891283.2034   24891290.4174
  21790813.057     1648641.88949   1289844.42449  21790813.3544   21790818.7854
  22546346.173   -13242074.00849  -9872350.81849  22546345.8704   22546351.7964
  21724016.605      -22712.18249    102283.75149  21724016.1774   21724022.2574
 96 12  4 18 50 30.0020000  0  6 22 29  1 25 14 15
  24296703.724    -7021790.91649  -5459852.86849  24296703.9824   24296710.3134
  22304137.787    -8269388.52049  -6438428.11849  22304137.3074   22304143.0774
  24907879.777    16729359.03549  13023894.60249  24907878.6944   24907888.2554
  21801457.632     1704578.31349   1333431.23849  21801457.7854   21801462.8034
  22534345.250   -13305139.64849  -9921492.86349  22534344.9384   22534350.9014
  21734877.263       34360.85949    146756.23149  21734876.7284   21734883.1914
 96 12  4 18 51  0.0020000  0  6 22 29  1 25 14 15
  24281534.526    -7101506.17249  -5521968.58749  24281533.2244   24281540.5354
  22299310.475    -8294755.89549  -6458194.89549  22299310.9484   22299316.0404
  24924476.536    16816575.96849  13091855.79449  24924477.0044   24924485.0294
  21812186.754     1760959.72849   1377364.80649  21812186.4584   21812191.9054
  22522381.778   -13368008.19349  -9970481.33649  22522381.0004   22522387.1494
  21745845.318       91998.24149    191668.44949  21745844.6354   21745851.4234
 96 12  4 18 51 30.0020000  0  6 22 29  1 25 14 15
  24266385.611    -7181113.71749  -5584000.39349  24266383.6624   24266391.8534
  22294520.563    -8319928.57349  -6477809.95049  22294520.6254   22294526.1574
  24941075.751    16903804.01049  13159825.65649  24941076.1824   24941083.6864
  21823002.047     1817794.76549   1421651.83349  21823001.6504   21823007.0494
  22510456.919   -13430673.36449 -10019311.32749  22510456.2754   22510462.0684
  21756921.845      150205.95149    237025.07649  21756921.2474   21756927.7184
 96 12  4 18 52  0.0020000  0  6 22 29  1 25 14 15
  24251252.939    -7260634.50849  -5645964.58049  24251251.3984   24251259.4224
  22289765.404    -8344917.26149  -6497281.64549  22289765.1074   22289770.6734
  24957677.042    16991042.08349  13227803.32749  24957676.5304   24957684.6364
  21833903.832     1875083.82049   1466292.64649  21833904.1434   21833908.8624
  22498565.042   -13493165.46749 -10068006.46949  22498564.5284   22498570.2894
  21768104.412      208970.44349    282815.56649  21768103.9554   21768110.4444
 96 12  4 18 52 30.0020000  0  6 22 29  1 25 14 15
  24236136.515    -7340070.77449  -5707862.94849  24236135.6524   24236142.2154
  22285045.786    -8369718.53649  -6516607.31749  22285045.0244   22285051.0654
  24974279.968    17078290.68449  13295789.20749  24974279.8164   24974288.1374
  21844893.279     1932832.41549   1511291.53549  21844893.5754   21844898.1604
  22486708.964   -13555469.36449 -10116554.95349  22486708.4564   22486714.3574
  21779394.764      268301.17549    329047.28249  21779394.0494   21779400.8804
 96 12  4 18 53  0.0020000  0  6 22 29  1 25 14 15
  24221033.163    -7419439.99849  -5769709.04649  24221033.1884   24221039.4534
  22280358.417    -8394350.11549  -6535800.75749  22280358.3094   22280363.8764
  24990878.199    17165515.01449  13363756.14049  24990878.1254   24990886.8574
  21855964.085     1991009.15249   1556624.05249  21855964.2814   21855969.0954
  22474887.113   -13617593.52449 -10164963.37349  22474887.0994   22474892.8134
  21790789.152      328179.22749    375705.47649  21790788.7414   21790795.3124
 96 12  4 18 53 30.0020000  0  6 22 29  1 25 14 15
  24205943.692    -7498737.98649  -5831499.64549  24205943.8244   24205950.3004
  22275704.024    -8418809.38149  -6554859.91249  22275704.4814   22275709.4264
  25007472.129    17252717.20749  13431705.81849  25007471.2484   25007481.5234
  21867119.602     2049631.36149   1602303.68049  21867119.6484   21867124.3854
  22463100.638   -13679532.83949 -10213227.77649  22463100.6994   22463106.2474
  21802289.521      388613.53649    422797.12849  21802289.0494   21802295.4894
 96 12  4 18 54  0.0020000  0  6 22 29  1 25 14 15
  24190866.504    -7577971.76849  -5893240.22949  24190866.3624   24190873.4214
  22271079.900    -8443110.64949  -6573795.95249  22271079.9724   22271085.3874
  25024061.611    17339895.83249  13499637.12949  25024061.5534   25024070.6824
  21878358.236     2108690.43149   1648323.72149  21878357.9384   21878362.9854
  22451353.128   -13741267.38549 -10261332.60249  22451352.8824   22451358.6774
  21813895.277      449601.70449    470320.36049  21813893.8664   21813901.1014
 96 12  4 18 54 30.0020000  0  6 22 29  1 25 14 15
  24175805.227    -7657121.38449  -5954915.23849  24175804.3994   24175811.8014
  22266483.900    -8467263.22149  -6592616.13049  22266483.7944   22266489.4014
  25040644.000    17427035.78349  13567538.32749  25040644.8424   25040652.4024
  21889675.853     2168165.01349   1694667.53449  21889675.3134   21889680.2864
  22439645.960   -13802789.15849 -10309271.63549  22439645.3574   22439651.3544
  21825604.613      511135.79249    518268.98149  21825603.5494   21825610.1784
 96 12  4 18 55  0.0020000  0  6 22 29  1 25 14 15
  24160762.143    -7736173.64049  -6016514.38749  24160760.0344   24160768.9874
  22261919.191    -8491250.42449  -6611307.45549  22261918.9444   22261924.6954
  25057220.806    17514145.92749  13635416.29249  25057220.6974   25057228.9104
  21901073.046     2228057.42049   1741336.93249  21901072.8834   21901077.7194
  22427976.688   -13864111.25449 -10357055.08249  22427976.1154   22427982.1044
  21837417.531      573213.65549    566641.32349  21837416.8714   21837423.2714
 96 12  4 18 55 30.0020000  0  6 22 29  1 25 14 15
  24145736.932    -7815129.19849  -6078038.20949  24145735.0654   24145743.7324
  22257386.340    -8515070.68049  -6629868.68649  22257386.6824   22257391.5664
  25073795.781    17601246.90549  13703287.11449  25073796.3724   25073804.1434
  21912549.744     2288367.88749   1788332.09749  21912549.2984   21912554.1314
  22416346.072   -13925230.46649 -10404680.42949  22416345.3974   22416351.5194
  21849333.977      635834.40949    615436.70949  21849333.8014   21849340.0294
 96 12  4 18 56  0.0020000  0  6 22 29  1 25 14 15
  24130733.300    -7893972.31249  -6139474.38049  24130730.9034   24130740.5864
  22252887.989    -8538710.24549  -6648289.11149  22252887.6664   22252893.0544
  25090371.162    17688349.68849  13771159.35649  25090371.7474   25090379.3014
  21924103.509     2349083.91949   1835643.27049  21924103.2694   21924108.1834
  22404755.070   -13986140.56349 -10452142.82649  22404754.1914   22404760.8154
  21861353.751      698998.29949    664655.30149  21861353.2004   21861359.7784
 96 12  4 18 56 30.0020000  0  6 22 29  1 25 14 15
  24115753.355    -7972691.38649  -6200813.92749  24115752.1024   24115760.8814
  22248424.675    -8562164.97749  -6666565.52449  22248424.2964   22248429.6514
  25106945.693    17775446.84149  13839027.19549  25106946.0134   25106953.3314
  21935734.908     2410207.27249   1883271.84349  21935734.6474   21935739.5874
  22393198.974   -14046867.05549 -10499462.16249  22393198.2414   22393204.5824
  21873475.912      762700.24549    714293.16249  21873475.4284   21873481.4454
 96 12  4 18 57  0.0020000  0  6 22 29  1 25 14 15
  24100794.839    -8051299.11049  -6262066.68849  24100793.2984   24100801.7704
  22243999.704    -8585417.81849  -6684684.61549  22243999.3904   22244005.0794
  25123521.847    17862553.62649  13906902.52649  25123521.3584   25123528.9064
  21947446.740     2471753.76649   1931230.13849  21947446.6094   21947452.1804
  22381678.687   -14107405.39949 -10546634.89149  22381678.4764   22381684.4904
  21885702.022      826949.24049    764357.29449  21885701.5344   21885707.7514
 96 12  4 18 57 30.0020000  0  6 22 29  1 25 14 15
  24085858.669    -8129788.42249  -6323227.19749  24085857.6084   24085865.7474
  22239610.678    -8608482.01549  -6702656.71049  22239610.8484   22239616.0924
  25140099.051    17949667.36149  13974783.28549  25140097.8424   25140106.2954
  21959239.407     2533724.43049   1979518.95849  21959239.4854   21959244.5594
  22370195.832   -14167747.88549 -10593654.99649  22370195.6464   22370201.5874
  21898031.709      891742.07849    814845.19449  21898031.0094   21898037.2274
 96 12  4 18 58  0.0020000  0  6 22 29  1 25 14 15
  24070941.285    -8208179.79249  -6384311.38849  24070939.4854   24070948.2124
  22235253.203    -8631380.98849  -6720500.04649  22235253.0954   22235258.2304
  25156670.765    18036751.89449  14042641.30749  25156669.1404   25156677.9504
  21971108.879     2596098.39049   2028122.02949  21971108.8084   21971113.8204
  22358745.499   -14227919.88649 -10640542.26149  22358745.0434   22358751.2004
  21910459.621      957051.14849    865735.35849  21910459.3854   21910465.2884
 96 12  4 18 58 30.0020000  0  6 22 29  1 25 14 15
  24056042.230    -8286474.37049  -6445320.16849  24056040.5204   24056048.9594
  22230925.933    -8654121.78749  -6738220.13449  22230925.9504   22230930.9064
  25173237.300    18123810.82849  14110479.35649  25173234.9524   25173244.9594
  21983056.851     2658885.36349   2077046.93449  21983056.5874   21983062.0304
  22347328.487   -14287916.31849 -10687292.73149  22347328.2574   22347334.0124
  21922986.396     1022879.40949    917030.09049  21922985.6434   21922991.9734
 96 12  4 18 59  0.0020000  0  6 22 29  1 25 14 15
  24041160.867    -8364674.37349  -6506255.24149  24041158.8524   24041168.0624
  22226629.317    -8676700.58549  -6755813.99749  22226628.8454   22226634.4774
  25189800.722    18210854.58749  14178305.58749  25189800.1644   25189808.6444
  21995084.121     2722089.60349   2126296.96249  21995084.2004   21995089.4374
  22335949.806   -14347711.66149 -10733886.49749  22335949.3644   22335955.9114
  21935612.341     1089229.37149    968731.33149  21935611.7624   21935617.9074
 96 12  4 18 59 30.0020000  0  6 22 29  1 25 14 15
  24026302.321    -8442755.69749  -6567097.85149  24026300.8384   24026310.8864
  22222362.210    -8699123.98949  -6773286.77649  22222361.8694   22222367.3854
  25206362.225    18297887.17849  14246123.11649  25206362.4384   25206371.3104
  22007190.493     2785708.69749   2175870.26849  22007190.1794   22007195.5064
  22324614.439   -14407279.35249 -10780302.87549  22324614.6014   22324620.4154
  21948339.001     1156109.00149   1020845.31249  21948337.9824   21948344.8614
 96 12  4 19  0  0.0020000  0  6 22 29  1 25 14 15
  24011463.533    -8520733.43949  -6627859.73649  24011462.7604   24011471.9014
  22218123.249    -8721399.65949  -6790644.43849  22218123.1934   22218128.4254
  25222920.763    18384902.03449  14313926.81549  25222920.9654   25222929.2664
  22019370.697     2849716.36049   2225746.35449  22019370.8374   22019375.9734
  22313321.862   -14466622.76749 -10826544.50149  22313321.5994   22313328.1244
  21961164.569     1223508.13849   1073364.11749  21961163.7634   21961170.7414
 96 12  4 19  0 30.0020000  0  6 22 29  1 25 14 15
  23996645.897    -8598601.62549  -6688536.23649  23996645.9684   23996653.5804
  22213910.498    -8743537.66349  -6807894.82149  22213910.1504   22213915.8464
  25239475.576    18471897.02349  14381715.03749  25239475.5954   25239484.2884
  22031622.766     2914100.59849   2275915.87249  22031622.7254   22031627.8204
  22302071.364   -14525744.49549 -10872613.37249  22302071.0774   22302077.6034
  21974087.926     1291420.81249   1126283.06749  21974086.8564   21974093.9864
 96 12  4 19  1  0.0020000  0  6 22 29  1 25 14 15
  23981852.929    -8676340.75449  -6749112.18049  23981852.3794   23981859.6264
  22209725.002    -8765531.71649  -6825033.03949  22209724.4484   22209730.3104
  25256026.896    18558874.21249  14449489.38549  25256026.0874   25256035.0084
  22043946.370     2978861.43149   2326378.84949  22043946.5934   22043951.3544
  22290864.927   -14584635.15349 -10918502.19649  22290864.5064   22290870.5984
  21987109.670     1359850.79149   1179605.11249  21987109.3314   21987115.7414
 96 12  4 19  1 30.0020000  0  6 22 29  1 25 14 15
  23967091.061    -8753916.11049  -6809560.49149  23967090.8684   23967096.9194
  22205571.478    -8787357.68049  -6842040.27649  22205571.6934   22205577.3184
  25272579.218    18645857.73349  14517268.66249  25272578.9784   25272586.8054
  22056343.694     3044009.51849   2377143.57849  22056343.3714   22056348.6564
  22279704.607   -14643283.00449 -10964201.82149  22279704.6414   22279710.4184
  22000233.172     1428814.61349   1233343.14249  22000232.4764   22000238.7374
 96 12  4 19  2  0.0020000  0  6 22 29  1 25 14 15
  23952357.378    -8831343.30849  -6869893.36349  23952356.6994   23952362.7594
  22201447.091    -8809032.08049  -6858929.41649  22201447.3884   22201452.6634
  25289128.382    18732823.75449  14585034.30549  25289128.2114   25289137.4934
  22068809.926     3109519.72949   2428190.47949  22068810.2114   22068814.5274
  22268583.248   -14701726.73849 -11009742.39649  22268583.4204   22268589.1314
  22013451.161     1498275.40349   1287468.42049  22013450.3254   22013457.0514
 96 12  4 19  2 30.0020000  0  6 22 29  1 25 14 15
  23937655.781    -8908602.28449  -6930095.13249  23937655.4164   23937661.3094
  22197353.018    -8830547.20949  -6875694.43049  22197352.5534   22197358.5524
  25305673.160    18819765.83949  14652781.31149  25305672.3184   25305680.9194
  22081347.420     3175404.43949   2479529.19749  22081346.9324   22081352.3544
  22257501.258   -14759963.71349 -11055121.84649  22257500.8134   22257507.1954
  22026763.325     1568230.80149   1341979.09349  22026762.9094   22026769.5564
 96 12  4 19  3  0.0020000  0  6 22 29  1 25 14 15
  23922989.478    -8985675.69049  -6990152.30449  23922990.2584   23922994.6964
  22193295.134    -8851870.84049  -6892310.24749  22193294.4424   22193300.7904
  25322216.664    18906701.32349  14720523.17649  25322215.6454   25322222.9364
  22093958.387     3241675.67749   2531169.09949  22093958.2714   22093963.1774
  22246464.733   -14817960.97549 -11100314.52049  22246464.7334   22246471.0114
  22040172.545     1638696.40749   1396887.33849  22040172.2064   22040178.9334
 96 12  4 19  3 30.0020000  0  6 22 29  1 25 14 15
  23908357.437    -9062569.30449  -7050069.40749  23908356.8194   23908362.4944
  22189274.762    -8872997.19349  -6908772.34349  22189274.2554   22189279.9284
  25338758.956    18993631.65749  14788261.03649  25338756.5144   25338767.0614
  22106645.097     3308345.50149   2583119.60049  22106644.7384   22106650.2494
  22235475.504   -14875709.78649 -11145313.59049  22235475.0914   22235481.4824
  22053679.025     1709672.68149   1452193.50849  22053678.1864   22053685.0764
 96 12  4 19  4  0.0020000  0  6 22 29  1 25 14 15
  23893755.250    -9139304.44249  -7109863.01049  23893754.2884   23893760.3444
  22185286.393    -8893956.17949  -6925104.01049  22185286.8064   22185291.7794
  25355293.182    19080521.65049  14855967.46849  25355290.7874   25355302.7124
  22119406.024     3375404.93149   2635373.67849  22119405.5844   22119411.2014
  22224529.972   -14933229.07349 -11190133.82149  22224530.2384   22224535.8784
  22067278.687     1781140.10349   1507882.37049  22067277.8214   22067284.5624
 96 12  4 19  4 30.0020000  0  6 22 29  1 25 14 15
  23879181.853    -9215887.92949  -7169538.47349  23879178.3494   23879186.3204
  22181331.940    -8914737.96749  -6941297.62249  22181332.3334   22181337.2194
  25371822.988    19167387.81349  14923655.29949  25371823.4724   25371831.3404
  22132244.216     3442869.95449   2687943.79849  22132243.9564   22132249.3514
  22213630.711   -14990505.61249 -11234764.89849  22213630.8034   22213636.7364
  22080974.858     1853113.53849   1563965.53649  22080973.9904   22080980.7894
 96 12  4 19  5  0.0020000  0  6 22 29  1 25 14 15
  23864632.156    -9292345.22149  -7229115.58249  23864628.9114   23864637.5824
  22177406.399    -8935367.30749  -6957372.43149  22177406.4614   22177411.8514
  25388347.200    19254223.77349  14991319.59849  25388347.0734   25388356.9084
  22145156.631     3510725.24649   2740818.02949  22145156.4374   22145161.7674
  22202774.720   -15047554.74849 -11279218.77649  22202774.7794   22202780.4994
  22094764.608     1925579.50849   1620432.50249  22094764.1134   22094770.7064
 96 12  4 19  5 30.0020000  0  6 22 29  1 25 14 15
  23850111.690    -9368647.49049  -7288571.90749  23850109.3334   23850116.8744
  22173512.581    -8955829.80649  -6973317.25149  22173512.7574   22173518.0854
  25404871.409    19341058.95749  15058983.30949  25404872.4434   25404880.1424
  22158148.555     3578998.16149   2794017.67449  22158148.7534   22158153.7704
  22191961.820   -15104377.00549 -11323495.87049  22191961.5054   22191967.7654
  22108651.880     1998556.80749   1677297.90349  22108651.7594   22108657.9894
 96 12  4 19  6  0.0020000  0  6 22 29  1 25 14 15
  23835613.307    -9444835.10649  -7347938.90749  23835611.6394   23835617.6434
  22169640.325    -8976179.06849  -6989173.83249  22169640.4274   22169645.7714
  25421386.667    19427846.55449  15126609.89549  25421386.1514   25421395.2174
  22171206.884     3647619.25549   2847488.63949  22171206.9934   22171211.7624
  22181181.675   -15161027.30349 -11367638.95449  22181181.4484   22181186.9994
  22122626.142     2071991.72849   1734519.89349  22122625.5954   22122632.3744
 96 12  4 19  6 30.0020000  0  6 22 29  1 25 14 15
  23821147.120    -9520854.82549  -7407175.05749  23821146.8634   23821151.2724
  22165799.736    -8996362.37049  -7004901.08749  22165799.9064   22165804.9204
  25437903.609    19514643.30049  15194243.76249  25437903.2164   25437912.7884
  22184338.953     3716628.61749   2901262.14549  22184339.1024   22184344.1274
  22170445.255   -15217447.40549 -11411602.67249  22170445.2204   22170450.7714
  22136695.865     2145928.30249   1792132.78749  22136695.6054   22136702.5604
 96 12  4 19  7  0.0020000  0  6 22 29  1 25 14 15
  23806716.082    -9596690.61449  -7466267.88549  23806715.4844   23806720.2764
  22161989.693    -9016384.49149  -7020502.74849  22161989.5444   22161994.7054
  25454421.183    19601442.48649  15261879.32849  25454421.9004   25454427.5934
  22197541.731     3786009.07249   2955324.80949  22197541.3624   22197546.6374
  22159753.642   -15273632.62549 -11455383.37549  22159753.1224   22159759.1044
  22150859.243     2220356.19549   1850128.52049  22150858.6404   22150865.2334
 96 12  4 19  7 30.0020000  0  6 22 29  1 25 14 15
  23792324.415    -9672320.89449  -7525200.57549  23792325.5064   23792329.6314
  22158214.160    -9036224.86849  -7035962.79349  22158213.6884   22158218.9884
  25470942.019    19688258.84849  15329528.41149  25470942.4434   25470949.3924
  22210816.951     3855771.22649   3009684.91149  22210816.8314   22210821.8204
  22149110.752   -15329561.11449 -11498964.01549  22149110.2204   22149116.3954
  22165117.674     2295284.64049   1908514.29649  22165116.9494   22165123.3584
 96 12  4 19  8  0.0020000  0  6 22 29  1 25 14 15
  23777964.148    -9747786.24349  -7584004.75449  23777964.2784   23777969.2854
  22154464.225    -9055930.27349  -7051317.66049  22154464.0344   22154469.4754
  25487456.954    19775044.22649  15397153.30949  25487457.5604   25487459.4794
  22224155.812     3925867.17849   3064305.11849  22224155.8274   22224160.2584
  22138513.439   -15385250.28149 -11542358.17149  22138512.9764   22138519.0994
  22179464.113     2370675.52749   1967260.41149  22179463.5174   22179469.8054
 96 12  4 19  8 30.0020000  0  6 22 29  1 25 14 15
  23763641.150    -9823054.88049  -7642655.64949  23763640.2844   23763647.1634
  22150748.541    -9075456.78649  -7066533.13749  22150748.5564   22150753.8674
  25503973.619    19861839.29149  15464785.78249  25503973.6964   25503981.9324
  22237563.581     3996324.78449   3119207.14149  22237563.4754   22237568.3114
  22127969.354   -15440659.80649 -11585534.41949  22127968.9164   22127975.2844
  22193904.464     2446560.15549   2026391.25949  22193903.7404   22193910.5884
 96 12  4 19  9  0.0020000  0  6 22 29  1 25 14 15
  23749349.979    -9898155.85949  -7701175.91249  23749348.6084   23749356.4494
  22147063.030    -9094824.62849  -7081624.96849  22147062.9974   22147067.8734
  25520487.142    19948618.45549  15532405.72949  25520487.9444   25520494.5094
  22251034.982     4067116.92049   3174369.82649  22251035.0994   22251039.6194
  22117472.111   -15495823.01449 -11628518.74349  22117471.6834   22117477.9144
  22208434.222     2522913.98849   2085887.72149  22208433.5114   22208439.9764
 96 12  4 19  9 30.0020000  0  6 22 29  1 25 14 15
  23735092.967    -9973076.65049  -7759555.74549  23735091.5584   23735100.2334
  22143409.717    -9114022.70049  -7096584.50849  22143409.3074   22143414.6534
  25536998.167    20035383.81349  15600015.10749  25536997.4554   25537006.0634
  22264574.214     4138266.10749   3229810.74349  22264574.0564   22264579.0144
  22107023.749   -15550729.64549 -11671303.12049  22107023.5864   22107029.4304
  22223055.742     2599751.13949   2145760.79049  22223054.7794   22223061.3254
 96 12  4 19 10  0.0020000  0  6 22 29  1 25 14 15
  23720871.311   -10047810.22049  -7817789.70349  23720869.3144   23720878.5084
  22139786.947    -9133059.75649  -7111418.57749  22139786.6754   22139791.6984
  25553504.162    20122122.56049  15667603.62049  25553505.4664   25553512.3464
  22278180.252     4209766.20749   3285525.09049  22278180.2274   22278185.1394
  22096623.668   -15605382.40849 -11713889.68349  22096623.1864   22096629.3454
  22237767.705     2677063.45649   2206004.12449  22237767.0344   22237773.2304
 96 12  4 19 10 30.0020000  0  6 22 29  1 25 14 15
  23706688.080   -10122341.24849  -7875865.82049  23706686.5224   23706695.6954
  22136198.324    -9151918.22949  -7126113.49249  22136198.3094   22136203.4724
  25570006.508    20208842.52549  15735177.60449  25570004.7544   25570013.3894
  22291856.725     4281636.15249   3341527.62149  22291856.3994   22291861.7314
  22086273.580   -15659772.03449 -11756271.20349  22086272.6724   22086279.0434
  22252571.081     2754856.36549   2266621.95349  22252570.2164   22252576.8404
 96 12  4 19 11  0.0020000  0  6 22 29  1 25 14 15
  23692542.968   -10196673.22949  -7933786.82849  23692541.9844   23692549.9094
  22132640.261    -9170616.57749  -7140683.63349  22132640.2824   22132645.3024
  25586503.150    20295533.87449  15802729.16749  25586501.0144   25586510.4874
  22305603.965     4353878.69049   3397820.49349  22305603.9824   22305609.1954
  22075973.951   -15713896.23349 -11798445.89149  22075973.9614   22075980.3044
  22267463.186     2833115.54949   2327603.10249  22267462.6764   22267468.9794
 96 12  4 19 11 30.0020000  0  5 22 29 25 14 15
  23678436.596   -10270801.64649  -7991549.20149  23678435.9404   23678444.5014
  22129112.569    -9189154.61749  -7155128.86449  22129112.5044   22129117.6924
  22319421.826     4426491.55249   3454401.93949  22319421.5964   22319426.5224
  22065727.884   -15767740.51649 -11840402.47649  22065727.6254   22065733.7914
  22282443.272     2911835.93849   2388943.63049  22282442.7364   22282449.2034
 96 12  4 19 12  0.0020000  0  5 22 29 25 14 15
  23664374.229   -10344699.87749  -8049132.17349  23664373.0954   23664382.7684
  22125620.010    -9207507.63849  -7169429.92349  22125619.6224   22125624.5474
  22333312.952     4499490.03749   3511283.87149  22333312.8694   22333317.8324
  22055541.565   -15821270.36249 -11882114.03349  22055541.4564   22055547.4304
  22297515.369     2991039.68449   2450660.80849  22297514.7724   22297521.2174
 96 12  4 19 12 30.0020000  0  5 22 29 25 14 15
  23650352.217   -10418385.68849  -8106549.61349  23650351.1434   23650360.2084
  22122162.222    -9225678.20449  -7183588.80549  22122162.0864   22122166.9204
  22347274.532     4572858.33449   3568453.95149  22347273.8144   22347279.4244
  22045412.794   -15874496.91549 -11923589.26849  22045412.2194   22045418.5474
  22312676.295     3070710.26849   2512741.75649  22312675.9364   22312682.2644
 96 12  4 19 13  0.0020000  0  5 22 29 25 14 15
  23636372.325   -10491851.29549  -8163795.47549  23636370.6214   23636380.3234
  22118739.350    -9243665.64349  -7197604.98749  22118738.9364   22118744.4174
  22361305.434     4646591.75749   3625908.55349  22361304.9414   22361310.4004
  22035340.196   -15927428.34349 -11964834.51849  22035339.6124   22035346.0604
  22327924.375     3150838.53149   2575179.34649  22327924.3404   22327929.7854
 96 12  4 19 13 30.0020000  0  5 22 29 25 14 15
  23622432.737   -10565104.11749  -8220875.51549  23622431.8314   23622440.0294
  22115347.193    -9261491.33849  -7211495.14549  22115346.8744   22115352.4874
  22375402.752     4720673.55949   3683634.61749  22375402.3814   22375407.5604
  22025318.898   -15980089.87849 -12005869.47149  22025318.4494   22025324.6754
  22343257.481     3231413.87149   2637965.29949  22343256.7454   22343262.9984
 96 12  4 19 14  0.0020000  0  5 22 29 25 14 15
  23608538.257   -10638120.58049  -8277771.39049  23608537.6194   23608544.9264
  22111988.291    -9279142.39749  -7225249.21249  22111988.2094   22111993.6804
  22389567.109     4795107.62049   3741635.17149  22389566.9754   22389571.5954
  22015351.598   -16032468.08049 -12046683.63749  22015351.2194   22015357.5364
  22358677.641     3312447.22949   2701108.13749  22358676.9904   22358683.8334
 96 12  4 19 14 30.0020000  0  5 22 29 25 14 15
  23594686.237   -10710913.51149  -8334493.05349  23594685.7094   23594691.9624
  22108660.097    -9296631.69149  -7238877.23149  22108660.0634   22108664.9844
  22403795.459     4869877.79649   3799897.63249  22403795.4254   22403800.4004
  22005434.949   -16084580.69549 -12087290.85849  22005434.7454   22005441.1444
  22374181.332     3393919.48849   2764592.98149  22374180.4274   22374186.8674
 96 12  4 19 15  0.0020000  0  5 22 29 25 14 15
  23580876.629   -10783483.18249  -8391040.77049  23580876.4594   23580882.5364
  22105360.035    -9313973.77649  -7252390.54049  22105359.5284   22105364.9814
  22418086.366     4944977.14749   3858416.59349  22418086.2324   22418090.7804
  21995567.770   -16136433.00149 -12127695.24649  21995567.2864   21995573.8744
  22389769.047     3475833.57949   2828422.10449  22389767.7164   22389774.3384
 96 12  4 19 15 30.0020000  0  5 22 29 25 14 15
  23567108.840   -10855833.55749  -8447417.61249  23567107.9514   23567115.3564
  22102086.838    -9331174.47749  -7265793.67949  22102086.7244   22102092.1624
  22432438.606     5020399.29449   3917187.09049  22432438.4664   22432443.4254
  21985754.189   -16188003.17349 -12167879.78049  21985753.6094   21985760.6264
  22405442.523     3558198.51749   2892602.54949  22405441.8554   22405448.0164
 96 12  4 19 16  0.0020000  0  5 22 29 25 14 15
  23553382.836   -10927964.24049  -8503623.25249  23553381.1744   23553389.1684
  22098840.683    -9348232.85149  -7279085.91449  22098840.4214   22098845.7614
  22446851.184     5096138.10249   3976204.32849  22446850.8394   22446855.4954
  21975994.539   -16239289.55249 -12207843.19049  21975994.7654   21976001.5104
  22421198.748     3640997.22949   2957120.99249  22421197.8084   22421204.1104
 96 12  4 19 16 30.0020000  0  5 22 29 25 14 15
  23539696.299   -10999887.05849  -8559666.91349  23539694.5094   23539702.3864
  22095620.203    -9365156.84549  -7292273.44249  22095620.3804   22095625.5264
  22461324.728     5172197.22749   4035471.17249  22461324.9084   22461329.2564
  21966287.385   -16290302.03949 -12247593.17249  21966287.6654   21966293.6574
  22437035.466     3724219.96849   3021969.84949  22437034.2544   22437041.1874
 96 12  4 19 17  0.0020000  0  5 22 29 25 14 15
  23526050.926   -11071593.03349  -8615541.61249  23526050.5344   23526058.0074
  22092426.286    -9381941.51049  -7305352.40149  22092425.9124   22092431.1394
  22475858.699     5248573.37549   4094985.02949  22475858.2774   22475863.0954
  21956633.935   -16341032.10349 -12287123.09449  21956633.8694   21956639.5814
  22452953.334     3807869.13849   3087150.99149  22452952.8744   22452959.1674
 96 12  4 19 17 30.0020000  0  5 22 29 25 14 15
  23512453.538   -11143046.12049  -8671219.27149  23512452.3984   23512460.5244
  22089264.739    -9398555.18049  -7318298.10849  22089264.1814   22089269.9974
  22490457.047     5325288.52949   4154763.05249  22490457.0614   22490461.8304
  21947039.071   -16391453.91649 -12326412.81349  21947038.9814   21947044.6344
  22468954.531     3891956.14549   3152673.29649  22468953.5174   22468960.0654
 96 12  4 19 18  0.0020000  0  5 22 29 25 14 15
  23498907.333   -11214229.98949  -8726687.13649  23498904.3874   23498914.7504
  22086137.889    -9414986.55249  -7331101.78049  22086137.6154   22086142.9674
  22505119.577     5402340.08649   4214803.20549  22505119.3704   22505124.6654
  21937499.899   -16441582.75449 -12365474.23249  21937499.4954   21937505.5244
  22485038.151     3976476.26449   3218533.09449  22485037.6224   22485043.7684
 96 12  4 19 18 30.0020000  0  5 22 29 25 14 15
  23485409.238   -11285161.31349  -8781958.21649  23485407.9404   23485417.3994
  22083043.071    -9431249.19349  -7343773.95349  22083043.2174   22083048.0954
  22519840.465     5479698.94249   4275082.81949  22519840.0494   22519845.3574
  21928013.501   -16491434.15949 -12404319.47749  21928013.2524   21928019.2694
  22501201.631     4061415.96549   3284719.85049  22501200.7834   22501207.6914
 96 12  4 19 19  0.0020000  0  5 22 29 25 14 15
  23471965.366   -11355808.05849  -8837007.57849  23471965.8164   23471974.2594
  22079983.756    -9447326.70549  -7356301.87449  22079984.2554   22079989.0444
  22534622.112     5557377.51549   4335611.55649  22534622.3064   22534627.3804
  21918582.186   -16540996.27649 -12442939.29949  21918581.7224   21918588.3174
  22517446.838     4146786.18549   3351242.06449  22517446.5964   22517453.1814
 96 12  4 19 19 30.0030000  0  5 22 29 25 14 15
  23758370.720   -11426158.53749  -8891826.06649  23758370.9224   23758378.7334
  22376752.498    -9463217.57749  -7368684.36349  22376752.1974   22376757.2784
  22849260.648     5635393.36149   4396403.10549  22849260.3664   22849265.6524
  22208999.605   -16590262.05349 -12481328.20549  22208999.0404   22209005.8794
  22833567.545     4232591.82149   3418103.57549  22833566.4114   22833573.5834
 96 12  4 19 20  0.0030000  0  5 22 29 25 14 15
  23745035.745   -11496235.68249  -8946431.53149  23745033.9654   23745043.3274
  22373760.697    -9478939.47749  -7380935.19049  22373760.6884   22373765.4304
  22864167.613     5713730.00049   4457444.61649  22864167.6064   22864172.1914
  22199679.641   -16639238.88949 -12519491.96549  22199679.1524   22199685.7444
  22849976.232     4318820.39549   3485294.63549  22849976.0014   22849982.4394
 96 12  4 19 20 30.0030000  0  5 22 29 25 14 15
  23731749.493   -11566055.95749  -9000836.89649  23731750.8514   23731755.5114
  22370798.156    -9494508.14049  -7393066.60249  22370797.6594   22370803.0254
  22879133.756     5792377.05449   4518728.02049  22879133.6954   22879138.8564
  22190411.670   -16687942.23749 -12557442.61449  22190411.3984   22190417.8424
  22866462.183     4405453.75349   3552801.11749  22866461.6184   22866468.5704
 96 12  4 19 21  0.0030000  0  5 22 29 25 14 15
  23718511.685   -11635622.30649  -9055044.41749  23718512.2564   23718517.4454
  22367860.979    -9509942.71849  -7405093.54149  22367860.7124   22367865.9154
  22894159.183     5871336.28549   4580254.68749  22894159.0244   22894164.1324
  22181195.675   -16736372.36749 -12595180.36749  22181195.1184   22181201.7004
  22883023.776     4492486.02649   3620618.45349  22883022.9334   22883030.0244
 96 12  4 19 21 30.0030000  0  5 22 29 25 14 15
  23705320.451   -11704943.89749  -9109061.18449  23705318.5094   23705325.8644
  22364948.789    -9525246.25249  -7417018.37049  22364949.2184   22364954.0484
  22909240.585     5950589.29749   4642010.26749  22909241.0424   22909245.8184
  22172035.200   -16784510.38749 -12632690.50549  22172034.6604   22172041.2214
  22899661.480     4579917.81349   3688747.09249  22899660.6954   22899667.6444
 96 12  4 19 22  0.0030000  0  5 22 29 25 14 15
  23692177.410   -11774010.93749  -9162879.60749  23692176.3584   23692183.2164
  22362065.118    -9540401.11649  -7428827.34949  22362065.0644   22362070.2634
  22924378.182     6030137.52049   4703995.87849  22924378.3434   22924383.6364
  22162934.964   -16832332.03049 -12669954.11249  22162934.7004   22162941.0474
  22916375.988     4667752.96749   3757190.04349  22916375.2644   22916381.8974
 96 12  4 19 22 30.0030000  0  5 22 29 25 14 15
  23679082.000   -11842827.88349  -9216503.17149  23679082.0534   23679086.5204
  22359207.094    -9555419.96849  -7440530.34249  22359206.9334   22359212.3314
  22939571.773     6109980.06349   4766210.82149  22939571.5854   22939577.2664
  22153896.629   -16879828.77449 -12706964.55249  22153896.6464   22153902.7374
  22933164.739     4755978.46849   3825937.15549  22933164.0914   22933170.9034
 96 12  4 19 23  0.0030000  0  5 22 29 25 14 15
  23666036.433   -11911383.16649  -9269922.83749  23666035.8644   23666041.4564
  22356378.957    -9570281.16549  -7452110.49049  22356378.5414   22356384.1464
  22954823.023     6190125.62049   4828661.88549  22954822.8374   22954827.8594
  22144927.916   -16926960.12849 -12743690.26849  22144927.4864   22144933.5914
  22950030.532     4844608.87049   3894999.78349  22950030.0554   22950036.9934
 96 12  4 19 23 30.0030000  0  5 22 29 25 14 15
  23653040.385   -11979677.94249  -9323139.50849  23653040.0414   23653045.7894
  22353583.936    -9584968.74749  -7463555.34849  22353583.6364   22353588.9334
  22970131.460     6270572.13849   4891347.45049  22970131.1094   22970136.6884
  22136028.194   -16973728.51949 -12780133.15849  22136028.0274   22136033.9394
  22966971.326     4933632.01049   3964368.43349  22966970.9074   22966978.1854
 96 12  4 19 24  0.0030000  0  5 22 29 25 14 15
  23640096.435   -12047699.43849  -9376143.24749  23640095.0034   23640102.5814
  22350823.621    -9599473.71649  -7474857.91149  22350823.4474   22350829.0044
  22985502.831     6351349.72849   4954291.00549  22985502.3384   22985508.5894
  22127197.333   -17020135.51749 -12816294.45249  22127196.9204   22127202.7374
  22983986.921     5023049.36249   4034044.27249  22983986.5874   22983993.3694
 96 12  4 19 24 30.0020000  0  5 22 29 25 14 15
  23327412.310   -12115444.96349  -9428931.93349  23327411.1994   23327419.1214
  22048304.123    -9613804.65649  -7486024.86749  22048304.2274   22048309.1254
  22701142.337     6432445.61049   5017482.56749  22701141.8774   22701147.6254
  21818637.926   -17066205.80649 -12852193.36549  21818637.6314   21818644.1284
  22701283.692     5112853.78349   4104021.70949  22701283.1094   22701290.2294
 96 12  4 19 25  0.0020000  0  5 22 29 25 14 15
  23314576.204   -12182898.94749  -9481493.45549  23314574.8964   23314582.4894
  22045610.610    -9627959.62049  -7497054.69749  22045610.5914   22045615.6684
  22716634.009     6513854.69749   5080918.20049  22716633.7424   22716638.6744
  21809932.316   -17111954.30549 -12887841.53549  21809932.0484   21809938.4654
  22718447.094     5203047.18349   4174302.24349  22718446.7974   22718453.3004
 96 12  4 19 25 30.0020000  0  5 22 29 25 14 15
  23301800.276   -12250036.15149  -9533808.13149  23301798.3114   23301806.8064
  22042950.150    -9641940.49049  -7507948.87749  22042950.1134   22042955.2614
  22732187.770     6595590.21149   5144608.18349  22732187.5744   22732193.1164
  21801289.006   -17157375.14449 -12923234.38849  21801288.5524   21801294.9934
  22735685.897     5293637.24849   4244891.86849  22735685.2534   22735691.8264
 96 12  4 19 26  0.0020000  0  5 22 29 25 14 15
  23289080.875   -12316876.30849  -9585891.34349  23289080.2454   23289087.4514
  22040313.776    -9655794.55149  -7518744.23149  22040313.2594   22040318.6574
  22747794.333     6677603.17649   5208514.35849  22747793.7804   22747799.6804
  21792701.883   -17202500.40849 -12958396.92149  21792701.5674   21792707.7414
  22752994.183     5384593.83249   4315767.10749  22752993.3504   22753000.0394
 96 12  4 19 26 30.0030000  0  5 22 29 25 14 15
  23276421.686   -12383401.13749  -9637728.84149  23276420.8494   23276427.1194
  22037701.587    -9669521.06949  -7529440.20649  22037701.2874   22037706.7424
  22763450.359     6759875.26449   5272622.44549  22763450.2314   22763455.4934
  21784171.850   -17247326.05049 -12993325.98149  21784171.1824   21784177.5374
  22770374.245     5475926.54949   4386935.43549  22770373.6684   22770380.1674
 96 12  4 19 27  0.0030000  0  5 22 29 25 14 15
  23263825.213   -12449596.27349  -9689309.44649  23263823.7804   23263830.2864
  22035113.461    -9683121.29849  -7540037.77149  22035113.2694   22035118.7614
  22779155.289     6842405.36849   5336931.59349  22779155.1594   22779160.3064
  21775701.713   -17291836.20949 -13028009.21349  21775701.2364   21775707.7984
  22787825.068     5567630.82749   4458393.28349  22787825.5174   22787830.4824
 96 12  4 19 27 30.0030000  0  5 22 29 25 14 15
  23251292.536   -12515455.64549  -9740628.42549  23251292.1554   23251297.6794
  22032552.448    -9696579.99049  -7550525.04849  22032552.4114   22032557.9944
  22794910.282     6925199.06449   5401446.12649  22794909.7924   22794915.6214
  21767294.542   -17336015.87549 -13062434.91449  21767293.9464   21767300.8154
  22805348.514     5659715.61649   4530147.63849  22805348.8664   22805353.9884
 96 12  4 19 28  0.0030000  0  5 22 29 25 14 15
  23238823.645   -12580979.67049  -9791686.08049  23238822.1384   23238829.5704
  22030020.327    -9709886.31749  -7560893.60449  22030019.8854   22030025.8744
  22810715.335     7008255.60349   5466165.46849  22810714.7914   22810720.6894
  21758948.464   -17379874.39149 -13096610.37149  21758948.4434   21758955.2874
  22822943.706     5752177.58849   4602195.89949  22822943.5654   22822949.3104
 96 12  4 19 28 30.0030000  0  5 22 29 25 14 15
  23226416.842   -12646177.86549  -9842489.84549  23226416.5164   23226421.6144
  22027519.682    -9723026.09849  -7571132.39049  22027519.3164   22027525.1634
  22826573.985     7091593.92949   5531104.38949  22826573.6024   22826579.3554
  21750665.280   -17423403.58949 -13130529.21649  21750665.3284   21750671.7034
  22840609.439     5845011.24749   4674533.79849  22840608.1164   22840615.1064
 96 12  4 19 29  0.0030000  0  5 22 29 25 14 15
  23214067.892   -12711071.59849  -9893056.38149  23214066.5964   23214073.4954
  22025050.163    -9736002.99949  -7581244.25849  22025050.2554   22025055.6574
  22842487.765     7175221.83849   5596268.97849  22842487.5454   22842493.2024
  21742445.324   -17466599.84149 -13164188.62849  21742445.2884   21742451.4424
  22858342.245     5938199.07249   4747147.62949  22858341.1104   22858348.2244
 96 12  4 19 29 30.0030000  0  5 22 29 25 14 15
  23201775.508   -12775668.47049  -9943391.59949  23201775.2554   23201781.6504
  22022612.958    -9748810.23149  -7591223.90649  22022612.9124   22022618.3264
  22858457.445     7259143.59949   5661662.53349  22858457.1294   22858462.6944
  21734290.651   -17509453.13049 -13197580.79349  21734290.1844   21734296.6194
  22876141.487     6031735.56049   4820033.19049  22876140.6574   22876148.1164
 96 12  4 19 30  0.0030000  0  5 22 29 25 14 15
  23189542.975   -12839951.32649  -9993482.12649  23189541.6844   23189549.4244
  22020208.377    -9761446.38649  -7601070.25649  22020208.5474   22020213.7184
  22874486.938     7343378.96749   5727300.45849  22874486.8524   22874492.7114
  21726205.171   -17551942.40049 -13230689.31849  21726204.7814   21726211.1954
  22894008.105     6125625.67949   4893194.28649  22894007.5984   22894014.5634
 96 12  4 19 30 30.0030000  0  5 22 29 25 14 15
  23177372.321   -12903908.78149 -10043319.10049  23177371.7294   23177378.4504
  22017836.458    -9773911.46249  -7610783.30049  22017836.5594   22017841.6954
  22890575.998     7427927.18849   5793182.16749  22890575.8444   22890581.5004
  21718193.392   -17594044.30249 -13263495.98449  21718193.0684   21718199.5024
  22911942.902     6219873.27749   4966633.94849  22911942.1724   22911949.3774
 96 12  4 19 31  0.0030000  0  5 22 29 25 14 15
  23165265.167   -12967532.58849 -10092896.06949  23165263.9514   23165271.3804
  22015495.892    -9786210.99449  -7620367.34749  22015495.8994   22015501.4454
  22906721.052     7512770.38549   5859293.72249  22906721.1674   22906726.9254
  21710254.957   -17635760.91249 -13296002.42849  21710254.6534   21710260.6584
  22929945.715     6314478.82249   5040352.52749  22929945.1594   22929952.2164
 96 12  4 19 31 30.0030000  0  6 22 16 29 25 14 15
  23153220.458   -13030827.67449 -10142216.91049  23153219.0704   23153227.6674
  25595185.120     -190197.95949                  25595185.222    25595193.8814
  22013184.662    -9798356.93249  -7629831.71849  22013184.7994   22013190.0174
  22922916.952     7597880.14949   5925612.98649  22922916.9454   22922922.8174
  21702385.392   -17677115.65849 -13328226.90149  21702385.0714   21702391.3104
  22948014.292     6409430.36849   5114340.72849  22948013.8914   22948020.9344
 96 12  4 19 32  0.0030000  0  6 22 16 29 25 14 15
  23141240.381   -13093782.99949 -10191272.94549  23141239.8734   23141246.9664
  25578458.946    -1427696.75949   -258688.44349  25578457.9124   25578466.6714
  22010902.421    -9810350.43249  -7639177.29749  22010902.4794   22010907.9014
  22939162.561     7683250.76449   5992135.52049  22939162.9084   22939168.1254
  21694585.775   -17718102.69249 -13360164.83649  21694585.7914   21694591.8844
  22966149.548     6504731.39549   5188601.23749  22966149.0864   22966155.7844
 96 12  4 19 32 30.0030000  0  6 22 16 29 25 14 15
  23129321.011   -13156420.24949 -10240081.15449  23129319.5854   23129326.5424
  25561734.923    -1515581.84049   -327170.27949  25561734.5894   25561743.3174
  22008648.172    -9822197.09549  -7648408.46149  22008647.9504   22008653.3874
  22955454.032     7768862.56149   6058845.99549  22955454.0204   22955460.0984
  21686852.519   -17758741.69449 -13391831.58849  21686852.4644   21686858.2834
  22984348.668     6600366.90749   5263122.39949  22984348.6474   22984355.3044
 96 12  4 19 33  0.0030000  0  6 22 16 29 25 14 15
  23117464.791   -13218724.72649 -10288630.06249  23117463.2134   23117469.7204
  25545014.139    -1603448.36749   -395637.71049  25545014.1754   25545021.3874
  22006423.190    -9833889.26649  -7657519.24549  22006423.2804   22006428.7474
  22971793.093     7854724.87449   6125751.66449  22971793.0394   22971798.7054
  21679186.686   -17799026.35049 -13423222.22749  21679186.9814   21679192.5154
  23002612.148     6696341.29949   5337907.61149  23002611.5534   23002618.7894
 96 12  4 19 33 30.0030000  0  6 22 16 29 25 14 15
  23105673.595   -13280687.28949 -10336912.52349  23105672.6464   23105679.5504
  25528294.899    -1691307.75549   -464099.53149  25528293.3404   25528303.7814
  22004226.875    -9845431.74049  -7666513.38449  22004227.1814   22004232.1234
  22988180.514     7940841.27249   6192855.34849  22988181.0434   22988186.4204
  21671590.968   -17838942.28649 -13454325.55249  21671590.5704   21671596.6484
  23020938.504     6792647.04649   5412951.03149  23020937.7164   23020944.5864
 96 12  4 19 34  0.0030000  0  6 22 16 29 25 14 15
  23093952.442   -13342283.31649 -10384909.37649  23093951.8104   23093957.6704
  25511579.217    -1779149.33549   -532547.37349  25511577.6624   25511586.9694
  22002060.442    -9856817.03249  -7675385.03649  22002060.3114   22002065.6094
  23004617.153     8027216.09449   6260160.38849  23004617.1654   23004623.0224
  21664070.640   -17878461.25249 -13485119.54549  21664070.6964   21664076.5524
  23039329.149     6889290.73049   5488257.77249  23039328.5754   23039335.4564
 96 12  4 19 34 30.0030000  0  6 22 16 29 25 14 15
  23082299.349   -13403520.92049 -10432626.95749  23082298.5174   23082304.2334
  25494863.283    -1866992.43149   -600996.39049  25494864.7424   25494872.7764
  21999920.396    -9868062.90149  -7684148.04849  21999920.3624   21999925.2514
  23021097.225     8113819.26249   6327643.37649  23021097.1764   23021102.7254
  21656619.141   -17917619.37849 -13515632.36849  21656619.2344   21656625.1164
  23057779.573     6986247.94049   5563808.81649  23057778.3124   23057785.4394
 96 12  4 19 35  0.0030000  0  6 22 16 29 25 14 15
  23070718.504   -13464378.67049 -10480048.52549  23070717.3854   23070723.8424
  25478148.286    -1954828.44249   -669439.96549  25478148.4054   25478159.3364
  21997810.565    -9879150.66349  -7692787.86849  21997810.4234   21997815.3404
  23037620.513     8200649.08949   6395302.96649  23037620.9874   23037625.7444
  21649238.372   -17956405.71249 -13545855.47849  21649238.3144   21649244.3834
  23076290.914     7083526.31049   5639610.12949  23076290.4074   23076297.0054
 96 12  4 19 35 30.0030000  0  6 22 16 29 25 14 15
  23059208.269   -13524864.73749 -10527180.47949  23059206.7934   23059214.1524
  25461432.642    -2042672.62149   -737889.88449  25461433.2674   25461442.0724
  21995731.401    -9890076.70749  -7701301.66249  21995731.1524   21995736.1734
  23054183.992     8287690.40149   6463127.33649  23054183.9814   23054189.3194
  21641925.457   -17994835.59749 -13575800.83849  21641925.1774   21641931.0944
  23094860.897     7181112.34649   5715651.18549  23094860.1514   23094866.9034
 96 12  4 19 36  0.0030000  0  6 22 16 29 25 14 15
  23047770.167   -13584972.06149 -10574017.30949  23047769.4114   23047775.9784
  25444717.210    -2130513.03149   -806336.87849  25444717.3194   25444726.7124
  21993686.825    -9900820.48749  -7709673.42749  21993686.6884   21993691.6364
  23070790.523     8374958.03149   6531128.07549  23070790.4444   23070796.0554
  21634678.758   -18032917.33849 -13605474.91949  21634678.5044   21634684.6644
  23113491.865     7279018.55449   5791941.71249  23113491.4134   23113497.9774
 96 12  4 19 36 30.0030000  0  6 22 16 29 25 14 15
  23036400.379   -13644720.36349 -10620574.38949  23036398.9734   23036406.5474
  25428000.991    -2218357.34849   -874786.93749  25428000.7114   25428010.2304
  21991676.903    -9911383.03549  -7717903.98149  21991676.7894   21991681.9234
  23087442.053     8462462.57749   6599313.42249  23087442.5964   23087447.2704
  21627497.935   -18070653.35149 -13634879.60249  21627497.7854   21627503.5494
  23132182.125     7377236.91449   5868475.47249  23132181.7944   23132188.6134
 96 12  4 19 37  0.0030000  0  6 22 16 29 25 14 15
  23025098.771   -13704110.63749 -10666852.48949  23025097.5174   23025104.8434
  25411285.358    -2306201.63549   -943236.98149  25411285.3934   25411293.0964
  21989703.006    -9921755.66749  -7725986.54749  21989702.5964   21989707.5744
  23104142.575     8550223.88549   6667698.83849  23104142.2954   23104147.6874
  21620390.486   -18108003.22549 -13663983.39649  21620390.3654   21620395.9644
  23150932.643     7475772.09849   5945256.11349  23150932.2534   23150939.3524
 96 12  4 19 37 30.0030000  0  6 22 16 29 25 14 15
  23013864.198   -13763148.41849 -10712855.90649  23013862.8244   23013870.5054
  25394568.796    -2394046.66949  -1011687.57949  25394568.1864   25394574.8354
  21987760.629    -9931962.12149  -7733939.61549  21987760.3304   21987765.5464
  23120892.908     8638246.65349   6736287.99349  23120893.1394   23120897.6884
  21613356.197   -18144968.51449 -13692787.51349  21613356.0054   21613361.6494
  23169741.925     7574615.01949   6022276.56049  23169741.4124   23169748.7974
 96 12  4 19 38  0.0030000  0  6 22 16 29 25 14 15
  23002692.885   -13821853.15649 -10758599.81649  23002691.5684   23002699.2194
  25377851.521    -2481893.54049  -1080139.63049  25377849.9004   25377858.6984
  21985842.802    -9942040.44449  -7741792.85549  21985842.8884   21985847.8974
  23137690.580     8726518.12849   6805070.94949  23137690.5704   23137695.5204
  21606393.647   -18181557.09149 -13721298.09249  21606393.3254   21606399.4904
  23188606.333     7673748.08649   6099523.07749  23188605.8224   23188613.2784
 96 12  4 19 38 30.0030000  0  6 22 16 29 25 14 15
  22991591.167   -13880192.89149 -10804059.31949  22991589.8944   22991596.8094
  25361142.573    -2569699.73549  -1148559.98949  25361141.5974   25361150.8254
  21983953.833    -9951967.34349  -7749528.09249  21983953.4464   21983958.6504
  23154540.481     8815065.44349   6874068.83649  23154539.8964   23154546.0244
  21599509.397   -18217733.97349 -13749487.86349  21599508.9814   21599515.1544
  23207530.134     7773193.67149   6177013.12249  23207528.9324   23207536.3874
 96 12  4 19 39  0.0030000  0  6 22 16 29 25 14 15
  22980559.007   -13938166.73849 -10849233.72349  22980557.3514   22980564.8344
  25344443.591    -2657455.18949  -1216940.78949  25344442.4384   25344448.2954
  21982091.639    -9961752.82049  -7757153.13149  21982091.2854   21982096.9354
  23171441.473     8903881.21849   6943275.90249  23171440.4864   23171446.3884
  21592700.184   -18253516.27149 -13777370.17149  21592699.8854   21592705.7694
  23226511.530     7872942.27949   6254739.29349  23226510.6814   23226518.5174
 96 12  4 19 39 30.0030000  0  6 22 16 29 25 14 15
  22969597.449   -13995769.37949 -10894118.87449  22969595.7704   22969603.8434
  25327752.787    -2745167.37149  -1285287.92749  25327752.5424   25327759.6134
  21980253.288    -9971413.42049  -7764680.85849  21980253.0774   21980258.5144
  23188388.924     8992941.14949   7012673.22049  23188388.6534   23188394.7914
  21585958.729   -18288942.62649 -13804975.11349  21585958.1524   21585964.5214
  23245547.144     7972975.27549   6332687.05549  23245546.8134   23245553.6494
 96 12  4 19 40  0.0030000  0  7 18 22 16 29 25 14 15
  25460815.896                                    25460827.956    25460833.6354
  22958708.491   -14052991.09649 -10938707.19349  22958707.6674   22958715.4644
  25311070.582    -2832831.60249  -1353597.62349  25311069.4814   25311075.8774
  21978440.973    -9980936.51649  -7772101.44249  21978440.3824   21978446.4294
  23205381.014     9082234.84649   7082252.69849  23205380.3794   23205386.6194
  21579286.740   -18324003.44949 -13832295.22149  21579286.5114   21579292.6624
  23264637.097     8073293.10949   6410856.78149  23264636.3374   23264643.4014
 96 12  4 19 40 30.0030000  0  7 18 22 16 29 25 14 15
  25447957.735     -172565.66159                  25447952.859    25447970.9464
  22947895.435   -14109814.52049 -10982985.16249  22947895.2034   22947901.3294
  25294396.560    -2920452.87849  -1421873.84249  25294395.3544   25294402.3454
  21976659.392    -9990298.08949  -7779396.17749  21976659.4654   21976665.0224
  23222416.804     9171758.56649   7152011.40249  23222416.7454   23222422.4824
  21572688.697   -18358676.22949 -13859312.96749  21572688.5284   21572694.7774
  23283782.119     8173901.45449   6489252.88049  23283781.0844   23283788.2374
 96 12  4 19 41  0.0030000  0  7 18 22 16 29 25 14 15
  25435095.274                                    25435094.640    25435106.7814
  22937158.079   -14166240.32749 -11026953.28849  22937157.5364   22937162.9374
  25277726.359    -3008054.75749  -1490134.91749  25277724.7654   25277732.4444
  21974906.728    -9999508.55749  -7786573.15449  21974906.6094   21974912.3834
  23239489.833     9261477.72849   7221922.41249  23239489.6564   23239495.5074
  21566164.142   -18392963.14049 -13886030.02849  21566163.9654   21566169.7964
  23302979.958     8274787.08449   6567865.05349  23302979.5534   23302987.4774
 96 12  4 19 41 30.0030000  0  7 18 22 16 29 25 14 15
  25422231.111     -373096.62259   -277905.59659  25422233.3344   25422241.9754
  22926496.439   -14222267.85749 -11070611.08249  22926495.5374   22926501.7484
  25261056.555    -3095653.69249  -1558393.74149  25261056.3354   25261062.4254
  21973181.529   -10008574.48949  -7793637.51549  21973181.5734   21973186.8024
  23256594.024     9351361.37249   7291961.58849  23256593.5654   23256599.5164
  21559713.312   -18426862.45149 -13912445.06949  21559712.7614   21559719.0304
  23322229.331     8375942.83549   6646687.68549  23322228.8374   23322235.9224
 96 12  4 19 42  0.0030000  0  7 18 22 16 29 25 14 15
  25409375.361     -440661.30249   -330553.43249  25409378.6234   25409383.6224
  22915908.639   -14277906.28349 -11113965.68449  22915907.6774   22915914.1594
  25244389.751    -3183237.87049  -1626641.02649  25244388.9534   25244396.4494
  21971485.865   -10017485.30549  -7800581.00149  21971485.4974   21971491.1854
  23273732.542     9441425.51549   7362141.41049  23273732.0114   23273738.4194
  21553340.456   -18460351.61549 -13938540.51549  21553340.3734   21553346.6734
  23341531.251     8477374.65649   6725725.45749  23341531.4844   23341537.6494
 96 12  4 19 42 30.0030000  0  7 18 22 16 29 25 14 15
  25396527.230     -508185.39949   -383169.60149  25396530.8384   25396536.1054
  22905394.576   -14333157.40149 -11157018.47649  22905393.4764   22905400.8064
  25227726.577    -3270804.08349  -1694874.32649  25227725.2594   25227731.8504
  21969818.763   -10026245.54449  -7807407.15749  21969818.7114   21969824.1564
  23290907.743     9531683.14349   7432472.00749  23290907.8104   23290913.9844
  21547046.109   -18493428.67249 -13964314.84149  21547046.1704   21547052.3874
  23360884.594     8579076.96149   6804973.99149  23360883.8974   23360891.5874
 96 12  4 19 43  0.0030000  0  7 18 22 16 29 25 14 15
  25383685.900     -575677.19449   -435760.49849  25383687.6694   25383694.6874
  22894954.667   -14388018.77049 -11199767.58049  22894953.3244   22894961.1194
  25211068.035    -3358345.04149  -1763087.93249  25211068.8504   25211074.2624
  21968178.016   -10034867.46649  -7814125.52749  21968178.1574   21968183.6664
  23308121.240     9622140.56849   7502958.28349  23308121.2334   23308127.5554
  21540827.833   -18526106.08449 -13989777.75449  21540827.7554   21540833.9334
  23380287.488     8681039.89449   6884425.61149  23380286.7644   23380294.8464
 96 12  4 19 43 30.0030000  0  7 18 22 16 29 25 14 15
  25370847.719     -643147.57349   -488334.77049  25370850.3764   25370856.6544
  22884588.774   -14442491.57049 -11242213.90749  22884587.9994   22884595.4744
  25194415.001    -3445859.54649  -1831280.98649  25194414.7804   25194421.2034
  21966563.493   -10043352.03449  -7820736.87249  21966563.2054   21966569.3124
  23325376.205     9712815.58349   7573614.11749  23325376.3284   23325382.4364
  21534684.363   -18558390.65549 -14014934.55649  21534684.3784   21534690.6584
  23399738.535     8783256.71249   6964075.03849  23399738.1684   23399746.8964
 96 12  4 19 44  0.0030000  0  7 18 22 16 29 25 14 15
  25358013.836     -710595.02049   -540891.16349  25358012.7534   25358022.8054
  22874300.851   -14496555.37449 -11284341.52249  22874300.0224   22874307.2634
  25177769.753    -3533331.92249  -1899441.23149  25177768.7134   25177775.1384
  21964976.999   -10051688.76949  -7827233.02449  21964976.7634   21964982.5654
  23342676.251     9803727.02749   7644454.18649  23342676.9014   23342682.2704
  21528618.066   -18590269.79949 -14039775.43549  21528618.1384   21528623.9444
  23419238.520     8885729.15249   7043923.65449  23419238.1094   23419246.3624
 96 12  4 19 44 30.0030000  0  7 18 22 16 29 25 14 15
  25345182.098     -778016.96349   -593427.73649  25345177.5294   25345194.7094
  22864095.949   -14550182.42249 -11326128.81949  22864094.6374   22864102.7994
  25161131.670    -3620764.44249  -1967570.37949  25161130.2924   25161139.3874
  21963419.723   -10059871.34649  -7833609.05649  21963419.1614   21963425.2424
  23360017.986     9894858.08149   7715465.37549  23360018.3664   23360024.0804
  21522630.473   -18621734.83049 -14064293.63949  21522630.0834   21522636.1564
  23438787.933     8988461.61449   7123974.88949  23438787.9654   23438795.2384
 96 12  4 19 45  0.0030000  0  6 22 16 29 25 14 15
  22853972.061   -14603383.50349 -11367584.17849  22853970.8554   22853979.1234
  25144497.904    -3708174.01849  -2035681.67549  25144497.6274   25144506.1334
  21961891.388   -10067902.01849  -7839866.71649  21961891.2994   21961896.8024
  23377395.691     9986178.32949   7786623.98249  23377395.8664   23377401.6224
  21516717.591   -18652806.50549 -14088505.32849  21516717.0074   21516723.5354
  23458384.061     9091439.16949   7204217.11349  23458383.7194   23458391.1344
 96 12  4 19 45 30.0030000  0  6 22 16 29 25 14 15
  22843929.122   -14656160.27149 -11408708.90249  22843928.5274   22843935.6714
  25127868.013    -3795562.93249  -2103776.83949  25127864.9314   25127875.9774
  21960393.799   -10075771.83149  -7845999.03049  21960393.9564   21960399.5384
  23394809.314    10077686.63849   7857929.14549  23394808.8614   23394814.3484
  21510880.336   -18683481.37049 -14112407.80749  21510880.0784   21510886.1024
  23478026.498     9194660.12749   7284649.00549  23478025.7314   23478033.3164
 96 12  4 19 46  0.0030000  0  6 22 16 29 25 14 15
  22833969.858   -14708497.62449 -11449491.23049  22833969.3624   22833976.1664
  25111246.216    -3882907.99549  -2171837.84049  25111244.8274   25111255.1764
  21958928.788   -10083470.63349  -7851998.08249  21958928.6004   21958934.6844
  23412260.417    10169392.51349   7929388.24149  23412260.6794   23412265.7774
  21505123.918   -18713731.69949 -14135979.48749  21505123.4934   21505129.8644
  23497717.494     9298137.38049   7365280.59849  23497716.3094   23497723.5404
 96 12  4 19 46 30.0030000  0  6 22 16 29 25 14 15
  22824087.627   -14760428.94549 -11489957.17649  22824086.2244   22824093.2524
  25094628.186    -3970232.19749  -2239882.60949  25094626.9714   25094637.0794
  21957494.349   -10091008.17549  -7857871.48249  21957494.5134   21957500.4464
  23429747.842    10261288.93649   8000995.80149  23429747.6034   23429752.8854
  21499444.957   -18743574.44849 -14159233.57049  21499444.6144   21499450.9944
  23517453.877     9401853.38649   7446098.24849  23517453.0864   23517460.0154
 96 12  4 19 47  0.0030000  0  7 18 22 16 29 25 14 15
  25281067.883                                    25281069.760    25281068.0494
  22814280.624   -14811964.17649 -11530114.47049  22814279.1134   22814286.3494
  25078018.172    -4057517.82649  -2307897.32549  25078017.4204   25078027.4364
  21956090.044   -10098388.31849  -7863622.24349  21956090.3454   21956096.1944
  23447276.554    10353403.02049   8072772.98149  23447276.1984   23447281.5054
  21493842.588   -18773015.14949 -14182174.37149  21493842.6924   21493848.7314
  23537235.439     9505806.63549   7527100.75349  23537233.9324   23537242.0854
 96 12  4 19 47 30.0030000  0  7 18 22 16 29 25 14 15
  25268258.386                                    25268259.568    25268228.5714
  22804552.205   -14863086.46749 -11569949.99349  22804551.0584   22804559.1794
  25061418.525    -4144749.70149  -2375870.18349  25061418.0314   25061427.4324
  21954715.651   -10105611.08749  -7869250.36449  21954715.8564   21954721.7574
  23464848.666    10445745.33149   8144728.01449  23464848.8634   23464853.6344
  21488319.968   -18802037.19449 -14204788.94449  21488320.0364   21488326.1454
  23557063.119     9610002.30249   7608292.14649  23557061.6664   23557070.0804
 96 12  4 19 48  0.0030000  0  7 18 22 16 29 25 14 15
  25255448.489                                    25255454.772    25255456.8264
  22794902.075   -14913797.43449 -11609465.01149  22794900.3194   22794908.1654
  25044831.618    -4231914.90649  -2443791.09249  25044831.3844   25044840.0034
  21953371.582   -10112674.81049  -7874754.55849  21953371.8874   21953377.3254
  23482460.667    10538297.45949   8216846.51849  23482460.1714   23482465.2744
  21482878.735   -18830630.94249 -14227069.78349  21482878.5334   21482884.5584
  23576936.341     9714437.84549   7689670.44449  23576935.2674   23576943.0804
 96 12  4 19 48 30.0030000  0  7 18 22 16 29 25 14 15
  25242651.771     -192776.55859                  25242647.369    25242657.3864
  22785328.180   -14964107.70549 -11648667.78549  22785327.1364   22785333.6534
  25028255.792    -4319021.61649  -2511666.40249  25028255.2594   25028264.5714
  21952057.249   -10119582.39349  -7880137.08349  21952057.4474   21952062.5364
  23500109.402    10631042.71349   8289115.52549  23500109.8524   23500115.1754
  21477517.035   -18858806.61449 -14249024.84149  21477516.7154   21477522.9174
  23596853.193     9819100.91549   7771226.05749  23596853.2084   23596860.4334
 96 12  4 19 49  0.0030000  0  7 18 22 16 29 25 14 15
  25229855.980     -326496.21559   -245159.67249  25229856.9334   25229865.7734
  22775837.145   -15013983.13749 -11687531.72649  22775836.3374   22775843.1314
  25011695.355    -4406047.75149  -2579478.93649  25011694.0054   25011703.3964
  21950773.903   -10126326.82049  -7885392.47849  21950774.0054   21950779.4034
  23517794.368    10723976.99249   8361531.82649  23517793.9804   23517799.1654
  21472238.542   -18886545.31949 -14270639.41449  21472237.9994   21472244.5974
  23616814.637     9923999.01049   7852964.80149  23616814.4404   23616822.2614
 96 12  4 19 49 30.0030000  0  7 18 22 16 29 25 14 15
  25217069.686     -393693.04849   -297520.73649  25217070.6654   25217079.1654
  22766430.068   -15063417.79649 -11726052.19549  22766429.3294   22766435.0384
  24995148.743    -4493001.39549  -2647234.96449  24995148.3394   24995157.8424
  21949522.360   -10132903.90249  -7890517.47049  21949522.3724   21949528.0004
  23535510.520    10817075.43449   8434076.04149  23535510.4854   23535515.4834
  21467045.715   -18913833.01549 -14291902.54949  21467045.4744   21467052.1924
  23636819.481    10029124.31049   7934880.57949  23636819.2914   23636826.7034
 96 12  4 19 50  0.0030000  0  7 18 22 16 29 25 14 15
  25204287.820     -460866.87149   -349863.89049  25204291.6224   25204294.2604
  22757107.796   -15112407.40649 -11764225.87549  22757107.0134   22757113.6654
  24978616.575    -4579879.26649  -2714931.96249  24978615.8644   24978625.0394
  21948301.762   -10139318.44749  -7895515.81549  21948301.6774   21948307.5764
  23553257.140    10910335.54349   8506746.21749  23553256.8504   23553262.5844
  21461937.817   -18940674.95149 -14312818.34149  21461937.7304   21461944.1984
  23656867.185    10134475.01949   8016972.01049  23656867.2824   23656874.2584
 96 12  4 19 50 30.0030000  0  7 18 22 16 29 25 14 15
  25191511.545     -528015.99049   -402187.75749  25191512.2194   25191515.0424
  22747871.200   -15160946.54349 -11802048.53749  22747870.7374   22747877.1394
  24962095.649    -4666697.23049  -2782582.24049  24962095.3814   24962103.8394
  21947109.298   -10145584.67549  -7900398.58849  21947109.4024   21947114.8054
  23571036.372    11003766.06149   8579549.18749  23571035.8914   23571041.8744
  21456912.604   -18967083.16249 -14333396.16949  21456912.7884   21456918.8244
  23676955.905    10240041.02849   8099231.21349  23676955.7454   23676962.4514
 96 12  4 19 51  0.0030000  0  7 18 22 16 29 25 14 15
  25178734.489     -595159.90749   -454507.61449  25178732.5164   25178738.7774
  22738721.208   -15209030.82949 -11839516.76549  22738720.6214   22738726.6184
  24945586.845    -4753454.06049  -2850184.89649  24945585.6904   24945593.3804
  21945943.964   -10151709.08049  -7905170.85149  21945944.1694   21945949.2524
  23588847.476    11097363.83949   8652482.49549  23588846.7414   23588852.2304
  21451969.433   -18993060.32449 -14353638.10949  21451969.2114   21451975.4294
  23697084.189    10345814.57349   8181652.13449  23697083.7804   23697091.0714
 96 12  4 19 51 30.0030000  0  7 18 22 16 29 25 14 15
  25165962.251     -662275.35949   -506805.25149  25165959.8884   25165966.1194
  22729659.427   -15256650.74549 -11876623.16149  22729658.3754   22729665.9014
  24929091.871    -4840136.70449  -2917729.75449  24929091.4994   24929098.1124
  21944808.661   -10157675.73949  -7909820.19249  21944808.8254   21944813.8844
  23606693.491    11191145.58249   8725559.16449  23606693.1764   23606699.1314
  21447110.284   -19018595.46549 -14373535.61449  21447110.2354   21447116.4244
  23717254.563    10451810.92049   8264246.62949  23717253.9674   23717261.2854
 96 12  4 19 52  0.0030000  0  7 18 22 16 29 25 14 15
  25153194.536     -729368.08449   -559085.30149  25153192.4474   25153197.7684
  22720684.020   -15303816.71449 -11913375.81949  22720683.2484   22720690.1354
  24912607.793    -4926762.67949  -2985230.45049  24912608.1904   24912613.2694
  21943699.755   -10163503.49649  -7914361.29949  21943699.6534   21943704.8934
  23624573.657    11285105.90049   8798774.96349  23624573.7284   23624579.0154
  21442330.941   -19043711.36549 -14393106.44249  21442330.7634   21442336.9304
  23737463.671    10558010.97749   8346999.86449  23737462.4374   23737471.4344
 96 12  4 19 52 30.0030000  0  7 18 22 16 29 25 14 15
  25140435.110     -796416.03749   -611330.46649  25140432.6514   25140439.6384
  22711795.430   -15350526.58749 -11949773.10049  22711793.9824   22711800.7724
  24896135.276    -5013329.83349  -3052685.31249  24896135.3144   24896140.6144
  21942621.120   -10169171.94849  -7918778.26849  21942621.2394   21942626.3184
  23642490.425    11379258.74049   8872140.79349  23642490.1054   23642495.7324
  21437634.745   -19068390.27849 -14412336.76849  21437634.5144   21437640.6004
  23757713.269    10664422.71949   8429918.06549  23757713.2974   23757720.6614
 96 12  4 19 53  0.0030000  0  7 18 22 16 29 25 14 15
  25127681.632     -863432.39249   -663550.96849  25127681.5184   25127688.2654
  22702991.397   -15396791.37149 -11985823.53649  22702989.7074   22702997.1264
  24879671.700    -5099847.61049  -3120101.71249  24879671.3424   24879677.0174
  21941570.690   -10174692.52349  -7923080.01449  21941570.6174   21941575.9294
  23660438.810    11473578.73149   8945636.86849  23660438.4994   23660444.8414
  21433020.124   -19092640.08349 -14431232.71649  21433019.7794   21433026.2974
  23778000.913    10771033.58449   8512991.43349  23778000.4334   23778007.1784
 96 12  4 19 53 30.0030000  0  7 18 22 16 29 25 14 15
  25114939.318     -930391.87749   -715727.15049  25114939.3494   25114947.5714
  22694274.715   -15442596.53449 -12021515.83249  22694273.2124   22694280.6494
  24863217.825    -5186313.02649  -3187477.31749  24863216.5134   24863222.1254
  21940550.716   -10180052.59049  -7927256.67949  21940550.6034   21940555.6884
  23678419.527    11568068.77349   9019265.45849  23678419.3014   23678425.9904
  21428488.491   -19116453.47749 -14449788.61049  21428487.9964   21428494.6224
  23798327.469    10877850.64949   8596225.47649  23798326.8414   23798333.9114
 96 12  4 19 54  0.0030000  0  7 18 22 16 29 25 14 15
  25102207.337     -997300.87049   -767863.93949  25102207.9434   25102215.6474
  22685643.843   -15487951.21749 -12056857.10649  22685642.6664   22685649.7794
  24846774.615    -5272721.83249  -3254808.80649  24846773.4374   24846778.8664
  21939560.379   -10185256.86849  -7931311.95649  21939560.1494   21939565.2114
  23696430.053    11662714.24249   9093015.14849  23696429.9334   23696436.7054
  21424040.081   -19139829.49249 -14468003.69049  21424039.7064   21424046.0454
  23818690.743    10984860.84649   8679609.99249  23818689.7644   23818697.8984
 96 12  4 19 54 30.0030000  0  7 18 22 16 29 25 14 15
  25089483.421    -1064164.07349   -819965.09249  25089481.3634   25089490.1244
  22677098.652   -15532855.57849 -12091847.47449  22677097.5324   22677105.0994
  24830346.804    -5359049.13749  -3322076.77349  24830344.3004   24830352.6174
  21938600.044   -10190303.15149  -7935244.11649  21938600.0334   21938604.7784
  23714469.526    11757511.81849   9166883.36549  23714469.5844   23714476.3014
  21419677.281   -19162755.67749 -14485868.24249  21419677.0364   21419683.4574
  23839091.423    11092066.41449   8763146.75549  23839090.0414   23839097.6904
 96 12  4 19 55  0.0030000  0  7 18 22 16 29 25 14 15
  25076764.703    -1130997.89349   -872043.28949  25076760.9004   25076771.5914
  22668642.541   -15577292.72449 -12126473.77349  22668642.4254   22668649.4064
  24813939.300    -5445269.20849  -3389261.17549  24813937.7384   24813945.2424
  21937668.929   -10195196.03649  -7939056.75349  21937668.6984   21937673.9774
  23732536.816    11852455.18149   9240865.18549  23732536.3374   23732543.6264
  21415400.650   -19185229.68149 -14503380.45449  21415400.8564   21415407.0444
  23859527.394    11199458.04549   8846828.51149  23859526.8634   23859534.3584
 96 12  4 19 55 30.0030000  0  7 18 22 16 29 25 14 15
  25064051.171    -1197795.57749   -924093.29849  25064046.4924   25064062.0914
  22660276.193   -15621258.31849 -12160732.64649  22660275.6384   22660282.8304
  24797556.548    -5531359.03049  -3456344.08949  24797554.9804   24797562.8994
  21936769.079   -10199924.38849  -7942741.17349  21936768.7514   21936774.1144
  23750633.831    11947556.17549   9314969.83049  23750633.5494   23750640.2444
  21411212.777   -19207237.31549 -14520529.25249  21411212.7864   21411218.7704
  23879998.931    11307036.59649   8930655.89749  23879998.4614   23880006.3904
 96 12  4 19 56  0.0030000  0  7 18 22 16 29 25 14 15
  25051342.058    -1264576.41749   -976130.28249  25051343.7764   25051351.3744
  22651998.775   -15664756.88749 -12194627.60749  22651998.6084   22652005.1684
  24781200.143    -5617311.61849  -3523320.05249  24781198.6634   24781206.4854
  21935899.377   -10204494.41149  -7946302.22549  21935899.3834   21935904.6544
  23768761.895    12042820.19849   9389201.51349  23768761.9684   23768767.8824
  21407115.118   -19228771.26249 -14537308.94849  21407115.1634   21407121.2574
  23900504.609    11414794.20349   9014622.79749  23900504.3254   23900511.2114
 96 12  4 19 56 30.0030000  0  7 18 22 16 29 25 14 15
  25038636.430    -1331348.51449  -1028160.36049  25038638.2714   25038646.0544
  22643812.735   -15707775.41949 -12228148.51449  22643812.0554   22643818.6214
  24764868.139    -5703135.89649  -3590196.06649  24764866.8094   24764874.6294
  21935060.561   -10208902.53449  -7949737.12449  21935060.4144   21935065.7034
  23786922.806    12138255.44549   9463566.62049  23786923.8154   23786928.8364
  21403107.959   -19249829.44449 -14553717.92349  21403107.8974   21403114.0394
  23921044.380    11522730.85649   9098729.23349  23921044.0664   23921051.0874
 96 12  4 19 57  0.0030000  0  7 18 22 16 29 25 14 15
  25025933.720    -1398106.56949  -1080179.55649  25025936.5754   25025943.3214
  22635721.854   -15750293.50349 -12261279.46649  22635720.8074   22635727.2174
  24748555.897    -5788855.50449  -3656990.50849  24748555.7314   24748562.4384
  21934254.141   -10213140.22549  -7953039.21849  21934253.7324   21934259.2284
  23805117.146    12233866.57849   9538068.79949  23805117.3504   23805122.8784
  21399192.312   -19270406.54949 -14569752.03249  21399192.0684   21399198.2774
  23941618.493    11630848.77149   9182976.91249  23941618.0734   23941624.9644
 96 12  4 19 57 30.0030000  0  7 18 22 16 29 25 14 15
  25013236.786    -1464834.10449  -1132174.95749  25013238.5054   25013243.3994
  22627725.556   -15792314.48049 -12294023.05749  22627725.1024   22627731.2844
  24732259.559    -5874493.43949  -3723721.29449  24732257.9044   24732266.3474
  21933481.019   -10217202.50849  -7956204.62649  21933480.8674   21933486.0044
  23823345.269    12329655.90949   9612709.84549  23823344.8224   23823350.3834
  21395369.098   -19290497.90749 -14585407.63749  21395369.0844   21395375.3414
  23962228.748    11739156.13049   9267372.21749  23962228.3544   23962235.0804
 96 12  4 19 58  0.0030000  0  7 18 22 16 29 25 14 15
  25000543.036    -1531542.35449  -1184155.32049  25000543.7344   25000550.4874
  22619821.850   -15833848.92749 -12326387.53949  22619821.1344   22619827.5464
  24715973.022    -5960079.55849  -3790411.71449  24715971.9194   24715979.5444
  21932736.355   -10221115.62549  -7959253.80349  21932736.2734   21932741.3274
  23841603.229    12425602.23149   9687473.19349  23841603.3214   23841608.7494
  21391631.634   -19310138.75349 -14600712.19049  21391631.3624   21391637.6274
  23982871.011    11847632.81949   9351899.45549  23982870.8044   23982878.2054
 96 12  4 19 58 30.0030000  0  7 18 22 16 29 25 14 15
  24987855.192    -1598218.54149  -1236110.74149  24987854.0594   24987861.5554
  22612012.911   -15874885.08849 -12358363.74249  22612011.9904   22612018.5784
  24699696.720    -6045610.68549  -3857059.27549  24699695.0774   24699702.9814
  21932019.070   -10224884.98349  -7962190.96149  21932019.1094   21932024.5824
  23859890.440    12521701.66449   9762355.85849  23859891.0514   23859895.4824
  21387978.522   -19329335.94849 -14615671.03749  21387977.7614   21387984.6414
  24003545.359    11956276.78849   9436557.05049  24003544.6424   24003553.3524
 96 12  4 19 59  0.0030000  0  7 18 22 16 29 25 14 15
  24975172.533    -1664865.31649  -1288043.23749  24975171.9684   24975176.7664
  22604297.258   -15915430.97149 -12389957.90649  22604296.4714   22604303.3884
  24683432.292    -6131079.20249  -3923658.07349  24683431.2464   24683439.0014
  21931326.036   -10228527.15049  -7965029.00449  21931325.9594   21931331.4754
  23878204.183    12617940.61449   9837347.25049  23878203.9634   23878209.4294
  21384408.187   -19348097.87449 -14630290.71649  21384407.6234   21384414.4494
  24024249.035    12065075.24149   9521335.01549  24024248.6394   24024256.4274
 96 12  4 19 59 30.0030000  0  7 18 22 16 29 25 14 15
  24962497.809    -1731471.51849  -1339944.11049  24962498.0924   24962504.0134
  22596674.901   -15955486.26849 -12421169.80649  22596673.7984   22596680.8894
  24667188.296    -6216441.81949  -3990174.33549  24667187.9514   24667196.0084
  21930659.577   -10232029.37449  -7967758.00249  21930659.5804   21930664.8524
  23896546.654    12714330.66749   9912456.36449  23896545.7164   23896552.1114
  21380922.248   -19366416.38549 -14644564.87749  21380921.7264   21380928.5124
  24044983.734    12174035.98149   9606239.43749  24044983.7844   24044991.4094
 96 12  4 20  0  0.0030000  0  7 18 22 16 29 25 14 15
  24949831.964    -1798028.88849  -1391806.89449  24949830.6624   24949839.1484
  22589150.766   -15995026.29549 -12451980.19449  22589150.1474   22589156.3154
  24650971.426    -6301661.99949  -4056579.61149  24650970.7384   24650978.1474
  21930024.350   -10235368.04449  -7970359.55749  21930024.2604   21930029.1424
  23914921.486    12810890.85149   9987698.06449  23914919.9954   23914928.0654
  21377525.190   -19384268.12249 -14658475.31649  21377524.8674   21377531.5334
  24065751.464    12283169.09849   9691278.18049  24065751.3674   24065759.9674
 96 12  4 20  0 30.0030000  0  7 18 22 16 29 25 14 15
  24937171.396    -1864561.56549  -1443650.45849  24937172.6754   24937178.4744
  22581723.208   -16034058.50949 -12482394.89649  22581722.4894   22581728.9064
  24634781.166    -6386741.28749  -4122875.10649  24634780.5364   24634788.2944
  21929421.899   -10238534.06849  -7972826.58049  21929421.8874   21929426.7234
  23933327.205    12907614.51549  10063067.10549  23933327.6124   23933333.2994
  21374219.541   -19401639.37149 -14672011.35349  21374219.3564   21374225.5894
  24086549.800    12392464.97649   9776443.75149  24086548.9894   24086556.8134
 96 12  4 20  1  0.0030000  0  7 18 22 16 29 25 14 15
  24924510.281    -1931096.52849  -1495495.79649  24924509.7414   24924518.2064
  22574384.838   -16072622.32349 -12512444.61149  22574384.1094   22574390.3854
  24618611.689    -6471712.77549  -4189086.61349  24618611.5904   24618619.1054
  21928851.142   -10241533.37649  -7975163.69449  21928851.2024   21928856.0264
  23951758.283    13004470.08349  10138538.97449  23951759.5424   23951765.1444
  21371001.308   -19418551.36349 -14685189.52449  21371001.0244   21371006.9684
  24107373.745    12501896.45549   9861714.98749  24107372.5134   24107381.6924
 96 12  4 20  1 30.0030000  0  7 18 22 16 29 25 14 15
  24911853.021    -1997611.17949  -1547325.27949  24911852.0244   24911861.3714
  22567136.280   -16110713.67349 -12542126.16649  22567135.1274   22567141.8954
  24602461.419    -6556583.11749  -4255219.30649  24602461.0214   24602469.7274
  21928315.980   -10244346.04149  -7977355.37449  21928315.9234   21928320.7804
  23970213.277    13101451.42149  10214108.81649  23970213.3274   23970219.0214
  21367872.817   -19434991.63849 -14698000.13349  21367872.6304   21367878.5624
  24128224.911    12611470.78049   9947097.52949  24128224.5484   24128232.1354
 96 12  4 20  2  0.0030000  0  7 18 22 16 29 25 14 15
  24899202.371    -2064088.79349  -1599125.97449  24899200.0624   24899211.3324
  22559983.052   -16148303.87149 -12571417.21249  22559982.0494   22559988.5144
  24586330.759    -6641349.76349  -4321271.17849  24586329.9684   24586338.3484
  21927820.098   -10246952.01949  -7979385.99349  21927820.1264   21927824.7344
  23988691.437    13198555.26049  10289774.12649  23988691.1854   23988697.7614
  21364838.186   -19450938.49949 -14710426.25949  21364837.7114   21364844.2684
  24149105.704    12721200.70049  10032601.32849  24149105.6024   24149113.6214
 96 12  4 20  2 30.0030000  0  7 18 22 16 29 25 14 15
  24886554.382    -2130546.92149  -1650911.45749  24886553.0784   24886564.3174
  22552920.580   -16185416.92149 -12600336.45549  22552919.7194   22552926.5384
  24570214.609    -6726040.62049  -4387264.01449  24570213.6054   24570221.8174
  21927358.229   -10249379.32149  -7981277.38449  21927358.3864   21927362.9094
  24007186.493    13295747.14549  10365508.00949  24007184.9324   24007192.8624
  21361892.720   -19466416.49749 -14722487.04149  21361892.5204   21361898.9434
  24170010.629    12831057.79749  10118204.21349  24170009.8004   24170017.9104
 96 12  4 20  3  0.0030000  0  7 18 22 16 29 25 14 15
  24873917.763    -2196951.24449  -1702655.07349  24873919.0144   24873927.9184
  22545954.702   -16222022.69849 -12628860.42749  22545953.7414   22545960.5774
  24554116.529    -6810636.46549  -4453182.80049  24554115.8594   24554124.0274
  21926932.149   -10251618.80649  -7983022.42849  21926932.0514   21926937.1544
  24025701.578    13393044.47349  10441324.09449  24025701.4934   24025707.3814
  21359040.477   -19481405.39149 -14734166.69549  21359040.5344   21359047.0074
  24190943.451    12941059.96649  10203920.14449  24190943.8284   24190950.4954
 96 12  4 20  3 30.0030000  0  7 18 22 16 29 25 14 15
  24861292.262    -2263301.36049  -1754356.41449  24861293.1054   24861300.4244
  22539090.288   -16258095.21749 -12656968.86949  22539089.1834   22539096.4114
  24538041.713    -6895110.30649  -4519006.50149  24538042.5474   24538048.5754
  21926539.977   -10253679.13849  -7984627.87749  21926539.2634   21926544.6974
  24044239.189    13490459.94649  10517232.22349  24044238.8904   24044244.5154
  21356284.836   -19495886.64949 -14745450.79049  21356284.6324   21356291.2154
  24211904.206    13051207.51249  10289749.35149  24211904.3274   24211910.6744
 96 12  4 20  4  0.0030000  0  7 18 22 16 29 25 14 15
  24848671.791    -2329624.42249  -1806036.66449  24848673.3114   24848679.1284
  22532328.784   -16293626.97949 -12684655.94349  22532327.8744   22532334.3964
  24521992.666    -6979449.86749  -4584725.61149  24521992.6784   24521999.6294
  21926179.396   -10255573.19349  -7986103.76349  21926178.9424   21926184.4764
  24062804.994    13588024.30049  10593256.37849  24062805.0974   24062810.7904
  21353625.133   -19509863.32649 -14756341.70549  21353624.7834   21353631.4454
  24232890.283    13161488.62049  10375682.62449  24232890.1594   24232896.5174
 96 12  4 20  4 30.0030000  0  7 18 22 16 29 25 14 15
  24836056.335    -2395923.02149  -1857697.85749  24836056.8164   24836061.3724
  22525668.443   -16328627.36349 -12711928.95149  22525667.5054   22525674.5404
  24505968.412    -7063658.54249  -4650342.71549  24505967.8124   24505975.0784
  21925848.628   -10257310.90949  -7987457.81849  21925848.5714   21925853.8274
  24081403.677    13685761.47049  10669415.20749  24081402.9924   24081409.1644
  21351059.688   -19523344.55449 -14766846.55749  21351059.1894   21351065.7474
  24253899.600    13271892.31149  10461711.42749  24253899.7054   24253906.9464
 96 12  4 20  5  0.0030000  0  7 18 22 16 29 25 14 15
  24823444.134    -2462202.68349  -1909344.33049  24823442.8984   24823448.9664
  22519108.887   -16363098.03349 -12738789.19649  22519108.2264   22519114.6014
  24489970.857    -7147727.13749  -4715850.66049  24489970.8264   24489977.1804
  21925547.164   -10258895.37249  -7988692.45349  21925547.3694   21925552.3534
  24100035.307    13783671.85249  10745708.98749  24100034.7034   24100040.5434
  21348588.575   -19536330.22549 -14776965.25449  21348588.0904   21348595.1244
  24274932.094    13382417.70349  10547835.05249  24274931.1354   24274940.0394
 96 12  4 20  5 30.0030000  0  7 18 22 16 29 25 14 15
  24810833.727    -2528469.22049  -1960980.51249  24810831.6494   24810837.7244
  22512648.341   -16397049.15949 -12765244.60449  22512648.0284   22512654.3714
  24474000.658    -7231651.96649  -4781246.59449  24473999.5034   24474007.7184
  21925275.640   -10260322.95449  -7989804.83949  21925275.6974   21925281.0604
  24118698.255    13881746.15949  10822130.49849  24118697.7434   24118703.5734
  21346209.669   -19548831.43349 -14786706.45849  21346209.4174   21346216.2814
  24295985.888    13493055.32149  10634046.14549  24295985.2594   24295993.6494
 96 12  4 20  6  0.0030000  0  7 18 22 16 29 25 14 15
  24798229.398    -2594701.01049  -2012589.66049  24798227.8044   24798235.7834
  22506287.334   -16430476.95949 -12791292.22649  22506286.2824   22506293.3604
  24458057.676    -7315432.30449  -4846529.92649  24458056.9894   24458063.6684
  21925037.785   -10261572.88749  -7990778.79749  21925037.2134   21925042.5924
  24137391.659    13979980.45649  10898676.68449  24137391.8414   24137396.2994
  21343921.825   -19560853.76649 -14796074.51149  21343921.2214   21343928.4554
  24317063.314    13603818.13549  10720354.76249  24317062.0184   24317071.3624
 96 12  4 20  6 30.0030000  0  7 18 22 16 29 25 14 15
  24785631.358    -2660901.92849  -2064174.71249  24785631.6344   24785640.2404
  22500021.671   -16463403.20049 -12816949.01949  22500020.5904   22500027.7574
  24442139.152    -7399083.86849  -4911712.92449  24442137.6504   24442145.1594
  21924828.002   -10262675.07149  -7991637.63449  21924827.7484   21924833.0284
  24156104.366    14078316.23049  10975301.97049  24156104.7074   24156110.8854
  21341722.204   -19572412.36349 -14805081.21349  21341721.7934   21341728.5484
  24338160.931    13714687.62649  10806746.52649  24338160.6924   24338168.1814
 96 12  4 20  7  0.0030000  0  7 18 22 16 29 25 14 15
  24773040.691    -2727069.78549  -2115733.97249  24773042.3604   24773048.1804
  22493853.572   -16495816.22049 -12842205.90749  22493852.9304   22493859.6884
  24426248.262    -7482589.91849  -4976782.52249  24426246.9414   24426254.6384
  21924645.944   -10263631.45449  -7992382.86549  21924645.8044   21924651.0694
  24174833.412    14176737.46349  11051993.81649  24174833.5514   24174839.0034
  21339615.189   -19583484.54749 -14813708.88849  21339614.7624   21339621.4814
  24359280.363    13825671.89949  10893227.71649  24359279.6324   24359288.3104
 96 12  4 20  7 30.0030000  0  7 18 22 16 29 25 14 15
  24760460.089    -2793184.68549  -2167251.98549  24760462.7684   24760466.2294
  22487786.200   -16527700.28749 -12867050.61949  22487785.1604   22487792.3884
  24410386.088    -7565945.94449  -5041735.20349  24410384.8624   24410393.2434
  21924493.237   -10264434.07649  -7993008.27249  21924493.2094   21924498.5774
  24193578.693    14275244.24249  11128752.35249  24193578.8544   24193584.5614
  21337602.966   -19594058.79149 -14821948.55649  21337602.9154   21337608.9984
  24380422.321    13936772.90249  10979799.87949  24380421.3264   24380429.5354
 96 12  4 20  8  0.0030000  0  7 18 22 16 29 25 14 15
  24747887.939    -2859254.27549  -2218734.64849  24747887.0144   24747892.6994
  22481820.414   -16559050.48249 -12891479.32449  22481819.4404   22481826.4714
  24394551.179    -7649158.17749  -5106575.85149  24394550.1844   24394558.4504
  21924366.900   -10265097.86349  -7993525.49649  21924366.5174   21924372.0444
  24212339.262    14373832.11749  11205574.05549  24212339.1164   24212344.8304
  21335686.794   -19604128.72349 -14829795.25149  21335686.7014   21335692.9054
  24401584.406    14047980.71149  11066455.26249  24401584.3354   24401590.6934
 96 12  4 20  8 30.0030000  0  7 18 22 16 29 25 14 15
  24735321.094    -2925289.34549  -2270190.49849  24735317.3164   24735326.4754
  22475954.216   -16589877.60349 -12915500.42949  22475953.2214   22475960.1354
  24378743.299    -7732228.43549  -5171305.88049  24378743.8974   24378750.2034
  21924266.019   -10265627.67049  -7993938.32449  21924265.6974   21924271.3174
  24231114.855    14472498.28449  11282456.78249  24231114.5784   24231120.8354
  21333866.956   -19613692.33649 -14837247.41449  21333866.6014   21333873.0854
  24422764.195    14159281.20249  11153182.86449  24422764.4024   24422770.9424
 96 12  4 20  9  0.0030000  0  7 18 22 16 29 25 14 15
  24722765.361    -2991263.96249  -2321599.21449  24722764.9464   24722773.2414
  22470192.116   -16620157.66449 -12939095.25549  22470191.1504   22470198.0624
  24362966.146    -7815137.46949  -5235910.26849  24362965.5204   24362972.7964
  21924201.183   -10265967.99749  -7994203.51349  21924200.8824   21924206.3824
  24249910.218    14571268.15249  11359420.28049  24249910.2464   24249917.3554
  21332145.097   -19622740.86549 -14844298.20749  21332145.1334   21332151.6724
  24443965.913    14270695.71249  11239999.31849  24443965.0354   24443971.9784
 96 12  4 20  9 30.0030000  0  7 18 22 16 29 25 14 15
  24710221.427    -3057183.34549  -2372964.87949  24710221.4804   24710230.9694
  22464531.428   -16649904.79149 -12962274.80649  22464530.4394   22464536.7354
  24347215.417    -7897907.71349  -5300406.51749  24347214.1244   24347222.7104
  21924171.146   -10266125.74249  -7994326.42849  21924170.9324   21924176.4124
  24268723.539    14670132.67849  11436457.56649  24268723.3024   24268730.2024
  21330514.625   -19631309.92549 -14850975.39449  21330514.5924   21330521.0114
  24465185.058    14382203.68549  11326888.58949  24465184.6754   24465191.4494
 96 12  4 20 10  0.0030000  0  7 18 22 16 29 25 14 15
  24697682.936    -3123076.49349  -2424310.10549  24697684.0994   24697692.4724
  22458967.504   -16679142.90149 -12985057.71649  22458966.9214   22458973.1054
  24331489.543    -7980547.54449  -5364801.13949  24331488.6314   24331496.5384
  21924173.955   -10266110.93249  -7994314.88349  21924173.9004   21924179.0374
  24287554.052    14769088.02249  11513565.61549  24287554.7664   24287561.2424
  21328970.509   -19639424.43849 -14857298.38649  21328969.8514   21328976.6864
  24486418.401    14493786.26449  11413836.01949  24486417.5964   24486425.5384
 96 12  4 20 10 30.0030000  0  7 18 22 16 29 25 14 15
  24685154.469    -3188915.60949  -2475613.21849  24685155.2934   24685162.7544
  22453504.607   -16707850.46949 -13007427.21149  22453503.8334   22453510.4164
  24315795.366    -8063019.88949  -5429065.23249  24315794.0164   24315801.8944
  21924217.555   -10265882.27549  -7994136.70349  21924217.4004   21924222.7904
  24306407.745    14868164.95349  11590768.39649  24306407.8444   24306414.5404
  21327518.913   -19647052.02149 -14863241.95249  21327518.4364   21327524.9644
  24507672.171    14605475.37849  11500866.42049  24507672.1624   24507679.2754
 96 12  4 20 11  0.0030000  0  7 18 22 16 29 25 14 15
  24672631.979    -3254721.46349  -2526890.43949  24672631.7924   24672638.4424
  22448143.956   -16736021.04949 -13029378.29249  22448143.4844   22448150.1194
  24300129.892    -8145340.65049  -5493211.20649  24300128.9014   24300137.4024
  21924297.600   -10265461.70349  -7993808.98549  21924297.1454   21924302.6664
  24325284.170    14967361.49749  11668064.39849  24325283.3774   24325290.9534
  21326160.185   -19654191.71849 -14868805.34949  21326159.8074   21326166.3724
  24528943.011    14717253.90949  11587966.52549  24528941.8674   24528950.0004
 96 12  4 20 11 30.0030000  0  7 18 22 16 29 25 14 15
  24660111.816    -3320514.36449  -2578157.52749  24660110.8704   24660117.0024
  22442885.613   -16763654.31249 -13050910.68549  22442884.6144   22442891.4354
  24284493.091    -8227512.92249  -5557241.48849  24284492.5964   24284499.6614
  21924408.095   -10264880.84849  -7993356.36749  21924407.9484   21924413.2764
  24344184.064    15066682.08449  11745457.04349  24344185.2914   24344190.0104
  21324897.233   -19660828.49649 -14873976.85749  21324897.0214   21324903.3914
  24550227.149    14829105.47349  11675123.52649  24550225.8124   24550235.0744
 96 12  4 20 12  0.0030000  0  7 18 22 16 29 25 14 15
  24647591.765    -3386305.93749  -2629423.57549  24647589.3794   24647596.5594
  22437729.389   -16790750.12449 -13072024.29149  22437727.7344   22437735.3334
  24268886.168    -8309528.16849  -5621149.41149  24268885.9404   24268893.0154
  21924550.421   -10264132.82149  -7992773.48149  21924550.0804   21924555.8234
  24363105.829    15166116.31849  11822938.25949  24363106.1834   24363111.6364
  21323733.807   -19666942.78049 -14878741.23349  21323733.7664   21323740.1114
  24571524.817    14941025.90049  11762334.17749  24571524.3284   24571532.1164
 96 12  4 20 12 30.0030000  0  7 18 22 16 29 25 14 15
  24635076.095    -3452076.30449  -2680673.10449  24635076.3424   24635082.2164
  22432680.591   -16817280.77549 -13092697.51149  22432679.1694   22432687.0024
  24253308.893    -8391388.38349  -5684936.54349  24253309.1734   24253315.9864
  21924726.269   -10263208.78349  -7992053.44449  21924726.3884   21924731.8044
  24382049.398    15265665.82549  11900509.29749  24382050.5484   24382054.3804
  21322673.469   -19672514.60049 -14883082.90449  21322672.8914   21322679.7724
  24592837.094    15053023.02849  11849604.60249  24592837.6534   24592845.8144
 96 12  4 20 13  0.0030000  0  7 18 22 16 29 25 14 15
  24622566.505    -3517813.25749  -2731896.59749  24622566.1224   24622574.0524
  22427742.272   -16843231.54549 -13112918.88049  22427741.1984   22427748.4204
  24237761.322    -8473091.67149  -5748601.39649  24237760.3184   24237768.2674
  21924933.766   -10262118.63649  -7991203.98149  21924933.8144   21924938.9274
  24401013.590    15365322.74849  11978164.02849  24401014.9994   24401017.9954
  21321715.415   -19677548.90249 -14887005.74649  21321715.1744   21321721.8154
  24614163.435    15165092.44049  11936931.38049  24614163.6294   24614171.3644
 96 12  4 20 13 30.0030000  0  7 18 22 16 29 25 14 15
  24610064.580    -3583512.63249  -2783090.79349  24610065.7664   24610072.7944
  22422910.353   -16868623.75149 -13132704.99949  22422909.2934   22422916.5724
  24222243.218    -8554639.08949  -5812144.77249  24222242.5804   24222250.6544
  21925171.953   -10260866.99249  -7990228.66349  21925171.9694   21925177.2434
  24419992.561    15465058.04849  12055879.85549  24419992.8214   24419998.2674
  21320856.587   -19682062.59149 -14890522.90849  21320856.8384   21320862.9954
  24635502.044    15277227.68449  12024309.45549  24635501.8974   24635510.1914
 96 12  4 20 14  0.0030000  0  7 18 22 16 29 25 14 15
  24597572.536    -3649161.78649  -2834245.88549  24597572.9954   24597580.0174
  22418185.771   -16893451.49949 -13152051.27149  22418184.7444   22418191.8264
  24206755.411    -8636027.04749  -5875563.90149  24206754.3434   24206762.3964
  21925442.544   -10259445.34849  -7989120.88049  21925442.7124   21925447.8404
  24438985.983    15564868.82749  12133654.46949  24438986.4424   24438991.4224
  21320096.014   -19686059.79149 -14893637.60749  21320095.4254   21320102.2884
  24656855.207    15389437.97149  12111746.00249  24656854.1654   24656862.9454
 96 12  4 20 14 30.0030000  0  7 18 22 16 29 25 14 15
  24585088.943    -3714764.43649  -2885364.71449  24585088.8574   24585096.2794
  22413567.716   -16917719.73849 -13170961.55649  22413567.0104   22413573.3064
  24191296.350    -8717263.93249  -5938865.33849  24191295.6354   24191302.6804
  21925740.099   -10257882.08849  -7987902.74449  21925740.0764   21925745.0284
  24457993.443    15664753.86849  12211486.96449  24457993.4034   24457998.3784
  21319431.578   -19689551.01249 -14896358.03149  21319431.1754   21319437.5734
  24678220.743    15501714.22349  12199233.91749  24678221.3034   24678228.6434
 96 12  4 20 15  0.0030000  0  7 18 22 16 29 25 14 15
  24572613.758    -3780322.15949  -2936448.55849  24572612.9344   24572618.6954
  22409053.913   -16941440.39549 -13189445.16449  22409053.4254   22409059.4614
  24175868.788    -8798336.25549  -6002038.52949  24175868.3454   24175876.4144
  21926064.405   -10256177.85949  -7986574.76549  21926064.0624   21926069.5354
  24477014.580    15764709.45549  12289374.42449  24477014.6954   24477020.5304
  21318865.154   -19692527.72249 -14898677.53249  21318864.5974   21318871.2114
  24699598.412    15614054.40949  12286771.66149  24699597.7044   24699605.9864
 96 12  4 20 15 30.0030000  0  7 18 22 16 29 25 14 15
  24560142.998    -3845855.37149  -2987513.36349  24560141.7184   24560147.5324
  22404642.226   -16964624.01149 -13207510.29349  22404641.2904   22404648.1014
  24160470.013    -8879257.24649  -6065093.80449  24160470.2254   24160477.2634
  21926415.127   -10254334.38149  -7985138.27549  21926414.7294   21926420.0494
  24496047.912    15864729.30449  12367311.94349  24496047.7694   24496054.2074
  21318395.147   -19694997.21249 -14900601.79949  21318394.5834   21318401.1524
  24720986.305    15726446.72049  12374350.01349  24720986.0674   24720993.9584
 96 12  4 20 16  0.0030000  0  7 18 22 16 29 25 14 15
  24547679.341    -3911349.23849  -3038547.47649  24547677.9364   24547684.5094
  22400337.246   -16987247.16849 -13225138.70549  22400336.2704   22400343.0054
  24145105.075    -8960001.75249  -6128011.56649  24145105.0824   24145111.1034
  21926795.658   -10252334.25349  -7983579.72349  21926795.9154   21926800.5934
  24515099.400    15964845.69049  12445324.68249  24515098.2014   24515105.9964
  21318024.711   -19696944.01249 -14902118.77749  21318024.5794   21318030.9364
  24742386.063    15838901.16349  12461976.77049  24742385.4634   24742393.3504
 96 12  4 20 16 30.0030000  0  7 18 22 16 29 25 14 15
  24535222.075    -3976810.04749  -3089555.79049  24535221.3204   24535227.5334
  22396136.784   -17009320.31849 -13242338.54849  22396135.6684   22396142.3954
  24129773.880    -9040568.97449  -6190791.17249  24129773.2464   24129780.0774
  21927206.594   -10250175.32349  -7981897.43149  21927206.6614   21927211.5534
  24534168.396    16065054.05449  12523409.11549  24534166.7704   24534175.8194
  21317753.510   -19698369.52349 -14903229.56149  21317753.3264   21317759.2854
  24763794.707    15951402.69549  12549640.24049  24763794.6324   24763801.0534
 96 12  4 20 17  0.0030000  0  7 18 22 16 29 25 14 15
  24522772.658    -4042232.49649  -3140534.23749  24522773.0674   24522778.9044
  22392043.119   -17030832.31049 -13259101.11149  22392041.8824   22392048.6364
  24114477.887    -9120950.48049  -6253426.05249  24114477.8644   24114483.4764
  21927653.900   -10247825.09149  -7980066.06449  21927653.7714   21927658.8154
  24553254.911    16165354.74549  12601565.45749  24553254.3764   24553262.0264
  21317581.661   -19699272.75849 -14903933.38049  21317581.3364   21317587.4454
  24785212.390    16063952.40249  12637341.23449  24785212.4344   24785218.5544
 96 12  4 20 17 30.0030000  0  7 18 22 16 29 25 14 15
  24510329.471    -4107623.40849  -3191488.10349  24510328.6534   24510334.5584
  22388057.185   -17051778.73849 -13275422.98349  22388056.5914   22388062.8754
  24099218.641    -9201137.74749  -6315909.58349  24099217.7394   24099224.2494
  21928137.368   -10245284.44249  -7978086.32249  21928137.2764   21928142.2384
  24572358.471    16265745.91649  12679792.32349  24572356.3724   24572365.0754
  21317507.239   -19699663.32449 -14904237.71449  21317506.5674   21317513.2514
  24806637.855    16176543.48949  12725074.48949  24806637.3424   24806643.6044
 96 12  4 20 18  0.0030000  0  7 18 22 16 29 25 14 15
  24497893.476    -4172973.50849  -3242410.15249  24497891.9424   24497898.4364
  22384179.714   -17072155.46549 -13291300.92549  22384178.8054   22384185.0504
  24084000.196    -9281110.50449  -6378225.94849  24083999.5544   24084006.4824
  21928661.023   -10242532.55649  -7975941.98349  21928660.9544   21928666.0804
  24591480.175    16366233.06249  12758093.95949  24591479.8634   24591487.5294
  21317532.705   -19699528.76049 -14904132.85849  21317532.3794   21317538.6534
  24828072.347    16289183.19449  12812845.62049  24828072.0534   24828078.9184
 96 12  4 20 18 30.0030000  0  7 18 22 16 29 25 14 15
  24485462.697    -4238294.83249  -3293309.78349  24485461.5284   24485468.8334
  22380410.295   -17091963.79749 -13306735.96349  22380409.1854   22380415.4344
  24068820.160    -9360883.22849  -6440386.48649  24068819.2934   24068824.7754
  21929223.704   -10239575.68049  -7973637.91049  21929223.5744   21929228.6264
  24610616.350    16466793.93749  12836453.05149  24610615.6454   24610623.5054
  21317658.470   -19698867.69149 -14903617.72749  21317658.0824   21317664.8284
  24849513.925    16401858.59949  12900644.57049  24849513.6304   24849520.6064
 96 12  4 20 19  0.0030000  0  7 18 22 16 29 25 14 15
  24473039.370    -4303577.38649  -3344179.24949  24473039.5674   24473046.7544
  22376751.003   -17111193.67949 -13321720.26349  22376750.3684   22376756.0094
  24053680.601    -9440443.10749  -6502381.13949  24053680.4044   24053685.9934
  21929824.527   -10236418.64049  -7971177.87249  21929824.4484   21929829.3504
  24629765.588    16567424.65849  12914866.55649  24629765.9984   24629772.4604
  21317885.571   -19697674.07149 -14902687.62749  21317885.3254   21317891.7934
  24870962.397    16514570.78749  12988472.21749  24870960.6024   24870969.1984
 96 12  4 20 19 30.0030000  0  7 18 22 16 29 25 14 15
  24460626.899    -4368807.00149  -3395007.44949  24460628.3394   24460633.1834
  22373201.667   -17129845.55149 -13336254.15749  22373200.5864   22373206.4854
  24038583.355    -9519779.30649  -6564201.49849  24038582.6464   24038588.3774
  21930461.912   -10233068.88649  -7968567.66349  21930461.6274   21930466.7394
  24648925.873    16668113.64249  12993325.50049  24648926.1244   24648931.8904
  21318215.540   -19695940.31949 -14901336.64349  21318215.5464   21318222.0094
  24892417.624    16627319.48349  13076328.28549  24892417.2884   24892424.5324
 96 12  4 20 20  0.0030000  0  7 18 22 16 29 25 14 15
  24448222.969    -4433993.32249  -3445801.88049  24448223.5874   24448228.8694
  22369760.476   -17147928.89249 -13350345.04449  22369759.2384   22369765.7864
  24023523.939    -9598917.63049  -6625867.67449  24023523.0514   24023529.8824
  21931134.603   -10229534.02349  -7965813.21349  21931134.4824   21931139.4674
  24668095.617    16768850.77049  13071821.94749  24668095.7234   24668102.1964
  21318647.064   -19693672.67449 -14899569.63849  21318647.0084   21318653.6254
  24913876.838    16740091.37349  13164202.40449  24913875.8634   24913883.7444
 96 12  4 20 20 30.0030000  0  7 18 22 16 29 25 14 15
  24435831.869    -4499111.37949  -3496543.13949  24435831.3064   24435838.0194
  22366431.922   -17165420.11549 -13363974.53849  22366430.8224   22366437.5624
  24008507.084    -9677831.92749  -6687359.26949  24008506.0274   24008512.8514
  21931842.646   -10225812.84749  -7962913.58149  21931842.2624   21931847.4504
  24687276.933    16869648.37049  13150365.50649  24687278.2734   24687283.6124
  21319185.060   -19690845.74049 -14897366.82249  21319184.7464   21319191.3934
  24935342.994    16852897.88349  13252103.52449  24935341.9624   24935351.1844
 96 12  4 20 21  0.0030000  0  7 18 22 16 29 25 14 15
  24423452.215    -4564166.12949  -3547235.05349  24423451.3164   24423458.2044
  22363213.134   -17182334.75349 -13377154.74149  22363211.9214   22363218.8554
  23993532.849    -9756522.61249  -6748676.62949  23993531.8744   23993536.9884
  21932585.432   -10221909.19349  -7959871.76049  21932585.0874   21932589.8884
  24706467.469    16970494.44049  13228946.84249  24706467.8984   24706472.5704
  21319826.339   -19687475.94449 -14894741.00249  21319825.8824   21319832.0314
  24956813.730    16965727.76949  13340022.83749  24956812.2884   24956823.1054
 96 12  4 20 21 30.0030000  0  8 18 22 16 29 19 25 14 15
  24411084.199    -4629158.74149  -3597878.59249  24411082.2094   24411092.1064
  22360106.226   -17198661.53449 -13389876.87449  22360105.2914   22360112.1684
  23978599.900    -9834996.20649  -6809824.85049  23978598.4324   23978605.4534
  21933364.501   -10217814.60049  -7956681.16149  21933364.2784   21933369.1834
  25834114.544    -2705304.99949  -1684382.52049  25834110.9374   25834119.3804
  24725671.059    17071408.90149  13307581.47949  24725671.3444   24725675.9574
  21320570.424   -19683565.38149 -14891693.81249  21320569.9074   21320576.0684
  24978289.744    17078586.35149  13427964.52649  24978288.6714   24978298.7214
 96 12  4 20 22  0.0030000  0  8 18 22 16 29 19 25 14 15
  24398724.917    -4694105.44749  -3648486.33649  24398724.2554   24398733.0464
  22357110.986   -17214401.06549 -13402141.41049  22357110.0954   22357116.9054
  23963704.694    -9913270.09049  -6870817.43049  23963703.0644   23963709.7044
  21934177.382   -10213542.86949  -7953352.53049  21934177.3154   21934182.1734
  25818582.228    -2786927.01249  -1747984.02249  25818577.3114   25818586.5474
  24744890.068    17172404.92249  13386279.65549  24744890.9484   24744895.6624
  21321416.126   -19679121.13549 -14888230.76649  21321415.9514   21321421.6694
  24999769.033    17191461.62249  13515919.20149  24999769.1004   24999778.1524
 96 12  4 20 22 30.0030000  0  8 18 22 16 29 19 25 14 15
  24386378.153    -4758987.88949  -3699044.01349  24386377.8124   24386385.1034
  22354231.215   -17229534.56049 -13413933.70749  22354230.2884   22354237.1874
  23948850.745    -9991327.00149  -6931640.96749  23948850.4464   23948856.4924
  21935024.925   -10209088.84649  -7949881.84949  21935024.8884   21935029.7684
  25803076.068    -2868406.08049  -1811474.16049  25803070.3664   25803080.6844
  24764126.605    17273492.87049  13465049.46649  24764126.5924   24764132.1394
  21322363.654   -19674141.90849 -14884350.85449  21322363.7454   21322369.4544
  25021253.280    17304360.40049  13603892.21649  25021253.0374   25021261.8524
 96 12  4 20 23  0.0030000  0  8 18 22 16 29 19 25 14 15
  24374042.488    -4823812.75049  -3749556.81449  24374043.0614   24374048.3734
  22351466.224   -17244064.57049 -13425255.76149  22351465.1234   22351471.7184
  23934033.808   -10069189.54949  -6992313.03349  23934031.9144   23934038.5654
  21935907.524   -10204450.79749  -7946267.76849  21935907.4174   21935912.4664
  25787595.419    -2949749.75249  -1874858.78349  25787592.0224   25787599.2204
  24783381.699    17374678.31949  13543895.24949  24783381.2724   24783388.7924
  21323410.697   -19668639.72349 -14880063.42849  21323410.7104   21323416.8244
  25042740.644    17417275.49949  13691877.95549  25042740.3324   25042748.7384
 96 12  4 20 23 30.0030000  0  8 18 22 16 29 19 25 14 15
  24361715.962    -4888589.39449  -3800032.05549  24361714.1864   24361721.1834
  22348815.492   -17257993.52749 -13436109.47349  22348813.9984   22348821.2744
  23919251.758   -10146869.32349  -7052842.67449  23919251.4874   23919256.2654
  21936822.900   -10199640.90149  -7942519.78749  21936822.5944   21936827.3184
  25772140.801    -3030960.57249  -1938139.85949  25772138.2904   25772145.5754
  24802654.865    17475959.39249  13622815.53849  24802653.1314   24802660.9764
  21324557.656   -19662612.48149 -14875366.87149  21324557.2664   21324564.0314
  25064230.079    17530200.22149  13779871.19549  25064230.1154   25064237.8774
 96 12  4 20 24  0.0030000  0  8 18 22 16 29 19 25 14 15
  24349402.354    -4953296.78349  -3850453.33149  24349401.7104   24349407.3024
  22346279.908   -17271317.66649 -13446491.89649  22346278.4434   22346285.5834
  23904508.877   -10224343.65549  -7113212.24649  23904508.9234   23904514.3844
  21937773.604   -10194644.52849  -7938626.49149  21937773.1764   21937778.2114
  25756715.257    -3112022.46749  -2001304.97149  25756713.6684   25756716.3354
  24821946.583    17577338.09549  13701811.86349  24821944.6254   24821952.5234
  21325807.981   -19656041.67349 -14870246.75549  21325807.6114   21325814.1474
  25085722.748    17643142.48849  13867878.10349  25085721.5164   25085729.7294
 96 12  4 20 24 30.0030000  0  8 18 22 16 29 19 25 14 15
  24337098.504    -5017952.15749  -3900834.06749  24337097.2984   24337104.8824
  22343854.493   -17284062.65549 -13456423.03449  22343853.4824   22343859.9524
  23889804.681   -10301615.05849  -7173423.69749  23889804.0434   23889809.2764
  21938757.906   -10189471.56949  -7934595.59249  21938757.4544   21938762.5954
  25741315.926    -3192943.95649  -2064360.61049  25741315.0984   25741319.8804
  24841250.169    17678779.82549  13780857.36149  24841248.9814   24841257.8804
  21327158.435   -19648945.00549 -14864716.87949  21327158.1164   21327164.7094
  25107214.712    17756084.34149  13955884.67049  25107213.3984   25107222.8124
 96 12  4 20 25  0.0030000  0  8 18 22 16 29 19 25 14 15
  24324803.208    -5082564.53049  -3951181.32149  24324804.7884   24324809.7954
  22341534.235   -17296255.45749 -13465923.89449  22341533.3884   22341539.4984
  23875139.470   -10378680.14049  -7233474.36849  23875138.8254   23875145.4024
  21939774.971   -10184126.78949  -7930430.81649  21939774.7704   21939779.8834
  25725939.947    -3273740.63549  -2127318.96449  25725938.8034   25725944.9564
  24860561.966    17780264.85149  13859936.60049  24860561.8814   24860567.5814
  21328609.815   -19641317.95949 -14858773.72849  21328609.5914   21328616.2564
  25128704.337    17869015.65049  14043882.99049  25128703.5414   25128712.1364
 96 12  4 20 25 30.0030000  0  9 18 22 16 29 19  4 25 14 15
  24312518.877    -5147121.95749  -4001485.77149  24312519.1134   24312524.5814
  22339322.172   -17307880.15249 -13474982.07749  22339321.6394   22339327.6784
  23860521.100   -10455500.30549  -7293334.20049  23860520.4054   23860526.0324
  21940825.905   -10178603.76149  -7926127.14849  21940825.5434   21940830.9304
  25710592.496    -3354389.93749  -2190162.51049  25710592.7274   25710601.0384
  25967911.633    -2484873.60349  -1794418.12649  25967912.6884   25967920.2964
  24879881.034    17881787.94549  13939045.45849  24879880.8974   24879887.6624
  21330164.235   -19633149.51049 -14852408.70249  21330163.8954   21330170.0674
  25150195.049    17981949.66649  14131883.45849  25150194.4934   25150203.0624
 96 12  4 20 26  0.0030000  0  9 18 22 16 29 19  4 25 14 15
  24300240.805    -5211644.66349  -4051763.14949  24300240.0044   24300246.4104
  22337214.937   -17318954.09149 -13483611.10049  22337214.0394   22337220.8344
  23845947.248   -10532086.15349  -7353011.45149  23845947.2844   23845952.5324
  21941907.720   -10172918.54649  -7921697.10249  21941907.4644   21941912.8694
  25695269.876    -3434912.28549  -2252907.11649  25695269.1954   25695278.0924
  25962532.338    -2513143.28549  -1816446.44449  25962533.3324   25962537.3934
  24899201.634    17983318.28249  14018160.01649  24899202.1014   24899208.8164
  21331818.907   -19624454.48349 -14845633.35049  21331818.7494   21331824.6964
  25171682.390    18094865.79649  14219869.97649  25171682.2374   25171691.1854
 96 12  4 20 26 30.0030000  0  9 18 22 16 29 19  4 25 14 15
  24287970.857    -5276122.62749  -4102005.69349  24287970.1884   24287975.9184
  22335219.456   -17329440.13049 -13491782.01549  22335218.7104   22335225.0734
  23831423.803   -10608407.31249  -7412482.45249  23831423.3594   23831429.2394
  21943025.841   -10167043.30749  -7917118.98149  21943026.0194   21943030.9374
  25679977.717    -3515270.85149  -2315524.06449  25679977.8614   25679985.1284
  25957250.256    -2540901.38749  -1838076.10649  25957250.3304   25957255.4754
  24918528.317    18084880.54149  14097299.44349  24918528.1624   24918534.5124
  21333581.541   -19615191.60849 -14838415.52449  21333581.1994   21333587.4414
  25193171.561    18207792.10449  14307864.44149  25193172.0204   25193180.6934
 96 12  4 20 27  0.0030000  0  9 18 22 16 29 19  4 25 14 15
  24275703.116    -5340588.84949  -4152239.04649  24275701.0624   24275708.0024
  22333334.955   -17339343.45749 -13499498.86649  22333334.1254   22333340.8044
  23816945.106   -10684492.33649  -7471769.44549  23816944.6724   23816951.2964
  21944174.108   -10161009.69949  -7912417.45649  21944173.9844   21944179.0504
  25664711.600    -3595495.38549  -2378036.61049  25664711.3504   25664720.5464
  25952058.440    -2568184.62849  -1859335.72949  25952059.6034   25952066.8484
  24937857.482    18186455.03049  14176448.34849  24937858.8404   24937864.0394
  21335448.840   -19605378.72849 -14830769.12049  21335448.3964   21335454.5554
  25214657.282    18320699.37249  14395844.05749  25214656.7664   25214666.0874
 96 12  4 20 27 30.0030000  0  9 18 22 16 29 19  4 25 14 15
  24263437.612    -5405043.62249  -4202463.46949  24263437.4224   24263442.1174
  22331567.168   -17348632.63849 -13506737.15749  22331565.7394   22331573.2254
  23802511.799   -10760339.86149  -7530871.37849  23802511.4344   23802517.7544
  21945354.267   -10154807.85849  -7907584.83949  21945354.0584   21945359.4204
  25649474.820    -3675563.55349  -2440427.29949  25649474.7884   25649482.9394
  25946957.787    -2594988.76849  -1880222.02249  25946957.5554   25946967.1284
  24957193.084    18288063.31749  14255623.64649  24957194.3444   24957198.8874
  21337422.722   -19595005.70849 -14822686.24349  21337422.2304   21337428.5984
  25236140.666    18433594.23749  14483814.00949  25236139.6244   25236147.9714
 96 12  4 20 28  0.0030000  0  9 18 22 16 29 19  4 25 14 15
  24251175.313    -5469482.20749  -4252675.28249  24251176.0604   24251180.2904
  22329915.784   -17357310.05849 -13513498.75149  22329914.3624   22329922.1024
  23788120.989   -10835964.07549  -7589799.30949  23788120.4074   23788126.8754
  21946570.339   -10148417.26649  -7902605.15249  21946570.3464   21946575.4664
  25634269.226    -3755471.02449  -2502692.82849  25634269.1354   25634277.3354
  25941947.828    -2621313.67849  -1900734.93149  25941947.9934   25941956.8874
  24976538.822    18389724.55549  14334840.17749  24976539.5914   24976544.6234
  21339504.927   -19584063.61349 -14814159.93649  21339504.7984   21339511.1984
  25257621.162    18546474.17649  14571772.34149  25257622.2124   25257627.9464
 96 12  4 20 28 30.0030000  0  9 18 22 16 29 19  4 25 14 15
  24238919.580    -5533886.58049  -4302860.41649  24238917.8164   24238925.6224
  22328383.958   -17365358.88149 -13519770.53649  22328382.7524   22328389.8914
  23773774.572   -10911355.31249  -7648545.70049  23773773.9894   23773780.0344
  21947823.548   -10141831.53149  -7897473.39749  21947823.5984   21947828.5194
  25619095.897    -3835209.92549  -2564826.97449  25619097.1784   25619103.8444
  25937028.429    -2647166.32949  -1920879.85449  25937029.4784   25937036.5164
  24995897.307    18491453.24949  14414109.26949  24995897.7004   24995903.0794
  21341694.413   -19572558.24049 -14805194.70249  21341694.2434   21341700.5204
  25279098.359    18659339.63049  14659719.36849  25279097.2154   25279105.9584
 96 12  4 20 29  0.0030000  0  9 18 22 16 29 19  4 25 14 15
  24226676.448    -5598222.05949  -4352991.88849  24226675.1624   24226683.4984
  22326971.334   -17372782.20349 -13525554.92249  22326970.1904   22326977.7304
  23759474.143   -10986504.68849  -7707103.61349  23759473.8594   23759479.7614
  21949116.735   -10135036.35649  -7892178.44149  21949116.9924   21949121.7154
  25603955.564    -3914775.75449  -2626826.33849  25603956.5204   25603961.7174
  25932200.327    -2672539.74049  -1940651.32549  25932200.4814   25932207.7664
  25015269.223    18593252.39549  14493433.26249  25015269.4194   25015275.3454
  21343987.729   -19560506.69249 -14795803.87349  21343987.3854   21343993.7534
  25300572.447    18772188.82849  14747653.74649  25300571.9494   25300580.1004
 96 12  4 20 29 30.0030000  0  9 18 22 16 29 19  4 25 14 15
  24214449.353    -5662475.36149  -4403059.32749  24214448.3364   24214456.5814
  22325673.457   -17379602.08349 -13530869.09549  22325672.7484   22325679.4034
  23745220.043   -11061410.95649  -7765472.10549  23745220.2864   23745225.6704
  21950451.087   -10128024.50949  -7886714.64649  21950450.9194   21950455.7304
  25588848.456    -3994165.91349  -2688688.76949  25588849.3484   25588850.8224
  25927462.662    -2697434.69449  -1960049.92149  25927461.2724   25927469.6104
  25034652.778    18695114.29349  14572806.15949  25034652.9204   25034658.0564
  21346383.807   -19547915.25449 -14785992.35649  21346383.6264   21346389.9484
  25322043.138    18885014.67849  14835569.90949  25322044.1644   25322050.6954
 96 12  4 20 30  0.0030000  0  9 18 22 16 29 19  4 25 14 15
  24202240.742    -5726631.91149  -4453051.38249  24202240.7874   24202247.0074
  22324489.671   -17385823.01749 -13535716.55649  22324489.3184   22324495.5374
  23731012.885   -11136069.77649  -7823647.77349  23731012.0424   23731018.2254
  21951827.473   -10120791.27349  -7881078.34649  21951827.2664   21951832.0464
  25573775.502    -4073378.33749  -2750412.67849  25573775.9934   25573778.2844
  25922818.339    -2721838.96249  -1979066.25849  25922817.0374   25922822.5334
  25054047.795    18797035.94249  14652225.58749  25054047.8144   25054053.4534
  21348883.410   -19534779.75549 -14775756.89149  21348883.0864   21348889.7884
  25343509.603    18997817.13549  14923467.87949  25343509.3344   25343517.4044
 96 12  4 20 30 30.0030000  0  9 18 22 16 29 19  4 25 14 15
  24190054.026    -5790674.55749  -4502954.68649  24190054.4344   24190058.7924
  22323422.596   -17391430.89849 -13540086.32149  22323421.7274   22323428.5854
  23716858.152   -11210453.62449  -7881609.20249  23716857.0424   23716864.4394
  21953244.857   -10113342.94649  -7875274.44649  21953244.8054   21953249.7834
  25558737.966    -4152404.90449  -2811991.75149  25558738.1044   25558741.2444
  25918269.427    -2745740.83949  -1997691.05649  25918267.3274   25918276.8104
  25073454.222    18899017.84149  14731691.98749  25073454.4294   25073459.8744
  21351488.515   -19521089.60649 -14765089.24049  21351488.0724   21351494.7474
  25364972.023    19110600.69049  15011351.10449  25364970.9064   25364979.2624
 96 12  4 20 31  0.0030000  0  9 18 22 16 29 19  4 25 14 15
  24177883.597    -5854631.35449  -4552791.08549  24177882.8304   24177887.4594
  22322467.026   -17396452.83949 -13543999.50449  22322466.0784   22322472.8114
  23702753.575   -11284572.67649  -7939364.26649  23702751.8664   23702759.7164
  21954699.836   -10105697.12349  -7869316.65049  21954699.7884   21954704.4144
  25543731.409    -4231263.57449  -2873440.03049  25543729.5044   25543735.4074
  25913814.733    -2769146.03649  -2015928.81049  25913813.8804   25913823.4354
  25092866.944    19001032.54549  14811183.94449  25092866.0504   25092871.8074
  21354198.676   -19506847.38749 -14753991.40849  21354198.3464   21354204.9634
  25386426.788    19223347.17849  15099205.44749  25386424.8344   25386435.5744
 96 12  4 20 31 30.0030000  0  9 18 22 16 29 19  4 25 14 15
  24165722.216    -5918539.12149  -4602589.28849  24165721.8394   24165726.1214
  22321623.876   -17400883.76949 -13547452.15749  22321622.7324   22321628.7914
  23688696.526   -11358441.51449  -7996924.36849  23688695.2884   23688702.3574
  21956187.777   -10097877.76549  -7863223.63049  21956187.6884   21956192.1874
  25528750.825    -4309984.89249  -2934781.26849  25528747.9764   25528756.1424
  25909454.753    -2792059.02949  -2033783.06549  25909453.3094   25909466.2554
  25112282.327    19103061.90349  14890687.30849  25112281.3594   25112287.6714
  21357014.225   -19492051.35649 -14742462.02749  21357014.3274   21357020.3494
  25407871.759    19336045.04749  15187021.85549  25407868.8084   25407878.9844
 96 12  4 20 32  0.0030000  0  9 18 22 16 29 19  4 25 14 15
  24153570.189    -5982398.74149  -4652349.99149  24153569.9614   24153574.7334
  22320895.910   -17404708.71249 -13550432.60149  22320894.4764   22320901.0854
  23674689.260   -11432049.70649  -8054281.37149  23674688.1744   23674695.8864
  21957707.621   -10089890.75149  -7856999.96949  21957707.2764   21957711.9264
  25513795.959    -4388569.45449  -2996015.95449  25513793.0994   25513802.8794
  25905190.810    -2814467.67449  -2051244.32549  25905194.0974   25905199.2244
  25131699.848    19205102.41849  14970199.38249  25131699.0374   25131704.1434
  21359935.364   -19476700.84949 -14730500.58549  21359935.2654   21359941.3784
  25429308.502    19448698.18549  15274803.43249  25429307.6874   25429317.0394
 96 12  4 20 32 30.0030000  0  9 18 22 16 29 19  4 25 14 15
  24141426.286    -6046214.26549  -4702076.34249  24141425.7894   24141431.8234
  22320286.218   -17407912.41349 -13552928.97149  22320284.9684   22320291.6024
  23660734.918   -11505380.57049  -8111422.28549  23660734.0354   23660741.1754
  21959260.466   -10081730.16449  -7850641.05849  21959260.2904   21959264.9324
  25498867.617    -4467014.35349  -3057141.77749  25498865.4734   25498875.1894
  25901024.490    -2836364.10149  -2068306.46149  25901023.5654   25901029.0384
  25151119.486    19307153.81549  15049719.94249  25151118.4234   25151124.2634
  21362960.624   -19460803.34149 -14718112.91549  21362960.5004   21362966.4474
  25450737.689    19561309.54749  15362552.49249  25450738.2914   25450744.7984
 96 12  4 20 33  0.0030000  0  9 18 22 16 29 19  4 25 14 15
  24129287.864    -6110001.37649  -4751780.55649  24129287.2824   24129294.7754
  22319795.258   -17410491.46849 -13554938.60049  22319793.9084   22319801.1504
  23646831.541   -11578442.70749  -8168353.77849  23646830.7404   23646837.8354
  21960849.464   -10073379.88849  -7844134.32949  21960849.2204   21960853.6784
  25483966.345    -4545319.21849  -3118158.50249  25483964.3194   25483974.8364
  25896955.943    -2857743.75649  -2084965.92249  25896954.6314   25896962.3634
  25170540.397    19409212.16649  15129245.90749  25170540.4474   25170545.9824
  21366090.502   -19444355.76349 -14705296.61649  21366089.9144   21366096.0424
  25472159.167    19673878.73649  15450268.67849  25472159.1214   25472165.7164
 96 12  4 20 33 30.0030000  0  9 18 22 16 29 19  4 25 14 15
  24117156.033    -6173754.05149  -4801457.92249  24117155.4014   24117163.0194
  22319422.544   -17412449.83949 -13556464.57649  22319422.1364   22319428.7094
  23632976.989   -11651248.58049  -8225085.59449  23632976.3714   23632983.5324
  21962475.224   -10064836.37849  -7837477.03249  21962475.2354   21962479.9294
  25469092.348    -4623480.74649  -3179063.52149  25469091.0454   25469101.6154
  25892983.160    -2878617.91349  -2101231.41349  25892984.7504   25892994.6044
  25189964.486    19511286.99049  15208784.71049  25189964.0314   25189970.8214
  21369323.198   -19427367.41849 -14692058.94449  21369322.4864   21369329.1694
  25493570.817    19786395.26749  15537943.83649  25493571.2884   25493577.5764
 96 12  4 20 34  0.0030000  0  9 18 22 16 29 19  4 25 14 15
  24105031.559    -6237467.93849  -4851105.06549  24105031.3744   24105037.1244
  22319164.280   -17413807.65149 -13557522.58449  22319163.3554   22319170.2664
  23619171.714   -11723795.28649  -8281615.45949  23619171.2284   23619177.9584
  21964138.579   -10056095.28149  -7830665.77349  21964138.6634   21964143.2484
  25454248.563    -4701481.70349  -3239843.37949  25454246.6724   25454256.9474
  25889103.203    -2899010.90649  -2117121.97249  25889106.5154   25889113.3994
  25209393.820    19613389.47949  15288345.05349  25209392.8304   25209400.3994
  21372658.926   -19409837.81449 -14678399.50549  21372658.7264   21372665.1244
  25514970.536    19898848.10949  15625569.37649  25514970.3544   25514977.9344
 96 12  4 20 34 30.0030000  0  9 18 22 16 29 19  4 25 14 15
  24092915.843    -6301136.71949  -4900717.06549  24092915.7124   24092921.8514
  22319021.510   -17414558.16549 -13558107.36749  22319020.7434   22319027.6634
  23605418.238   -11796070.23549  -8337933.57149  23605417.7394   23605424.5034
  21965842.274   -10047143.00249  -7823689.95749  21965842.2944   21965847.1124
  25439437.070    -4779313.74749  -3300491.64549  25439434.7064   25439448.0844
  25885313.856    -2918930.12449  -2132643.51049  25885316.5984   25885320.5694
  25228832.160    19715539.54249  15367942.49949  25228831.5234   25228839.3434
  21376101.594   -19391746.37749 -14664302.27049  21376101.5134   21376108.2144
  25536358.317    20011240.72449  15713147.95049  25536357.4884   25536364.2404
 96 12  4 20 35  0.0040000  0  9 18 22 16 29 19  4 25 14 15
  24080812.173    -6364742.00249  -4950279.59649  24080811.8914   24080816.9924
  22318995.734   -17414694.27749 -13558213.40549  22318994.7514   22319001.7434
  23591718.614   -11868062.03449  -8394031.04449  23591718.2134   23591725.1664
  21967587.248   -10037973.34449  -7816544.75449  21967586.9064   21967591.9204
  25424658.992    -4856970.48449  -3361003.29449  25424658.8654   25424668.2334
  25881613.089    -2938373.96749  -2147794.44449  25881610.8044   25881621.2684
  25248282.358    19817751.28449  15447587.97049  25248282.4484   25248290.5854
  21379656.903   -19373063.19049 -14649743.93949  21379656.6924   21379663.4914
  25557736.961    20123587.45349  15800690.75649  25557734.9084   25557744.9564
 96 12  4 20 35 30.0040000  0  9 18 22 16 29 19  4 25 14 15
  24068721.728    -6428278.19149  -4999788.27949  24068722.1604   24068727.5754
  22319084.701   -17414226.97649 -13557849.26149  22319083.9104   22319090.3264
  23578072.103   -11939774.16149  -8449910.60049  23578071.3314   23578078.0964
  21969368.630   -10028611.52349  -7809249.82049  21969368.1534   21969373.3134
  25409913.888    -4934455.66849  -3421381.29849  25409914.6524   25409921.6194
  25878000.162    -2957359.99649  -2162588.71149  25878002.8314   25878008.5064
  25267742.987    19920017.16149  15527275.63649  25267743.8654   25267751.1984
  21383321.345   -19353806.57649 -14634738.78049  21383321.3254   21383327.8034
  25579102.585    20235867.53549  15888181.64749  25579102.0764   25579111.5484
 96 12  4 20 36  0.0040000  0  9 18 22 16 29 19  4 25 14 15
  24056641.394    -6491762.49749  -5049256.53449  24056641.3944   24056645.9904
  22319288.296   -17413156.32349 -13557014.96549  22319287.2594   22319293.8884
  23564478.797   -12011206.76349  -8505572.33449  23564479.0414   23564485.0724
  21971183.953   -10019071.79549  -7801816.25449  21971183.8464   21971188.5304
  25395198.133    -5011787.43249  -3481639.79649  25395198.7104   25395206.7804
  25874475.369    -2975886.33649  -2177024.80549  25874477.1524   25874481.9194
  25287209.667    20022314.94849  15606988.18449  25287210.1094   25287217.6124
  21387091.236   -19333996.06949 -14619302.02049  21387091.0354   21387097.5284
  25600455.053    20348074.55249  15975615.61149  25600455.9634   25600463.9504
 96 12  4 20 36 30.0040000  0  9 18 22 16 29 19  4 25 14 15
  24044572.526    -6555184.25049  -5098676.04749  24044571.1504   24044579.2934
  22319610.802   -17411462.01649 -13555694.71249  22319609.5364   22319615.9804
  23550939.990   -12082355.13149  -8561012.59149  23550939.4844   23550946.1894
  21973035.480   -10009342.38449  -7794234.87549  21973035.4844   21973040.0374
  25380512.283    -5088965.44649  -3541778.46249  25380512.7474   25380520.7334
  25871045.454    -2993912.68349  -2191071.29749  25871045.3984   25871054.6774
  25306681.582    20124639.42149  15686721.52149  25306681.8994   25306689.8074
  21390965.792   -19313634.84249 -14603436.12849  21390965.5234   21390971.8054
  25621794.849    20460215.67149  16062998.21449  25621795.4304   25621803.4644
 96 12  4 20 37  0.0040000  0  9 18 22 16 29 19  4 25 14 15
  24032512.813    -6618556.34449  -5148056.86149  24032512.2984   24032519.5424
  22320048.889   -17409159.64449 -13553900.63849  22320047.8624   22320053.7144
  23537450.190   -12153245.27449  -8616251.63349  23537449.6634   23537456.0754
  21974921.817    -9999430.31349  -7786511.16249  21974921.8984   21974926.4234
  25365854.714    -5165994.03249  -3601800.69149  25365853.7654   25365862.1024
  25867711.395    -3011431.81149  -2204722.52349  25867711.0464   25867717.3644
  25326155.576    20226975.64449  15766463.98949  25326154.8584   25326163.6574
  21394941.028   -19292745.11549 -14587158.42249  21394941.0114   21394946.4064
  25643119.447    20572273.17449  16150315.69249  25643121.1674   25643126.7494
 96 12  4 20 37 30.0040000  0  9 18 22 16 29 19  4 25 14 15
  24020471.709    -6681832.97949  -5197363.32049  24020471.5544   24020477.9064
  22320609.306   -17406214.53249 -13551605.72749  22320608.4144   22320614.2464
  23524017.472   -12223835.50049  -8671256.97049  23524016.3824   23524023.2884
  21976854.158    -9989275.87349  -7778598.59849  21976853.8814   21976858.9684
  25351234.106    -5242826.38049  -3661669.98349  25351234.8654   25351241.0864
  25864483.081    -3028395.18049  -2217940.73449  25864483.3614   25864487.9974
  25345639.395    20329364.55849  15846247.54049  25345639.3594   25345647.7654
  21399023.806   -19271290.09349 -14570440.22149  21399023.4344   21399029.5234
  25664434.248    20684280.69349  16237594.22949  25664435.1214   25664440.3844
 96 12  4 20 38  0.0040000  0  9 18 22 16 29 19  4 25 14 15
  24008447.305    -6745021.27149  -5246600.89549  24008447.5084   24008452.7964
  22321288.179   -17402647.38049 -13548826.10549  22321287.2044   22321292.8444
  23510641.322   -12294128.15749  -8726030.43949  23510640.6924   23510647.2904
  21978832.007    -9978881.32149  -7770498.93449  21978831.3724   21978837.0694
  25336647.332    -5319480.72149  -3721400.52349  25336647.1444   25336654.1974
  25861358.011    -3044816.61549  -2230736.67749  25861357.4854   25861365.3444
  25365127.419    20431775.10549  15926047.92549  25365127.7274   25365134.4924
  21403212.863   -19249276.60749 -14553286.85249  21403212.7344   21403218.6184
  25685736.457    20796222.00549  16324821.18649  25685735.1964   25685742.4524
 96 12  4 20 38 30.0040000  0  9 18 22 16 29 19  4 25 14 15
  23996437.290    -6808135.65849  -5295780.88849  23996437.7624   23996441.7674
  22322083.930   -17398465.71749 -13545567.63849  22322083.2434   22322089.6454
  23497319.417   -12364134.91249  -8780581.12249  23497318.1254   23497324.9844
  21980852.676    -9968261.58649  -7762223.80649  21980851.8834   21980857.8254
  25322092.798    -5395966.21749  -3780999.53849  25322092.2504   25322098.9624
  25858333.033    -3060713.22349  -2243123.59649  25858333.7784   25858340.8844
  25384617.760    20534199.00249  16005858.72649  25384616.5764   25384625.1724
  21407509.159   -19226699.24949 -14535694.10449  21407508.7604   21407515.2464
  25707023.071    20908085.12049  16411987.14849  25707019.4414   25707030.6094
 96 12  4 20 39  0.0040000  0  9 18 22 16 29 19  4 25 14 15
  23984439.077    -6871187.27349  -5344911.98549  23984438.1494   23984443.5614
  22322994.125   -17393683.12149 -13541840.91649  22322993.1434   22322999.6254
  23484051.935   -12433855.17349  -8834908.58649  23484050.8104   23484058.0584
  21982913.609    -9957430.31449  -7753783.84249  21982913.0764   21982918.6134
  25307570.598    -5472279.06549  -3840464.04149  25307570.1244   25307577.1844
  25855402.552    -3076115.10449  -2255125.06949  25855403.7564   25855407.6434
  25404107.019    20636617.11149  16085665.01649  25404106.9834   25404114.4754
  21411913.170   -19203555.86949 -14517660.29949  21411913.1614   21411919.5924
  25728293.156    21019860.93049  16499085.02149  25728293.6134   25728301.5644
 96 12  4 20 39 30.0040000  0  9 18 22 16 29 19  4 25 14 15
  23972454.553    -6934164.20649  -5393984.88049  23972453.7664   23972459.4384
  22324021.684   -17388283.41549 -13537633.33449  22324020.7724   22324027.0954
  23470842.750   -12503268.64449  -8888996.96949  23470841.7744   23470849.0974
  21985015.198    -9946386.08749  -7745177.93249  21985015.1914   21985020.2464
  25293081.622    -5548419.37649  -3899794.08349  25293081.2744   25293087.8934
  25852564.763    -3091029.56149  -2266746.75249  25852564.9324   25852567.7184
  25423593.422    20739019.28049  16165458.89449  25423594.2124   25423599.5094
  21416426.759   -19179837.19049 -14499178.20649  21416426.7764   21416433.3144
  25749549.144    21131559.43549  16586122.76149  25749549.4084   25749558.3234
 96 12  4 20 40  0.0040000  0  9 18 22 16 29 19  4 25 14 15
  23960480.848    -6997085.66749  -5443014.55449  23960479.8454   23960486.1274
  22325168.169   -17382258.81749 -13532938.82849  22325166.9094   22325173.1514
  23457690.230   -12572385.40749  -8942854.15149  23457688.9204   23457696.1174
  21987151.623    -9935159.65449  -7736430.04349  21987151.9614   21987156.3624
  25278624.585    -5624391.35749  -3958992.98349  25278624.8924   25278631.3854
  25849817.999    -3105463.40049  -2277993.88749  25849816.6744   25849824.6694
  25443074.472    20841392.05449  16245229.87949  25443076.1354   25443080.6124
  21421047.820   -19155553.72949 -14480256.03349  21421047.9274   21421054.1214
  25770789.263    21243173.66549  16673094.82949  25770790.0634   25770798.8734
 96 12  4 20 40 30.0040000  0  9 18 22 16 29 19  4 25 14 15
  23948517.260    -7059955.26649  -5492003.81349  23948517.6464   23948523.0584
  22326434.510   -17375603.70649 -13527753.00449  22326433.2624   22326439.9434
  23444592.988   -12641210.81849  -8996484.31449  23444592.3364   23444599.3734
  21989321.784    -9923756.43349  -7727544.40149  21989321.6494   21989326.4324
  25264203.204    -5700175.63549  -4018045.64449  25264203.0764   25264210.4554
  25847164.969    -3119403.56949  -2288856.32349  25847164.5304   25847171.8304
  25462552.575    20943748.90749  16324988.47749  25462552.2424   25462557.2974
  21425776.479   -19130704.65949 -14460893.12649  21425775.9244   21425782.6124
  25792013.295    21354703.66649  16760001.22849  25792013.0014   25792020.9694
 96 12  4 20 41  0.0040000  0  9 18 22 16 29 19  4 25 14 15
  23936563.170    -7122776.00949  -5540954.99749  23936562.2834   23936569.0414
  22327816.109   -17368342.83749 -13522095.15949  22327815.2454   22327821.1774
  23431548.908   -12709757.05649  -9049896.93249  23431547.7674   23431555.2454
  21991524.261    -9912182.19749  -7718525.50749  21991524.1354   21991528.8754
  25249816.071    -5775780.92649  -4076958.82849  25249815.2274   25249823.6324
  25844601.781    -3132873.19749  -2299352.14749  25844602.6244   25844607.4424
  25482026.964    21046086.80149  16404732.31849  25482027.7194   25482031.6844
  21430608.480   -19105312.04349 -14441106.68249  21430607.9494   21430614.3974
  25813216.807    21466129.32749  16846826.34749  25813212.6754   25813224.9664
 96 12  4 20 41 30.0040000  0  9 18 22 16 29 19  4 25 14 15
  23924621.727    -7185528.66949  -5589853.11849  23924620.7404   23924627.0674
  22329316.113   -17360460.27749 -13515952.88349  22329315.3174   22329320.9824
  23418562.328   -12778002.33149  -9103075.03949  23418562.9164   23418568.7664
  21993763.357    -9900415.80849  -7709356.88049  21993763.1654   21993768.1604
  25235464.014    -5851202.52749  -4135728.90449  25235463.7124   25235470.6614
  25842133.336    -3145845.47349  -2309460.39549  25842132.3044   25842139.9534
  25501505.153    21148443.37049  16484490.67449  25501505.2354   25501510.2254
  21435544.398   -19079373.33749 -14420894.71149  21435544.1224   21435550.3314
  25834401.602    21577458.85349  16933576.57449  25834399.7874   25834407.4134
 96 12  4 20 42  0.0040000  0  9 18 22 16 29 19  4 25 14 15
  23912694.411    -7248206.72549  -5638693.13549  23912694.3664   23912699.9824
  22330931.629   -17351971.19649 -13509337.97949  22330930.5684   22330936.5284
  23405635.685   -12845933.91349  -9156008.71249  23405635.5064   23405641.3794
  21996041.664    -9888443.01149  -7700027.41849  21996041.4674   21996046.5134
  25221148.695    -5926428.48449  -4194346.52649  25221148.5024   25221155.3954
  25839761.122    -3158310.30249  -2319173.22949  25839760.3464   25839767.0704
  25520992.638    21250849.51449  16564287.67749  25520993.9044   25520998.0564
  21440585.981   -19052879.77349 -14400250.38349  21440585.7014   21440591.7244
  25855567.679    21688690.59949  17020250.61249  25855566.9934   25855577.1804
 96 12  4 20 42 30.0040000  0  9 18 22 16 29 19  4 25 14 15
  23900781.399    -7310809.06149  -5687474.12249  23900780.1044   23900786.3794
  22332658.951   -17342893.27149 -13502264.24649  22332657.7934   22332663.8834
  23392771.918   -12913534.97849  -9208684.84349  23392771.8314   23392776.5784
  21998362.729    -9876245.71449  -7690523.03149  21998362.7004   21998367.8704
  25206870.104    -6001462.16549  -4252814.31149  25206870.1374   25206876.8864
  25837483.891    -3170276.62249  -2328497.62649  25837484.7424   25837491.1474
  25540491.988    21353318.34749  16644133.54449  25540491.8054   25540498.7354
  21445734.425   -19025824.42249 -14379168.29749  21445734.1874   21445740.3544
  25876715.259    21799821.35249  17106845.93849  25876712.2254   25876721.7614
 96 12  4 20 43  0.0040000  0  9 18 22 16 29 19  4 25 14 15
  23888879.924    -7373350.60849  -5736207.75349  23888879.7534   23888885.5874
  22334498.934   -17333223.91649 -13494729.64449  22334497.9494   22334503.9184
  23379969.274   -12980813.65849  -9261109.76749  23379968.9844   23379974.6934
  22000726.761    -9863822.86549  -7680842.89049  22000726.5644   22000731.8034
  25192624.367    -6076325.00449  -4311148.96049  25192625.7984   25192632.5784
  25835298.600    -3181761.75249  -2337447.10149  25835299.0754   25835305.7754
  25560000.171    21455836.47049  16724017.78449  25559999.5414   25560007.7264
  21450988.097   -18998216.22449 -14357655.42049  21450987.5704   21450994.0244
  25897841.049    21910838.85049  17193352.99949  25897835.9314   25897848.6484
 96 12  4 20 43 30.0040000  0  9 18 22 16 29 19  4 25 14 15
  23876994.210    -7435811.20449  -5784878.28549  23876994.5714   23876999.6554
  22336455.954   -17322939.35249 -13486715.66849  22336454.7544   22336461.4594
  23367232.459   -13047746.38449  -9313265.11149  23367231.7024   23367237.4784
  22003136.060    -9851162.13149  -7670977.37849  22003136.0564   22003141.0514
  25178415.021    -6150997.95349  -4369335.60749  25178412.4884   25178422.7974
  25833211.728    -3192728.11249  -2345992.31449  25833209.7314   25833217.2244
  25579518.586    21558407.15649  16803942.98449  25579517.5294   25579526.4034
  21456352.532   -18970025.25649 -14335688.43449  21456352.2664   21456358.8864
  25918950.701    22021767.36549  17279790.72549  25918949.6554   25918957.3494
 96 12  4 20 44  0.0040000  0  8 18 22 16 29 19  4 25 14
  23865119.155    -7498216.49349  -5833505.76249  23865118.5624   23865124.1594
  22338528.300   -17312048.92049 -13478229.60249  22338527.1894   22338533.2894
  23354556.206   -13114360.56049  -9365172.24049  23354555.3384   23354561.5914
  22005582.753    -9838304.70649  -7660958.60849  22005582.4224   22005587.3964
  25164236.686    -6225500.13949  -4427389.11149  25164233.8034   25164244.9404
  25831216.346    -3203208.94249  -2354159.16449  25831214.5524   25831224.4274
  25599037.713    21660984.51649  16883873.28949  25599033.6584   25599047.2474
  21461826.028   -18941261.58249 -14313275.19049  21461825.5174   21461832.3024
 96 12  4 20 44 30.0040000  0  8 18 22 16 29 19  4 25 14
  23853252.669    -7560575.39949  -5882097.07449  23853252.3274   23853257.6414
  22340720.390   -17300529.01549 -13469253.02349  22340719.3624   22340725.8594
  23341938.505   -13180666.55449  -9416839.21849  23341937.5834   23341943.9474
  22008065.282    -9825258.77449  -7650792.94649  22008064.9144   22008069.8684
  25150089.956    -6299837.97249  -4485314.66649  25150090.0154   25150099.1614
  25829315.080    -3213198.18949  -2361942.97949  25829314.7674   25829325.0984
  25618551.500    21763536.06349  16963783.55749  25618548.7084   25618561.9744
  21467406.747   -18911934.57349 -14290422.98449  21467406.7544   21467413.2384
 96 12  4 20 45  0.0040000  0  8 18 22 16 29 19  4 25 14
  23841399.368    -7622865.85849  -5930635.05549  23841399.1334   23841404.0254
  22343036.120   -17288359.95449 -13459770.61649  22343035.6184   22343040.9304
  23329379.565   -13246663.85049  -9468265.67049  23329379.0374   23329385.5034
  22010584.893    -9812017.84549  -7640475.34449  22010584.6994   22010589.6184
  25135976.351    -6374005.17349  -4543107.23049  25135976.1464   25135985.9834
  25827513.526    -3222667.84549  -2369321.95649  25827516.3724   25827521.7494
  25638058.978    21866049.28349  17043663.88349  25638060.1604   25638069.6434
  21473095.128   -18882042.62549 -14267130.56449  21473095.1364   21473101.6354
 96 12  4 20 45 30.0040000  0  8 18 22 16 29 19  4 25 14
  23829561.912    -7685071.83149  -5979107.20649  23829561.5284   23829566.6914
  22345474.146   -17275549.26049 -13449788.23649  22345473.5614   22345478.6374
  23316883.793   -13312329.31949  -9519433.53949  23316882.8184   23316890.4714
  22013140.727    -9798586.29449  -7630009.20649  22013140.4004   22013145.4544
  25121895.778    -6447999.23749  -4600764.88449  25121895.9134   25121904.6514
  25825811.042    -3231616.58949  -2376295.00549  25825811.2434   25825817.6444
  25657558.373    21968518.13649  17123509.70749  25657560.3714   25657569.3064
  21478889.795   -18851591.72349 -14243402.59349  21478889.8844   21478895.9944
 96 12  4 20 46  0.0040000  0  8 18 22 16 29 19  4 25 14
  23817741.181    -7747188.96149  -6027510.11949  23817740.3214   23817746.5084
  22348034.836   -17262092.31549 -13439302.28249  22348033.4584   22348039.2754
  23304452.970   -13377653.51049  -9570335.47949  23304452.0744   23304459.4054
  22015737.060    -9784942.23349  -7619377.47549  22015737.1424   22015741.9994
  25107847.773    -6521821.15749  -4658288.40049  25107846.8294   25107855.6924
  25824205.539    -3240052.64349  -2382868.52149  25824204.5954   25824212.2024
  25677050.582    22070947.63549  17203324.86849  25677051.7074   25677061.0424
  21484790.841   -18820582.04549 -14219239.21149  21484790.5194   21484796.8934
 96 12  4 20 46 30.0040000  0  8 18 22 16 29 19  4 25 14
  23805937.271    -7809218.51449  -6075844.82049  23805937.2834   23805942.7734
  22350714.681   -17248009.44249 -13428328.57849  22350713.2134   22350719.0734
  23292087.689   -13442633.79749  -9620969.45549  23292086.9844   23292093.3634
  22018379.828    -9771054.85449  -7608556.14649  22018380.0834   22018384.7474
  25093832.775    -6595467.75849  -4715675.30249  25093831.4424   25093840.5824
  25822699.818    -3247964.75349  -2389033.79949  25822698.6784   25822707.0804
  25696537.238    22173348.55649  17283117.76749  25696538.4874   25696546.8474
  21490798.058   -18789013.82849 -14194640.60749  21490798.0304   21490804.0034
 96 12  4 20 47  0.0040000  0  8 18 22 16 29 19  4 25 14
  23794150.314    -7871159.52949  -6124110.49949  23794149.4734   23794155.1264
  22353511.666   -17233310.38249 -13416874.73649  22353510.3674   22353516.5134
  23279789.911   -13507258.83049  -9671326.60649  23279788.6284   23279795.4874
  22021068.529    -9756926.02949  -7597546.67349  22021068.4124   22021073.0754
  25079853.036    -6668928.18849  -4772917.11349  25079852.5394   25079860.6204
  25821292.072    -3255362.73549  -2394798.50049  25821294.3604   25821299.4444
  25716022.109    22275739.71449  17362903.06049  25716023.4974   25716030.6384
  21496912.265   -18756883.48249 -14169603.97749  21496911.6084   21496918.0334
 96 12  4 20 47 30.0040000  0  8 18 22 16 29 19  4 25 14
  23782372.392    -7933053.38549  -6172339.45749  23782371.6774   23782378.4504
  22356422.156   -17218014.98749 -13404956.21849  22356421.3224   22356426.9614
  23267556.073   -13571547.07949  -9721421.33349  23267555.1474   23267561.3044
  22023798.525    -9742580.35549  -7586368.22749  22023798.3824   22023803.0744
  25065905.226    -6742217.85049  -4830025.85149  25065904.3064   25065914.5364
  25819975.114    -3262281.38549  -2400189.68949  25819974.3744   25819981.0954
  25735502.713    22378108.91249  17442671.23449  25735503.8914   25735510.1214
  21503130.182   -18724207.71049 -14144142.35249  21503129.9934   21503135.8504
 96 12  4 20 48  0.0040000  0  8 18 22 16 29 19  4 25 14
  23770605.402    -7994889.23149  -6220523.18349  23770604.1934   23770609.6544
  22359450.521   -17202100.53249 -13392555.32149  22359449.2854   22359455.4904
  23255387.043   -13635495.42049  -9771251.20049  23255386.4814   23255392.7274
  22026575.973    -9727984.40449  -7574994.76349  22026575.9294   22026580.5304
  25051996.822    -6815304.89349  -4886976.69249  25051996.7844   25052007.2994
  25818755.102    -3268690.74049  -2405183.96449  25818755.1184   25818766.2364
  25754986.022    22480493.02749  17522451.03449  25754986.7444   25754993.3964
  21509459.017   -18690949.83349 -14118227.12649  21509458.8224   21509464.8624
 96 12  4 20 48 30.0040000  0  8 18 22 16 29 19  4 25 14
  23758846.760    -8056680.05249  -6268671.82749  23758846.6934   23758851.4104
  22362594.191   -17185581.05249 -13379682.98349  22362592.9394   22362599.3834
  23243281.074   -13699112.81249  -9820823.17349  23243280.3824   23243286.6994
  22029394.515    -9713172.70449  -7563453.17349  22029394.4884   22029398.7814
  25038128.217    -6888186.57149  -4943767.58149  25038129.5244   25038137.5964
  25817631.388    -3274596.05849  -2409785.50749  25817631.0164   25817637.4294
  25774470.263    22582883.51949  17602235.82149  25774469.9264   25774477.5124
  21515896.870   -18657118.99749 -14091865.44149  21515897.0144   21515902.8104
 96 12  4 20 49  0.0040000  0  8 18 22 16 29 19  4 25 14
  23747095.682    -8118431.68449  -6316789.94449  23747094.7084   23747101.3524
  22365852.499   -17168458.72049 -13366340.89349  22365851.6534   22365857.5864
  23231235.278   -13762414.39849  -9870149.06549  23231234.7214   23231240.8754
  22032247.465    -9698180.61749  -7551771.02649  22032247.5824   22032251.8414
  25024295.408    -6960881.84849  -5000413.16649  25024297.7594   25024304.6324
  25816598.420    -3280023.77949  -2414014.90849  25816596.6124   25816601.4284
  25793951.518    22685258.07549  17682008.12649  25793952.4484   25793958.3194
  21522439.688   -18622736.54149 -14065073.92849  21522439.7154   21522445.9554
 96 12  4 20 49 30.0040000  0  8 18 22 16 29 19  4 25 14
  23735358.954    -8180107.84449  -6364849.26349  23735357.8944   23735364.7564
  22369229.896   -17150710.47049 -13352511.07749  22369228.9354   22369235.1794
  23219251.428   -13825390.15449  -9919221.05249  23219250.4274   23219257.2024
  22035137.863    -9682991.62049  -7539935.43349  22035137.6424   22035142.3984
  25010499.098    -7033386.19149  -5056910.00349  25010501.2804   25010508.2114
  25815659.587    -3284952.95149  -2417855.76449  25815660.3004   25815667.9854
  25813432.647    22787629.69849  17761778.22049  25813434.9714   25813438.3504
  21529092.193   -18587777.97749 -14037833.48749  21529092.1404   21529098.1984
 96 12  4 20 50  0.0040000  0  8 18 22 16 29 19  4 25 14
  23723641.074    -8241685.08349  -6412831.49349  23723641.1954   23723647.3724
  22372724.885   -17132343.92049 -13338199.46349  22372724.2754   22372729.8994
  23207330.309   -13888035.51249  -9968035.58749  23207329.5404   23207336.0194
  22038063.408    -9667617.63549  -7527955.70649  22038063.3464   22038068.2374
  24996738.049    -7105705.24649  -5113262.45549  24996739.5474   24996745.8844
  25814817.874    -3289378.92549  -2421304.61949  25814820.2224   25814822.9974
  25832912.872    22889997.63349  17841545.42049  25832913.9264   25832917.7494
  21535854.960   -18552239.37349 -14010141.07249  21535854.6184   21535861.2234
 96 12  4 20 50 30.0040000  0  8 18 22 16 29 19  4 25 14
  23711944.018    -8303155.01049  -6460730.09949  23711944.2234   23711949.3544
  22376337.552   -17113359.30649 -13323406.24049  22376336.6544   22376342.6054
  23195473.747   -13950341.65749 -10016585.81149  23195473.2584   23195479.3374
  22041021.767    -9652071.30849  -7515841.68849  22041021.5484   22041026.2764
  24983010.083    -7177848.67949  -5169478.06149  24983010.8814   24983017.4714
  25814071.207    -3293301.09549  -2424360.83049  25814070.1714   25814080.5664
  25852390.730    22992353.53849  17921303.23349  25852391.7724   25852396.4944
  21542726.693   -18516127.92949 -13982002.28649  21542726.4614   21542732.6724
 96 12  4 20 51  0.0040000  0  8 18 22 16 29 19  4 25 14
  23700267.179    -8364518.12849  -6508545.46849  23700266.1374   23700272.4594
  22380070.236   -17093743.67649 -13308121.31549  22380069.2804   22380075.3734
  23183681.232   -14012311.45449 -10064873.94349  23183680.3224   23183686.9914
  22044015.711    -9636338.07149  -7503582.02449  22044015.5764   22044020.4804
  24969312.575    -7249830.65449  -5225567.84049  24969313.4244   24969319.3644
  25813421.704    -3296709.36849  -2427016.64449  25813421.4804   25813427.8154
  25871866.776    23094699.30449  18001053.14649  25871867.6994   25871871.3454
  21549705.782   -18479452.80449 -13953424.26749  21549705.4494   21549711.3974
 96 12  4 20 51 30.0040000  0  8 18 22 16 29 19  4 25 14
  23688610.288    -8425775.32549  -6556278.30949  23688609.0074   23688615.4934
  22383921.983   -17073502.74749 -13292349.13949  22383921.2844   22383926.6554
  23171955.482   -14073930.38449 -10112888.68349  23171955.0194   23171961.5184
  22047046.425    -9620411.62349  -7491171.80649  22047046.1784   22047051.1444
  24955647.103    -7321641.93749  -5281524.56349  24955646.7854   24955654.5934
  25812872.434    -3299595.03849  -2429265.26449  25812868.8734   25812873.8984
  25891342.897    23197046.51449  18080804.19049  25891342.9364   25891347.6824
  21556792.448   -18442212.13949 -13924405.57149  21556791.9734   21556798.1094
 96 12  4 20 52  0.0040000  0  8 18 22 16 29 19  4 25 14
  23676971.305    -8486937.62549  -6603937.21849  23676970.7044   23676976.8964
  22387892.185   -17052639.22049 -13276091.83349  22387891.5254   22387897.1764
  23160299.939   -14135180.18449 -10160615.77849  23160299.5084   23160306.0024
  22050118.534    -9604267.16949  -7478591.71449  22050117.9414   22050123.0224
  24942018.840    -7393257.85149  -5337329.05049  24942018.2204   24942026.3984
  25812424.078    -3301949.49449  -2431099.87749  25812423.6814   25812430.5644
  25910820.144    23299399.52249  18160559.75449  25910819.9734   25910825.5044
  21563986.582   -18404406.63749 -13894946.74249  21563986.3034   21563992.2734
 96 12  4 20 52 30.0040000  0  8 18 22 16 29 19  4 25 14
  23665345.012    -8548033.36549  -6651544.25249  23665344.3034   23665350.4174
  22391982.213   -17031146.43949 -13259344.20449  22391981.5044   22391987.0484
  23148714.806   -14196060.65749 -10208055.08249  23148713.8794   23148720.5284
  22053234.791    -9587890.59449  -7465830.74649  22053234.2244   22053239.2254
  24928428.830    -7464675.47049  -5392979.04949  24928427.9384   24928436.0744
  25812075.736    -3303783.78349  -2432529.26249  25812076.5214   25812079.9554
  25930294.675    23401740.41649  18240305.84149  25930294.0114   25930300.9364
  21571282.480   -18366066.56049 -13865071.35549  21571282.0824   21571288.2954
 96 12  4 20 53  0.0040000  0  7 18 22 16 29 19  4 14
  23653730.469    -8609068.19649  -6699103.84849  23653730.0734   23653735.8534
  22396193.663   -17009015.11749 -13242099.01149  22396192.6584   22396198.4694
  23137201.589   -14256562.86349 -10255199.63849  23137200.7994   23137207.6604
  22056397.475    -9571269.88849  -7452879.54849  22056397.2144   22056402.1214
  24914877.169    -7535888.36649  -5448469.58349  24914876.9004   24914884.2754
  25811822.102    -3305108.31749  -2433561.24649  25811821.3984   25811830.5274
  21578679.860   -18327192.86349 -13834780.17049  21578679.4014   21578685.5334
 96 12  4 20 53 30.0040000  0  7 18 22 16 29 19  4 14
  23642130.541    -8670026.38349  -6746603.71249  23642130.2644   23642136.3204
  22400525.418   -16986251.52949 -13224361.15549  22400524.6004   22400530.6264
  23125764.127   -14316666.89949 -10302033.92649  23125763.8074   23125770.1294
  22059608.618    -9554395.27349  -7439730.49049  22059608.5614   22059613.1544
  24901366.968    -7606884.27149  -5503791.04749  24901366.8124   24901373.4044
  25811666.529    -3305931.51949  -2434202.63749  25811670.6924   25811674.9884
  21586182.248   -18287767.05649 -13804058.77049  21586181.7374   21586188.0644
 96 12  4 20 54  0.0040000  0  7 18 22 16 29 19  4 14
  23630542.397    -8730922.13749  -6794054.90649  23630541.1574   23630547.8314
  22404975.720   -16962865.52849 -13206138.30449  22404974.9594   22404980.6174
  23114399.212   -14376390.14549 -10348571.49749  23114398.2554   23114404.9644
  22062866.187    -9537277.05049  -7426391.61049  22062866.3754   22062870.7474
  24887893.747    -7677686.23249  -5558961.35449  24887893.5104   24887900.5804
  25811605.787    -3306263.33249  -2434461.28849  25811613.7924   25811611.3184
  21593787.776   -18247799.74749 -13772915.42049  21593787.5324   21593793.6894
 96 12  4 20 54 30.0040000  0  7 18 22 16 29 19  4 14
  23618968.548    -8791742.44949  -6841447.33749  23618967.7894   23618973.7134
  22409545.819   -16938849.61349 -13187424.60949  22409545.1454   22409550.4454
  23103108.278   -14435724.21649 -10394805.82449  23103107.5614   23103113.7834
  22066168.438    -9519923.98149  -7412869.73049  22066168.2004   22066173.3224
  24874454.788    -7748308.73449  -5613991.82049  24874453.9344   24874462.0314
  25811636.759    -3306108.38049  -2434340.71049  25811639.7844   25811642.8424
  21601497.256   -18207286.54749 -13741346.69549  21601497.1154   21601503.3294
 96 12  4 20 55  0.0040000  0  7 18 22 16 29 19  4 14
  23607415.721    -8852451.69149  -6888753.19749  23607414.6274   23607421.1714
  22414233.093   -16914217.36949 -13168230.65449  22414232.1004   22414237.6254
  23091893.190   -14494659.24949 -10440729.20849  23091892.6854   23091898.6974
  22069516.235    -9502330.70949  -7399160.68649  22069516.3124   22069521.1804
  24861049.608    -7818753.98049  -5668884.14349  24861049.9134   24861057.4054
  25811758.435    -3305462.46149  -2433837.31149  25811754.4844   25811766.7064
  21609315.959   -18166199.10849 -13709330.50849  21609315.8524   21609322.3074
 96 12  4 20 55 30.0040000  0  7 18 22 16 29 19  4 14
  23595885.491    -8913043.25349  -6935967.37749  23595885.1794   23595891.6584
  22419033.885   -16888989.05749 -13148572.23649  22419032.7974   22419038.2834
  23080754.228   -14553195.25949 -10486341.67049  23080753.4474   23080759.9754
  22072910.417    -9484494.53249  -7385262.36149  22072910.5024   22072915.3294
  24847676.606    -7889029.75049  -5723644.40549  24847677.0414   24847683.5424
  25811972.725    -3304334.13549  -2432958.08749  25811973.4834   25811982.8514
  21617242.663   -18124544.36049 -13676872.25749  21617242.2754   21617248.9104
 96 12  4 20 56  0.0040000  0  7 18 22 16 29 19  4 14
  23584372.994    -8973541.55649  -6983108.88349  23584372.8184   23584379.9574
  22423947.132   -16863169.35249 -13128452.97449  22423946.0054   22423950.9594
  23069688.764   -14611343.90649 -10531652.27949  23069687.7184   23069694.9344
  22076349.202    -9466423.50649  -7371181.04249  22076349.3914   22076354.2374
  24834335.028    -7959140.91949  -5778276.35649  24834335.1084   24834341.9074
  25812280.857    -3302719.76649  -2431700.20449  25812283.9484   25812286.5844
  21625274.291   -18082337.42549 -13643983.73549  21625273.9844   21625280.0784
 96 12  4 20 56 30.0040000  0  7 18 22 16 29 19  4 14
  23572879.175    -9033941.72649  -7030173.92449  23572878.2664   23572885.8664
  22428972.598   -16836759.84649 -13107874.12649  22428971.9064   22428977.1384
  23058696.865   -14669105.66949 -10576661.42649  23058695.8574   23058702.7984
  22079834.817    -9448106.08049  -7356907.72349  22079834.6894   22079839.9774
  24821025.560    -8029082.68049  -5832776.31649  24821024.5924   24821033.0734
  25812679.479    -3300624.73949  -2430067.73949  25812677.9954   25812688.8984
  21633412.517   -18039570.76049 -13610659.06649  21633412.3604   21633418.2604
 96 12  4 20 57  0.0040000  0  7 18 22 16 29 19  4 14
  23561403.031    -9094249.43649  -7077166.92849  23561402.4214   23561408.7774
  22434111.041   -16809757.98649 -13086833.70949  22434110.2894   22434115.6694
  23047776.421   -14726492.12249 -10621378.12949  23047775.6774   23047782.7184
  22083368.338    -9429537.64849  -7342438.81549  22083368.3124   22083373.3354
  24807749.179    -8098849.64849  -5887140.08449  24807748.6734   24807754.3124
  25813170.897    -3298042.33349  -2428055.48449  25813170.6444   25813181.0774
  21641659.156   -17996234.64449 -13576890.68149  21641658.6914   21641664.6764
 96 12  4 20 57 30.0040000  0  7 18 22 16 29 19  4 14
  23549942.208    -9154476.73649  -7124097.27049  23549941.8944   23549947.9684
  22439366.226   -16782142.33049 -13065315.01049  22439365.5904   22439371.1644
  23036925.802   -14783512.19949 -10665809.33449  23036925.2594   23036932.2034
  22086948.427    -9410724.68249  -7327779.35949  22086948.7344   22086953.6054
  24794509.892    -8168422.63649  -5941352.74649  24794509.8684   24794515.6044
  25813760.204    -3294948.32549  -2425644.64149  25813761.5954   25813765.7214
  21650014.923   -17952324.54549 -13542675.02749  21650014.5074   21650020.6044
 96 12  4 20 58  0.0040000  0  7 18 22 16 29 19  4 14
  23538495.704    -9214628.26849  -7170968.57249  23538495.4294   23538501.3204
  22444740.280   -16753901.95249 -13043309.51749  22444739.4604   22444744.7684
  23026143.777   -14840172.84149 -10709960.48249  23026143.9424   23026149.8154
  22090571.228    -9391687.26149  -7312945.01049  22090571.2464   22090575.8124
  24781310.185    -8237787.75749  -5995403.42849  24781310.2164   24781315.5774
  25814449.597    -3291325.93349  -2422822.02249  25814448.2694   25814455.5654
  21658481.545   -17907831.83049 -13508005.38049  21658481.4254   21658487.3464
 96 12  4 20 58 30.0040000  0  7 18 22 16 29 19  4 14
  23527068.443    -9274678.66749  -7217761.06249  23527068.2404   23527073.7764
  22450235.792   -16725023.08049 -13020806.49349  22450234.8964   22450240.5094
  23015433.655   -14896456.20649 -10753817.63249  23015433.1074   23015439.3424
  22094235.703    -9372430.58649  -7297939.80649  22094235.5194   22094240.0884
  24768153.771    -8306925.33149  -6049276.79649  24768153.6444   24768158.9774
  25815238.590    -3287180.92949  -2419592.19949  25815238.4324   25815245.9634
  21667060.685   -17862748.57049 -13472875.57049  21667060.1964   21667066.1974
 96 12  4 20 59  0.0040000  0  7 18 22 16 29 19  4 14
  23515659.138    -9334634.72149  -7264480.04849  23515658.9484   23515664.2314
  22455853.552   -16695501.75049 -12997802.85449  22455852.3774   22455858.1594
  23004796.268   -14952356.74349 -10797376.47149  23004796.0214   23004802.1924
  22097938.155    -9352974.14049  -7282778.94649  22097938.0764   22097942.3384
  24755043.439    -8375821.66849  -6102962.17449  24755043.8104   24755048.0224
  25816129.271    -3282501.96249  -2415946.25049  25816128.4264   25816140.6864
  21675748.106   -17817095.77749 -13437301.97149  21675747.6724   21675754.0704
 96 12  4 20 59 30.0040000  0  7 18 22 16 29 19  4 14
  23504266.255    -9394505.43249  -7311132.52349  23504266.1754   23504271.7124
  22461589.940   -16665356.38749 -12974312.95449  22461588.5764   22461594.6554
  22994232.056   -15007872.98649 -10840635.86649  22994231.2454   22994237.6904
  22101674.485    -9333339.57049  -7267479.27949  22101674.2394   22101678.9924
  24741977.604    -8444484.07749  -6156465.27549  24741977.8054   24741981.8414
  25817116.204    -3277315.32049  -2411904.72049  25817115.2534   25817125.0494
  21684538.134   -17770904.09849 -13401308.45549  21684537.6474   21684544.1794
 96 12  4 21  0  0.0040000  0  7 18 22 16 29 19  4 14
  23492893.051    -9454272.13849  -7357703.95749  23492891.9894   23492898.8654
  22467444.960   -16634586.49049 -12950336.39449  22467444.0024   22467450.3004
  22983746.089   -15062976.82649 -10883573.90949  22983745.1644   22983751.3854
  22105448.855    -9313504.95849  -7252023.74049  22105448.5664   22105453.4724
  24728955.853    -8512914.55549  -6209787.65649  24728954.4314   24728960.4334
  25818195.935    -3271639.92449  -2407482.39249  25818195.1054   25818200.1624
  21693431.597   -17724168.93349 -13364891.44949  21693431.5604   21693437.6144
 96 12  4 21  0 30.0040000  0  7 18 22 16 29 19  4 14
  23481539.292    -9513935.40849  -7404194.79749  23481538.5494   23481544.7664
  22473417.195   -16603202.13449 -12925881.03449  22473416.3784   22473422.3004
  22973336.084   -15117680.94249 -10926200.47549  22973334.5714   22973341.7544
  22109264.141    -9293455.71949  -7236400.95449  22109264.1454   22109269.0324
  24715972.605    -8581141.05149  -6262951.07149  24715970.3004   24715977.9154
  25819365.412    -3265491.85449  -2402691.72049  25819362.5574   25819369.4204
  21702423.819   -17676914.88049 -13328070.11249  21702423.8654   21702429.6944
 96 12  4 21  1  0.0040000  0  7 18 22 16 29 19  4 14
  23470209.038    -9573475.51649  -7450589.66449  23470209.0624   23470214.3024
  22479506.561   -16571202.83549 -12900946.49449  22479506.1224   22479511.0644
  22963002.504   -15171983.62349 -10968514.24349  22963001.3554   22963008.0384
  22113125.888    -9273161.42049  -7220587.21449  22113125.7124   22113130.6524
  24703026.001    -8649172.30049  -6315962.32149  24703022.6534   24703031.6734
  25820627.979    -3258856.30849  -2397521.21249  25820628.0114   25820633.8774
  21711516.969   -17629130.44149 -13290835.49049  21711516.7504   21711522.8124
 96 12  4 21  1 30.0040000  0  7 18 22 16 29 19  4 14
  23458901.447    -9632897.50949  -7496892.49549  23458901.3414   23458906.9634
  22485707.808   -16538615.53949 -12875553.77049  22485706.8494   22485712.8214
  22952744.168   -15225891.13449 -11010520.07849  22952743.3864   22952750.4264
  22117034.483    -9252621.47149  -7204582.05749  22117034.3164   22117038.9914
  24690110.391    -8717042.25949  -6368847.91149  24690108.4944   24690117.1894
  25821977.693    -3251760.99949  -2391992.43049  25821976.3284   25821983.7684
  21720710.530   -17580817.63649 -13253189.15849  21720710.0354   21720716.0674
 96 12  4 21  2  0.0040000  0  7 18 22 16 29 19  4 14
  23447620.125    -9692181.90849  -7543088.09949  23447620.0904   23447626.0104
  22492023.631   -16505425.37349 -12849691.27949  22492022.9374   22492027.8864
  22942564.362   -15279386.50349 -11052204.76649  22942563.7844   22942570.3114
  22120994.781    -9231809.62949  -7188365.03549  22120994.5744   22120999.2914
  24677227.433    -8784741.23849  -6421600.29949  24677226.8914   24677234.2714
  25823421.816    -3244167.74749  -2386075.57649  25823420.0984   25823431.3034
  21730008.683   -17531955.01249 -13215114.39149  21730008.4284   21730014.3274
 96 12  4 21  2 30.0040000  0  7 18 22 16 29 19  4 14
  23436360.266    -9751352.83349  -7589195.29349  23436359.9164   23436366.3164
  22498451.857   -16471645.37749 -12823369.19349  22498451.2664   22498456.3384
  22932461.333   -15332478.95949 -11093575.50449  22932461.2874   22932467.1474
  22125003.332    -9210744.37949  -7171950.55849  22125003.3694   22125008.2534
  24664376.772    -8852271.34649  -6474221.08049  24664376.5274   24664383.7744
  25824961.627    -3236075.38549  -2379769.82749  25824961.8714   25824970.6584
  21739409.236   -17482555.01949 -13176620.90149  21739409.1104   21739414.8704
 96 12  4 21  3  0.0040000  0  7 18 22 16 29 19  4 14
  23425121.309    -9810413.71249  -7635216.74349  23425121.3564   23425127.0294
  22504992.487   -16437274.27249 -12796586.51149  22504991.6584   22504996.3694
  22922439.946   -15385142.65549 -11134612.13649  22922439.3454   22922445.3134
  22129058.239    -9189435.83949  -7155346.50049  22129058.1824   22129063.1604
  24651562.822    -8919609.14549  -6526692.03549  24651562.4684   24651568.8674
  25826598.592    -3227478.59749  -2373071.08949  25826600.2074   25826604.6884
  21748916.520   -17432593.95949 -13137690.21649  21748915.7694   21748921.9814
 96 12  4 21  3 30.0040000  0  7 18 22 16 29 19  4 14
  23413899.804    -9869382.82549  -7681166.68449  23413898.9254   23413905.5674
  22511646.400   -16402307.63449 -12769339.78049  22511645.0424   22511650.6524
  22912501.061   -15437371.66849 -11175310.06049  22912500.5064   22912507.0234
  22133157.200    -9167895.68249  -7138561.96949  22133157.4244   22133162.1694
  24638789.234    -8986734.92749  -6578997.76049  24638789.7514   24638795.2154
  25828332.523    -3218370.11049  -2365973.60749  25828333.5174   25828337.8214
  21758531.604   -17382065.53049 -13098317.43249  21758530.7434   21758537.2634
 96 12  4 21  4  0.0040000  0  7 18 22 16 29 19  4 14
  23402692.664    -9928276.65249  -7727057.96249  23402692.6834   23402698.2594
  22518412.836   -16366749.01849 -12741631.77149  22518411.8684   22518417.3644
  22902639.995   -15489192.28849 -11215689.76149  22902639.0434   22902645.7534
  22137296.388    -9146144.84349  -7121613.27049  22137296.4494   22137301.0784
  24626057.264    -9053643.67249  -6631134.38549  24626058.0154   24626062.9374
  25830160.608    -3208766.36449  -2358490.20249  25830161.7114   25830167.2534
  21768251.207   -17330987.97649 -13058516.75449  21768250.7944   21768257.1864
 96 12  4 21  4 30.0040000  0  7 18 22 16 29 19  4 14
  23391503.690    -9987075.50449  -7772875.23049  23391503.5294   23391508.5414
  22525297.062   -16330572.02449 -12713441.90149  22525295.8824   22525301.4854
  22892858.577   -15540593.17849 -11255742.38649  22892858.0744   22892864.8004
  22141479.294    -9124164.41249  -7104485.66949  22141479.1834   22141483.6044
  24613372.251    -9120306.14949  -6683079.11649  24613371.9674   24613377.1914
  25832082.404    -3198664.53649  -2350618.64349  25832080.5634   25832089.5114
  21778079.480   -17279339.90149 -13018271.51849  21778079.1904   21778085.7624
 96 12  4 21  5  0.0040000  0  7 18 22 16 29 19  4 14
  23380332.356   -10045781.07849  -7818619.82249  23380331.4934   23380337.2924
  22532298.295   -16293780.85549 -12684773.44649  22532297.2054   22532302.4744
  22883154.715   -15591588.03149 -11295478.62249  22883154.2124   22883160.7664
  22145705.653    -9101954.93849  -7087179.59049  22145705.4774   22145709.7644
  24600730.218    -9186740.90749  -6734846.39749  24600730.1094   24600735.5934
  25834096.544    -3188075.91649  -2342367.74549  25834096.6674   25834101.2714
  21788014.240   -17227132.22149 -12977590.22649  21788014.5214   21788020.8674
 96 12  4 21  5 30.0040000  0  7 18 22 16 29 19  4 14
  23369178.150   -10104395.38349  -7864293.28349  23369177.4154   23369183.7694
  22539415.739   -16256378.74749 -12655628.93549  22539414.7284   22539420.2144
  22873524.989   -15642192.85949 -11334910.93749  22873523.9794   22873530.6964
  22149975.885    -9079514.87449  -7069693.83449  22149975.9914   22149980.0894
  24588128.308    -9252962.80449  -6786447.75949  24588126.6844   24588134.5854
  25836201.928    -3177014.52149  -2333748.49849  25836203.9684   25836205.1334
  21798051.524   -17174386.92949 -12936490.00649  21798051.4834   21798057.8274
 96 12  4 21  6  0.0040000  0  7 18 22 16 29 19  4 14
  23358047.212   -10162888.24749  -7909872.12049  23358046.8414   23358052.3674
  22546654.619   -16218338.06149 -12625986.84049  22546653.9064   22546658.8574
  22863976.975   -15692367.88549 -11374008.34849  22863976.0094   22863982.5114
  22154298.257    -9056800.68949  -7051994.47949  22154298.0094   22154302.8534
  24575569.215    -9318959.96449  -6837874.05449  24575568.1684   24575574.6534
  25838399.926    -3165465.58149  -2324749.38249  25838399.8584   25838405.7844
  21808192.727   -17121095.05349 -12894963.87749  21808192.6824   21808198.4584
 96 12  4 21  6 30.0040000  0  7 18 22 16 29 19  4 14
  23346934.869   -10221284.57649  -7955375.73949  23346934.9734   23346940.0724
  22554011.693   -16179675.94349 -12595860.51049  22554011.1434   22554016.1594
  22854512.614   -15742102.80649 -11412762.82049  22854511.8014   22854518.3624
  22158672.393    -9033814.14649  -7034082.89749  22158672.2504   22158677.4744
  24563048.373    -9384757.08449  -6889144.46149  24563046.6774   24563054.3234
  25840690.664    -3153427.75549  -2315369.27449  25840690.3624   25840697.9714
  21818435.219   -17067270.87949 -12853022.97149  21818434.9124   21818440.5034
 96 12  4 21  7  0.0040000  0  7 18 22 16 29 19  4 14
  23335839.825   -10279590.11749  -8000808.60449  23335839.8044   23335845.4124
  22561484.447   -16140406.89149 -12565261.25249  22561483.4704   22561489.1204
  22845133.713   -15791389.25549 -11451167.83249  22845133.0334   22845139.2004
  22163095.447    -9010570.80849  -7015971.20649  22163095.2984   22163100.2044
  24550562.320    -9450369.17449  -6940270.68449  24550561.0104   24550568.4014
  25843075.508    -3140896.34849  -2305604.53249  25843075.0014   25843085.6304
  21828776.947   -17012924.68549 -12810675.30149  21828776.3134   21828782.4454
 96 12  4 21  7 30.0040000  0  7 18 22 16 29 19  4 14
  23324766.816   -10337779.74849  -8046151.14649  23324766.6404   23324772.3904
  22569074.730   -16100519.57649 -12534180.23449  22569073.7054   22569078.8144
  22835845.924   -15840196.70449 -11489199.60149  22835845.0434   22835851.8344
  22167570.081    -8987056.37449  -6997648.27449  22167569.7914   22167574.8644
  24538115.760    -9515775.57249  -6991236.62149  24538115.3364   24538122.1824
  25845559.768    -3127841.75549  -2295432.14849  25845559.5614   25845568.3074
  21839222.368   -16958033.41649 -12767902.90649  21839221.9514   21839228.2114
 96 12  4 21  8  0.0040000  0  7 18 22 16 29 19  4 14
  23313712.288   -10395872.47849  -8091418.20349  23313712.1234   23313717.1694
  22576777.035   -16060043.33049 -12502640.30449  22576776.0634   22576781.4504
  22826647.067   -15888536.71349 -11526867.12949  22826646.0024   22826653.1054
  22172091.049    -8963298.54149  -6979135.68449  22172090.7814   22172096.1894
  24525705.448    -9580992.41049  -7042054.89849  24525705.6374   24525711.1504
  25848141.154    -3114273.84349  -2284859.72649  25848139.9054   25848150.4914
  21849769.333   -16902608.50149 -12724714.67349  21849769.1604   21849775.3374
 96 12  4 21  8 30.0040000  0  7 18 22 16 29 19  4 14
  23302679.802   -10453848.64249  -8136594.41749  23302679.7314   23302684.2904
  22584590.192   -16018984.95149 -12470646.76449  22584589.0444   22584594.7764
  22817534.082   -15936424.89749 -11564182.59149  22817532.9714   22817540.2964
  22176655.079    -8939314.30349  -6960446.68049  22176654.9114   22176660.1614
  24513333.099    -9646010.33149  -7092718.17049  24513334.0124   24513338.5674
  25850821.806    -3100184.59849  -2273881.07849  25850820.6494   25850830.8784
  21860422.053   -16846628.22949 -12681093.69649  21860421.9854   21860428.1834
 96 12  4 21  9  0.0040000  0  7 18 22 16 29 19  4 14
  23291674.443   -10511681.45449  -8181658.92049  23291674.0204   23291678.8044
  22592513.812   -15977345.45449 -12438200.38949  22592512.5294   22592518.3594
  22808505.215   -15983871.74349 -11601154.15349  22808504.3014   22808511.5454
  22181261.551    -8915107.08249  -6941583.91749  22181260.9834   22181266.3654
  24500999.879    -9710823.30249  -7143221.73149  24500999.9514   24501005.6644
  25853598.498    -3085593.85049  -2262511.68149  25853600.2354   25853608.6734
  21871181.188   -16790088.59049 -12637036.85149  21871181.1764   21871187.4564
 96 12  4 21  9 30.0040000  0  7 18 22 16 29 19  4 14
  23280697.279   -10569366.50549  -8226608.29449  23280697.6584   23280701.4064
  22600547.868   -15935126.24149 -12405302.29449  22600546.8174   22600552.0794
  22799559.543   -16030881.25049 -11637784.92949  22799558.6444   22799565.1544
  22185914.701    -8890654.55849  -6922530.00949  22185914.3314   22185919.4794
  24488709.375    -9775410.26949  -7193549.17749  24488707.8604   24488714.9044
  25856468.462    -3070514.68349  -2250761.73449  25856470.5684   25856475.2464
  21882047.303   -16732987.52149 -12592542.52249  21882047.2444   21882053.5334
 96 12  4 21 10  0.0040000  0  7 18 22 16 29 19  4 14
  23269745.845   -10626917.07849  -8271452.88149  23269745.7304   23269750.7324
  22608691.978   -15892328.68449 -12371953.52549  22608691.0094   22608696.1894
  22790693.580   -16077471.96649 -11674089.37549  22790693.3014   22790699.8374
  22190614.071    -8865958.89249  -6903286.64549  22190613.9684   22190619.0994
  24476462.029    -9839767.24949  -7243697.40649  24476461.3684   24476468.7794
  25859426.914    -3054970.33949  -2238649.27649  25859425.8024   25859433.2024
  21893018.047   -16675335.89149 -12547619.19049  21893018.1194   21893024.3134
 96 12  4 21 10 30.0040000  0  7 18 22 16 29 19  4 14
  23258820.620   -10684329.92049  -8316190.14149  23258820.5444   23258825.8334
  22616949.560   -15848935.48949 -12338140.64049  22616948.8824   22616953.9764
  22781907.915   -16123641.68149 -11710065.76949  22781907.4944   22781913.8654
  22195363.540    -8841000.47749  -6883838.53449  22195363.5204   22195368.7064
  24464258.738    -9903894.66849  -7293666.79949  24464257.8374   24464266.2864
  25862473.103    -3038962.26549  -2226175.46849  25862471.9334   25862480.3204
  21904092.617   -16617138.93449 -12502270.92549  21904092.4524   21904098.5774
 96 12  4 21 11  0.0040000  0  7 18 22 16 29 19  4 14
  23247919.825   -10741614.07449  -8360827.12349  23247919.7004   23247924.9264
  22625323.601   -15804929.86649 -12303850.53649  22625323.0154   22625328.0414
  22773206.887   -16169366.11349 -11745695.18049  22773206.2574   22773212.8424
  22200166.111    -8815762.73949  -6864172.76649  22200165.8654   22200171.1224
  24452100.164    -9967788.51849  -7343454.16649  24452098.9744   24452107.2064
  25865608.931    -3022482.50449  -2213334.10149  25865608.0924   25865614.9044
  21915270.432   -16558399.16949 -12456499.69049  21915270.3044   21915276.3154
 96 12  4 21 11 30.0040000  0  7 18 22 16 29 19  4 14
  23237035.766   -10798810.14949  -8405395.47949  23237035.5254   23237041.2884
  22633810.054   -15760333.35649 -12269099.99449  22633808.7604   22633814.3894
  22764587.371   -16214662.11649 -11780990.75849  22764586.9844   22764593.4294
  22205018.136    -8790265.13049  -6844304.50549  22205017.8864   22205023.1424
  24439980.618   -10031476.12549  -7393080.81049  24439978.8754   24439987.6454
  25868834.182    -3005536.75449  -2200129.63549  25868834.4594   25868841.5764
  21926548.123   -16499134.77849 -12410319.65749  21926547.8674   21926553.9714
 96 12  4 21 12  0.0040000  0  7 18 22 16 29 19  4 14
  23226167.365   -10855923.85949  -8449899.64149  23226167.2994   23226172.7274
  22642409.019   -15715145.25349 -12233888.47549  22642408.2774   22642413.3284
  22756049.461   -16259529.05749 -11815951.99249  22756048.6854   22756055.4154
  22209916.402    -8764523.82549  -6824246.34849  22209916.0754   22209921.5064
  24427892.597   -10094998.64349  -7442578.85349  24427892.8324   24427899.2664
  25872147.899    -2988122.75949  -2186560.30649  25872144.4374   25872155.5554
  21937924.458   -16439352.04249 -12363735.72049  21937924.3614   21937930.1164
 96 12  4 21 12 30.0040000  0  7 18 22 16 29 19  4 14
  23215319.483   -10912930.00749  -8494319.98949  23215319.2494   23215324.5064
  22651122.964   -15669353.15949 -12198206.30549  22651122.2244   22651127.5504
  22747597.879   -16303942.41949 -11850559.79449  22747597.0564   22747603.7674
  22214862.859    -8738528.89149  -6803990.55849  22214862.2914   22214868.2794
  24415836.904   -10158352.13449  -7491945.19049  24415836.0184   24415843.6454
  25875554.181    -2970220.49149  -2172610.48249  25875553.9774   25875557.7254
  21949401.776   -16379039.17449 -12316738.69749  21949401.7654   21949407.4354
 96 12  4 21 13  0.0040000  0  7 18 22 16 29 19  4 14
  23204494.545   -10969814.81849  -8538645.77949  23204493.9234   23204499.0964
  22659951.821   -15622957.37749 -12162053.72749  22659950.6334   22659956.3694
  22739236.447   -16347881.63349 -11884798.13249  22739235.5454   22739242.0864
  22219857.994    -8712278.85949  -6783535.98649  22219857.7334   22219863.4894
  24403815.861   -10221522.37049  -7541168.70849  24403815.3904   24403821.8764
  25879054.482    -2951827.58949  -2158278.39449  25879054.6234   25879057.2694
  21960980.379   -16318193.45549 -12269326.46349  21960980.1404   21960985.9694
 96 12  4 21 13 30.0040000  0  7 18 22 16 29 19  4 14
  23193695.953   -11026561.25149  -8582863.76249  23193695.7894   23193700.6274
  22668895.002   -15575960.64049 -12125432.87749  22668893.4424   22668899.8924
  22730965.198   -16391347.65049 -11918667.75049  22730964.7814   22730971.1084
  22224900.856    -8685778.52249  -6762886.38049  22224900.8114   22224906.1744
  24391830.497   -10284505.89749  -7590246.75549  24391830.2574   24391837.2374
  25882646.162    -2932955.90549  -2143573.22049  25882649.0154   25882650.1904
  21972659.212   -16256820.97449 -12221503.77549  21972658.7654   21972664.8504
 96 12  4 21 14  0.0040000  0  7 18 22 16 29 19  4 14
  23182929.190   -11083140.86049  -8626951.74349  23182928.2034   23182934.4004
  22677955.582   -15528346.25749 -12088330.75749  22677954.5494   22677959.8224
  22722790.097   -16434308.08249 -11952143.40549  22722789.3804   22722796.1224
  22229992.045    -8659024.10249  -6742038.78249  22229992.2474   22229997.4704
  24379886.003   -10347274.25749  -7639157.15449  24379886.4364   24379891.7644
  25886330.377    -2913597.61049  -2128488.86949  25886328.8774   25886329.7894
  21984440.421   -16194909.80049 -12173261.31949  21984439.4394   21984445.7034
 96 12  4 21 14 30.0040000  0  7 18 22 16 29 19  4 14
  23172191.208   -11139568.63449  -8670921.41849  23172190.5064   23172196.2334
  22687128.901   -15480140.19749 -12050767.59249  22687127.8084   22687133.3474
  22714711.004   -16476763.71949 -11985225.71249  22714710.0934   22714717.6744
  22235127.661    -8632036.73949  -6721009.66649  22235127.7514   22235132.8544
  24367986.331   -10409808.90449  -7687885.42249  24367985.6054   24367991.9534
  25890100.654    -2893777.82949  -2113044.85249  25890098.8884   25890104.7824
  21996320.999   -16132476.24749 -12124611.80749  21996320.7844   21996327.0954
 96 12  4 21 15  0.0040000  0  7 18 22 16 29 19  4 14
  23161479.367   -11195859.06349  -8714784.06649  23161478.6824   23161484.5884
  22696410.141   -15431366.97349 -12012762.49149  22696409.5634   22696414.4924
  22706726.376   -16518722.38449 -12017920.77049  22706725.5414   22706732.7464
  22240306.090    -8604824.31049  -6699805.17349  22240305.9474   22240311.0274
  24356129.934   -10472113.41449  -7736434.36649  24356129.4124   24356136.5304
  25893957.739    -2873509.32249  -2097251.23749  25893962.7334   25893966.4584
  22008300.269   -16069524.67849 -12075558.65249  22008300.0714   22008306.1534
 96 12  4 21 15 30.0040000  0  7 18 22 16 29 19  4 14
  23150793.364   -11252013.74549  -8758540.94049  23150793.0594   23150798.9614
  22705798.662   -15382030.51649 -11974318.51049  22705797.7434   22705803.2674
  22698836.745   -16560182.85449 -12050227.62649  22698836.2334   22698842.9004
  22245529.870    -8577373.03449  -6678414.57749  22245529.9504   22245534.8034
  24344318.694   -10534180.32449  -7784798.16649  24344317.7994   24344325.3854
  25897905.406    -2852770.95949  -2081091.49649  25897906.9524   25897913.9854
  22020383.575   -16006026.47649 -12026079.55249  22020383.3864   22020389.4924
 96 12  4 21 16  0.0040000  0  7 18 22 16 29 19  4 14
  23140125.889   -11308071.53949  -8802222.31949  23140125.5444   23140131.7584
  22715287.475   -15332166.48949 -11935463.42849  22715286.5944   22715291.8734
  22691038.808   -16601161.75449 -12082159.22549  22691037.9714   22691044.9104
  22250798.615    -8549685.44549  -6656839.83349  22250798.7734   22250803.8554
  24332549.597   -10596027.10949  -7832990.43949  24332549.3274   24332556.2824
  25901940.407    -2831570.11749  -2064571.42549  25901939.6704   25901944.3614
  22032567.787   -15941998.30849 -11976187.48849  22032567.5514   22032573.8254
 96 12  4 21 16 30.0040000  0  7 18 22 16 29 19  4 14
  23129475.867   -11364037.32049  -8845831.98849  23129475.2974   23129481.8744
  22724873.535   -15281791.31249 -11896210.05349  22724872.6984   22724878.0484
  22683326.784   -16641687.94549 -12113738.06049  22683325.9904   22683332.8354
  22256116.108    -8521741.91149  -6635065.65149  22256115.8624   22256121.1324
  24320820.338   -10657665.25649  -7881020.12749  24320819.1674   24320827.4794
  25906061.658    -2809909.72849  -2047693.23449  25906057.0204   25906066.6504
  22044848.791   -15877461.00849 -11925898.69949  22044848.3394   22044854.7444
 96 12  4 21 17  0.0040000  0  7 18 22 16 29 19  4 14
  23118849.967   -11419876.54749  -8889343.05449  23118849.6034   23118855.7904
  22734562.583   -15230874.39949 -11856534.55449  22734561.3014   22734567.4514
  22675703.203   -16681749.89049 -12144955.16649  22675702.6284   22675709.1184
  22261489.918    -8493502.17649  -6613060.67549  22261489.4024   22261494.7274
  24309134.245   -10719074.39549  -7928871.36849  24309133.7374   24309140.9454
  25910277.100    -2787749.41849  -2030425.47549  25910275.0704   25910284.7284
  22057231.663   -15812388.45349 -11875192.83649  22057231.2374   22057237.5014
 96 12  4 21 17 30.0040000  0  7 18 22 16 29 19  4 14
  23108246.067   -11475600.12849  -8932763.99849  23108245.9444   23108251.6224
  22744354.589   -15179417.12949 -11816437.98249  22744353.5124   22744359.4664
  22668164.887   -16721363.78649 -12175823.12649  22668163.9574   22668170.6374
  22266915.563    -8464989.95549  -6590843.36249  22266915.4954   22266920.8414
  24297488.291   -10780274.26149  -7976559.56449  24297489.2284   24297494.6574
  25914584.916    -2765112.66349  -2012786.49549  25914586.8054   25914592.1974
  22069710.295   -15746812.19449 -11824094.46649  22069709.8584   22069716.0784
 96 12  4 21 18  0.0040000  0  7 18 22 16 29 19  4 14
  23097669.841   -11531178.65449  -8976071.91349  23097669.1764   23097675.7034
  22754256.051   -15127384.45049 -11775893.04049  22754254.9974   22754260.7684
  22660714.442   -16760516.20149 -12206331.49549  22660714.2944   22660720.4384
  22272394.175    -8436199.88649  -6568409.54649  22272393.8734   22272399.4004
  24285884.849   -10841252.90449  -8024075.37849  24285884.9824   24285890.8254
  25918983.178    -2742000.55849  -1994777.10549  25918981.4034   25918989.2544
  22082282.923   -15680742.66749 -11772611.73949  22082282.7944   22082288.9734
 96 12  4 21 18 30.0040000  0  7 18 22 16 29 19  4 14
  23087127.031   -11586581.05449  -9019242.59449  23087126.7054   23087132.5274
  22764275.250   -15074733.14149 -11734866.04349  22764274.4214   22764280.5564
  22653354.724   -16799192.60449 -12236468.95449  22653354.4494   22653360.3814
  22277926.771    -8407126.21949  -6545754.74649  22277926.5724   22277932.1004
  24274325.903   -10901996.33749  -8071407.89449  24274325.9444   24274331.5694
  25923471.993    -2718405.75249  -1976391.52249  25923470.7054   25923478.5734
  22094951.893   -15614167.38649 -11720734.91449  22094951.7234   22094957.6704
 96 12  4 21 19  0.0040000  0  7 18 22 16 29 19  4 14
  23076614.648   -11641824.76949  -9062289.62549  23076614.8424   23076620.0444
  22774412.526   -15021461.69349 -11693355.83849  22774411.4534   22774417.5424
  22646084.325   -16837399.34749 -12266240.43149  22646083.9724   22646090.0574
  22283507.168    -8377800.81649  -6522903.79349  22283506.8494   22283512.5684
  24262808.076   -10962522.21249  -8118570.87749  24262807.7684   24262814.4324
  25928049.140    -2694352.93349  -1957649.06049  25928050.1844   25928056.0514
  22107715.783   -15547092.78249 -11668469.00849  22107715.6574   22107721.5194
 96 12  4 21 19 30.0040000  0  7 18 22 16 29 19  4 14
  23066135.949   -11696890.93949  -9105198.30349  23066135.6874   23066141.3944
  22784673.685   -14967538.68149 -11651337.91749  22784673.1394   22784678.5814
  22638907.976   -16875111.84049 -12295626.77749  22638907.1214   22638913.9634
  22289139.589    -8348202.65249  -6499840.28749  22289139.8904   22289144.7914
  24251334.024   -11022819.97149  -8165556.12749  24251334.6204   24251339.8914
  25932716.113    -2669832.53349  -1938542.29849  25932720.9814   25932721.7394
  22120577.109   -15479506.45449 -11615804.35649  22120577.0234   22120583.0924
 96 12  4 21 20  0.0040000  0  7 18 22 16 29 19  4 14
  23055686.882   -11751801.17149  -9147985.47949  23055686.0014   23055691.8154
  22795052.590   -14912997.34149 -11608838.17849  22795051.7444   22795057.8274
  22631821.612   -16912350.94649 -12324644.25449  22631820.4774   22631827.6394
  22294823.275    -8318335.19349  -6476566.94449  22294822.9354   22294828.4824
  24239900.182   -11082907.08749  -8212377.22749  24239900.2964   24239905.6954
  25937470.130    -2644858.71849  -1919082.34849  25937470.0834   25937475.1434
  22133533.956   -15411417.66749 -11562748.17849  22133533.7834   22133539.8294
 96 12  4 21 20 30.0040000  0  7 18 22 16 29 19  4 14
  23045269.205   -11806546.19349  -9190643.91449  23045269.0224   23045274.6394
  22805546.781   -14857850.43049 -11565866.57449  22805545.8894   22805551.6644
  22624827.131   -16949106.55849 -12353284.98949  22624826.4694   22624833.8644
  22300561.235    -8288181.95249  -6453070.92149  22300561.2334   22300566.3614
  24228507.664   -11142776.71649  -8259028.83449  24228507.4634   24228512.5834
  25942310.575    -2619422.23449  -1899261.75849  25942306.6654   25942319.1154
  22146588.722   -15342814.72749 -11509291.36249  22146588.3364   22146594.5854
 96 12  4 21 21  0.0040000  0  7 18 22 16 29 19  4 14
  23034881.628   -11861133.41449  -9233179.39949  23034881.7834   23034887.2574
  22816147.904   -14802141.23149 -11522456.81949  22816146.7904   22816152.6934
  22617923.599   -16985384.41349 -12381553.43549  22617922.7284   22617930.0564
  22306350.864    -8257757.23149  -6429363.35749  22306350.9154   22306356.0674
  24217153.745   -11202442.66749  -8305521.73649  24217153.2744   24217159.6734
  25947238.052    -2593520.27749  -1879078.42049  25947232.0754   25947245.4784
  22159738.562   -15273712.20249 -11455445.25349  22159738.3724   22159743.9664
 96 12  4 21 21 30.0040000  0  7 18 22 16 29 19  4 14
  23024519.608   -11915587.16249  -9275610.88049  23024519.5174   23024524.7224
  22826847.747   -14745912.83949 -11478642.49049  22826847.2234   22826852.6584
  22611109.219   -17021193.50049 -12409456.61449  22611108.1764   22611115.2524
  22312188.495    -8227080.79949  -6405459.64349  22312188.4434   22312193.8304
  24205834.840   -11261923.94249  -8351870.73349  24205833.7704   24205839.4674
  25952252.842    -2567157.65449  -1858536.07249  25952249.7314   25952261.2964
  22172980.908   -15204123.51149 -11401220.31549  22172980.5354   22172986.5134
 96 12  4 21 22  0.0040000  0  7 18 22 16 29 19  4 14
  23014185.751   -11969892.74949  -9317926.90249  23014185.5514   23014190.6204
  22837648.065   -14689157.19049 -11434417.32149  22837647.0664   22837652.6264
  22604391.689   -17056493.74449 -12436963.29549  22604390.6064   22604397.6564
  22318077.338    -8196134.83149  -6381345.90549  22318077.1474   22318082.0994
  24194556.525   -11321190.35049  -8398052.30549  24194555.0684   24194562.0844
  25957361.495    -2540308.91449  -1837615.04149  25957361.9724   25957368.4534
  22186321.879   -15134016.26049 -11346591.30849  22186321.4794   22186327.6294
 96 12  4 21 22 30.0040000  0  7 18 22 16 29 19  4 14
  23003875.372   -12024074.26149  -9360146.24049  23003875.2694   23003880.7304
  22848546.229   -14631886.96649 -11389791.17449  22848545.2114   22848550.8594
  22597770.024   -17091290.23849 -12464077.43049  22597769.4804   22597776.6154
  22324010.815    -8164954.06649  -6357049.21249  22324010.6694   22324015.9324
  24183314.494   -11380266.07649  -8444085.30749  24183313.9904   24183319.8264
  25962559.486    -2512996.86749  -1816333.02049  25962563.2814   25962560.9444
  22199756.579   -15063416.27549 -11291578.34749  22199756.0194   22199762.2464
 96 12  4 21 23  0.0040000  0  7 18 22 16 29 19  4 14
  22993587.376   -12078137.94549  -9402273.77049  22993586.4514   22993592.4554
  22859544.143   -14574092.48049 -11344756.51649  22859542.9184   22859549.0704
  22591247.172   -17125568.38049 -12490787.66349  22591246.9254   22591253.1744
  22329990.236    -8133532.30449  -6332564.72349  22329990.0604   22329995.4514
  24172111.199   -11439140.19749  -8489961.21949  24172111.5854   24172116.0894
  25967846.270    -2485223.49949  -1794691.51449  25967850.5714   25967856.2094
  22213288.757   -14992304.05749 -11236166.24249  22213288.2914   22213294.3504
 96 12  4 21 23 30.0040000  0  7 18 22 16 29 19  4 14
  22983318.553   -12132100.43849  -9444322.45049  22983317.8404   22983323.4924
  22870642.422   -14515770.86549 -11299311.10549  22870641.7744   22870646.7294
  22584822.681   -17159330.08249 -12517095.47749  22584822.2834   22584828.5914
  22336016.874    -8101862.56949  -6307887.01149  22336016.6974   22336021.9324
  24160946.151   -11497813.63549  -8535680.74749  24160945.1864   24160949.5044
  25973211.812    -2457026.96349  -1772720.20449  25973210.9804   25973221.1864
  22226918.333   -14920679.83949 -11180355.17749  22226917.7854   22226924.3174
 96 12  4 21 24  0.0040000  0  7 18 22 16 29 19  4 14
  22973074.597   -12185932.04249  -9486269.14449  22973073.9924   22973079.9224
  22881845.414   -14456899.44849 -11253437.28449  22881844.9584   22881849.7184
  22578496.898   -17192572.91849 -12542998.98249  22578496.5424   22578502.6894
  22342097.385    -8069910.11149  -6282988.99749  22342097.4784   22342102.2504
  24149821.715   -11556271.53349  -8581232.31249  24149820.5474   24149826.3374
  25978656.976    -2428408.53849  -1750420.14049  25978654.0124   25978666.5554
  22240646.075   -14848539.63949 -11124142.04549  22240645.5214   22240652.1184
 96 12  4 21 24 30.0040000  0  7 18 22 16 29 19  4 14
  22962859.426   -12239612.87549  -9528098.35349  22962859.1334   22962864.9944
  22893153.474   -14397475.90949 -11207133.23149  22893151.9614   22893157.6674
  22572267.642   -17225307.91849 -12568506.77049  22572267.1554   22572273.4574
  22348234.818    -8037657.71749  -6257857.26949  22348234.1994   22348239.5434
  24138739.090   -11614509.87849  -8626612.81549  24138738.4794   24138743.1794
  25984184.381    -2399361.86749  -1727786.38149  25984185.6634   25984193.6494
  22254470.407   -14775891.85449 -11067533.39749  22254470.0914   22254476.2814
 96 12  4 21 25  0.0040000  0  7 18 22 16 29 19  4 14
  22952672.886   -12293143.80849  -9569810.76149  22952672.7554   22952678.5944
  22904563.251   -14337516.84849 -11160411.88949  22904561.8524   22904567.4624
  22566130.419   -17257559.28249 -12593637.69749  22566129.8334   22566136.3224
  22354429.815    -8005102.16849  -6232489.32349  22354429.6504   22354434.3004
  24127698.267   -11672529.85149  -8671823.16049  24127697.6624   24127703.4534
  25989794.194    -2369887.75449  -1704819.56549  25989799.8164   25989801.7654
  22268390.149   -14702743.08249 -11010534.37949  22268390.0544   22268396.0474
 96 12  4 21 25 30.0040000  0  7 18 22 16 29 19  4 14
  22942517.883   -12346509.49549  -9611394.40249  22942517.4664   22942523.0804
  22916075.777   -14277018.33149 -11113270.18649  22916074.3324   22916080.8204
  22560086.157   -17289322.25249 -12618388.06049  22560085.2984   22560092.2824
  22360682.387    -7972244.70849  -6206886.11849  22360682.3024   22360686.9664
  24116697.444   -11730337.51249  -8716868.05449  24116696.0594   24116703.1564
  25995489.706    -2339963.63549  -1681502.13549  25995490.3274   25995494.9904
  22282400.931   -14629115.80649 -10953162.48749  22282400.4654   22282406.8184
 96 12  4 21 26  0.0040000  0  7 18 22 16 29 19  4 14
  22932396.057   -12399700.25849  -9652841.73649  22932395.1534   22932401.1074
  22927693.550   -14215965.79849 -11065696.78249  22927692.1894   22927698.2124
  22554135.384   -17320593.39249 -12642755.17349  22554134.3884   22554141.4944
  22366988.545    -7939105.43949  -6181063.31649  22366988.5564   22366993.2234
  24105737.065   -11787932.41849  -8761747.16749  24105736.4864   24105743.1994
  26001273.814    -2309565.97349  -1657815.63149  26001273.7434   26001281.4134
  22296501.840   -14555014.64849 -10895421.33949  22296501.5934   22296508.0944
 96 12  4 21 26 30.0040000  0  7 18 22 16 29 19  4 14
  22922306.380   -12452721.38049  -9694156.88949  22922305.5784   22922311.4914
  22939416.730   -14154359.26549 -11017691.68849  22939415.7834   22939421.8084
  22548282.868   -17351348.49549 -12666720.18249  22548282.1094   22548289.1984
  22373342.875    -7905712.98849  -6155043.23749  22373342.6274   22373347.4884
  24094818.481   -11845310.05449  -8806456.98049  24094817.1154   24094825.0374
  26007148.931    -2278691.70949  -1633757.78549  26007147.8464   26007159.8384
  22310693.749   -14480435.80949 -10837307.96649  22310693.5884   22310700.2184
 96 12  4 21 27  0.0040000  0  7 18 22 16 29 19  4 14
  22912244.434   -12505596.68849  -9735358.42049  22912243.4944   22912249.7764
  22951243.211   -14092210.46949 -10969264.05049  22951242.4164   22951247.7484
  22542527.847   -17381591.04849 -12690285.79949  22542527.1134   22542533.9834
  22379739.645    -7872097.42049  -6128849.30549  22379739.3594   22379744.5864
  24083937.487   -11902488.34249  -8851011.45049  24083936.4484   24083943.8194
  26013108.686    -2247372.97849  -1609353.59149  26013109.4894   26013119.5884
  22324973.518   -14405395.49549 -10778835.00449  22324973.3634   22324979.9134
 96 12  4 21 27 30.0040000  0  7 18 22 16 29 19  4 14
  22902216.051   -12558295.00949  -9776422.03649  22902215.6164   22902221.4494
  22963179.865   -14029482.57549 -10920385.16249  22963178.8624   22963184.5534
  22536877.297   -17411284.18749 -12713423.30349  22536876.4154   22536883.6624
  22386183.138    -7838236.62749  -6102464.28149  22386182.9784   22386188.0534
  24073100.156   -11959438.50249  -8895388.15849  24073099.7304   24073106.4394
  26019153.886    -2215606.09049  -1584600.17749  26019154.9544   26019165.2144
  22339345.095   -14329872.54449 -10719985.96149  22339344.7834   22339351.2314
 96 12  4 21 28  0.0040000  0  7 18 22 16 29 19  4 14
  22892218.489   -12610832.87249  -9817360.62349  22892218.0774   22892223.9894
  22975223.695   -13966191.25549 -10871067.24549  22975222.2754   22975228.4944
  22531327.906   -17440445.99049 -12736146.78549  22531327.1074   22531334.1024
  22392672.954    -7804132.24549  -6075889.45449  22392672.6154   22392677.7444
  24062305.783   -12016163.44849  -8939589.37849  24062306.6624   24062312.2984
  26025278.630    -2183419.66249  -1559519.86949  26025277.4354   26025286.6554
  22353809.492   -14253861.60849 -10660756.68149  22353809.4404   22353815.6424
 96 12  4 21 28 30.0040000  0  7 18 22 16 29 19  4 14
  22882250.520   -12663215.37749  -9858178.15049  22882250.0984   22882256.0254
  22987369.885   -13902362.41449 -10821330.46949  22987368.8464   22987374.1194
  22525876.728   -17469091.81649 -12758468.20449  22525876.7004   22525883.0584
  22399211.753    -7769770.59949  -6049114.15649  22399211.3594   22399216.2734
  24051554.028   -12072665.14649  -8983616.64549  24051553.9464   24051560.8614
  26031481.325    -2150821.33149  -1534118.62649  26031480.1114   26031483.9864
  22368365.200   -14177371.24149 -10601153.81049  22368364.9934   22368370.9284
